<?xml version="1.0" encoding="UTF-8" standalone="no" ?>
<gpx xmlns="http://www.topografix.com/GPX/1/1" xmlns:xsi="http://www.w3.org/2001/XMLSchema-instance" xsi:schemaLocation="http://www.topografix.com/GPX/1/1 http://www.topografix.com/GPX/1/1/gpx.xsd" version="1.1" creator="VisuGPX - https://www.visugpx.com">
  <metadata>
    <name>BAGNOLS EN FORET CASTEL DIOU</name>
    <desc><![CDATA[Belle promenade dans les massifs au tour de Bagnols en forêt.]]></desc>
  </metadata>
  <trk>
    <name><![CDATA[Tracé actuel: 30 SEP 2016 09:44]]></name>
    <trkseg>
      <trkpt lat="43.54778" lon="6.65878">
        <ele>240.47</ele>
        <time>2016-09-30T07:44:41Z</time>
      </trkpt>
      <trkpt lat="43.54782" lon="6.65881">
        <ele>239.99</ele>
        <time>2016-09-30T07:44:42Z</time>
      </trkpt>
      <trkpt lat="43.54793" lon="6.65888">
        <ele>237.1</ele>
        <time>2016-09-30T07:45:03Z</time>
      </trkpt>
      <trkpt lat="43.54789" lon="6.65888">
        <ele>242.87</ele>
        <time>2016-09-30T07:45:05Z</time>
      </trkpt>
      <trkpt lat="43.54788" lon="6.65889">
        <ele>239.99</ele>
        <time>2016-09-30T07:45:06Z</time>
      </trkpt>
      <trkpt lat="43.54784" lon="6.65893">
        <ele>239.99</ele>
        <time>2016-09-30T07:45:26Z</time>
      </trkpt>
      <trkpt lat="43.54775" lon="6.65891">
        <ele>239.99</ele>
        <time>2016-09-30T07:45:56Z</time>
      </trkpt>
      <trkpt lat="43.54772" lon="6.65885">
        <ele>239.99</ele>
        <time>2016-09-30T07:46:41Z</time>
      </trkpt>
      <trkpt lat="43.54775" lon="6.65885">
        <ele>240.47</ele>
        <time>2016-09-30T07:47:04Z</time>
      </trkpt>
      <trkpt lat="43.5478" lon="6.65881">
        <ele>240.47</ele>
        <time>2016-09-30T07:47:10Z</time>
      </trkpt>
      <trkpt lat="43.54784" lon="6.65878">
        <ele>240.95</ele>
        <time>2016-09-30T07:47:15Z</time>
      </trkpt>
      <trkpt lat="43.54794" lon="6.65869">
        <ele>240.95</ele>
        <time>2016-09-30T07:47:27Z</time>
      </trkpt>
      <trkpt lat="43.54801" lon="6.65855">
        <ele>241.43</ele>
        <time>2016-09-30T07:47:38Z</time>
      </trkpt>
      <trkpt lat="43.54801" lon="6.65851">
        <ele>241.43</ele>
        <time>2016-09-30T07:47:40Z</time>
      </trkpt>
      <trkpt lat="43.54801" lon="6.65832">
        <ele>241.91</ele>
        <time>2016-09-30T07:47:49Z</time>
      </trkpt>
      <trkpt lat="43.54792" lon="6.6581">
        <ele>242.39</ele>
        <time>2016-09-30T07:48:03Z</time>
      </trkpt>
      <trkpt lat="43.54785" lon="6.65789">
        <ele>243.35</ele>
        <time>2016-09-30T07:48:18Z</time>
      </trkpt>
      <trkpt lat="43.54784" lon="6.65783">
        <ele>243.83</ele>
        <time>2016-09-30T07:48:22Z</time>
      </trkpt>
      <trkpt lat="43.54782" lon="6.65778">
        <ele>243.83</ele>
        <time>2016-09-30T07:48:26Z</time>
      </trkpt>
      <trkpt lat="43.54775" lon="6.65757">
        <ele>244.79</ele>
        <time>2016-09-30T07:48:40Z</time>
      </trkpt>
      <trkpt lat="43.5477" lon="6.65738">
        <ele>246.23</ele>
        <time>2016-09-30T07:48:53Z</time>
      </trkpt>
      <trkpt lat="43.54769" lon="6.65734">
        <ele>246.72</ele>
        <time>2016-09-30T07:48:56Z</time>
      </trkpt>
      <trkpt lat="43.54767" lon="6.65727">
        <ele>247.68</ele>
        <time>2016-09-30T07:49:02Z</time>
      </trkpt>
      <trkpt lat="43.54758" lon="6.6572">
        <ele>248.16</ele>
        <time>2016-09-30T07:49:10Z</time>
      </trkpt>
      <trkpt lat="43.54743" lon="6.65715">
        <ele>248.64</ele>
        <time>2016-09-30T07:49:21Z</time>
      </trkpt>
      <trkpt lat="43.54734" lon="6.65716">
        <ele>249.12</ele>
        <time>2016-09-30T07:49:34Z</time>
      </trkpt>
      <trkpt lat="43.54733" lon="6.65717">
        <ele>249.12</ele>
        <time>2016-09-30T07:49:53Z</time>
      </trkpt>
      <trkpt lat="43.54732" lon="6.65718">
        <ele>249.12</ele>
        <time>2016-09-30T07:50:14Z</time>
      </trkpt>
      <trkpt lat="43.54732" lon="6.65719">
        <ele>249.6</ele>
        <time>2016-09-30T07:50:43Z</time>
      </trkpt>
      <trkpt lat="43.54732" lon="6.6572">
        <ele>249.6</ele>
        <time>2016-09-30T07:51:10Z</time>
      </trkpt>
      <trkpt lat="43.54731" lon="6.65719">
        <ele>249.6</ele>
        <time>2016-09-30T07:51:42Z</time>
      </trkpt>
      <trkpt lat="43.54731" lon="6.65719">
        <ele>249.6</ele>
        <time>2016-09-30T07:52:18Z</time>
      </trkpt>
      <trkpt lat="43.54732" lon="6.6572">
        <ele>249.6</ele>
        <time>2016-09-30T07:52:53Z</time>
      </trkpt>
      <trkpt lat="43.54733" lon="6.65719">
        <ele>250.08</ele>
        <time>2016-09-30T07:53:19Z</time>
      </trkpt>
      <trkpt lat="43.54732" lon="6.65719">
        <ele>250.08</ele>
        <time>2016-09-30T07:53:49Z</time>
      </trkpt>
      <trkpt lat="43.54732" lon="6.65719">
        <ele>250.08</ele>
        <time>2016-09-30T07:54:17Z</time>
      </trkpt>
      <trkpt lat="43.54732" lon="6.65719">
        <ele>250.08</ele>
        <time>2016-09-30T07:54:51Z</time>
      </trkpt>
      <trkpt lat="43.54731" lon="6.65718">
        <ele>250.08</ele>
        <time>2016-09-30T07:55:24Z</time>
      </trkpt>
      <trkpt lat="43.5473" lon="6.65719">
        <ele>250.56</ele>
        <time>2016-09-30T07:55:51Z</time>
      </trkpt>
      <trkpt lat="43.54731" lon="6.65719">
        <ele>250.08</ele>
        <time>2016-09-30T07:56:10Z</time>
      </trkpt>
      <trkpt lat="43.54731" lon="6.65719">
        <ele>250.56</ele>
        <time>2016-09-30T07:56:38Z</time>
      </trkpt>
      <trkpt lat="43.5473" lon="6.65719">
        <ele>250.56</ele>
        <time>2016-09-30T07:56:50Z</time>
      </trkpt>
      <trkpt lat="43.5473" lon="6.65718">
        <ele>250.56</ele>
        <time>2016-09-30T07:57:06Z</time>
      </trkpt>
      <trkpt lat="43.54726" lon="6.65713">
        <ele>250.56</ele>
        <time>2016-09-30T07:57:11Z</time>
      </trkpt>
      <trkpt lat="43.54719" lon="6.65708">
        <ele>251.04</ele>
        <time>2016-09-30T07:57:18Z</time>
      </trkpt>
      <trkpt lat="43.54717" lon="6.65703">
        <ele>251.52</ele>
        <time>2016-09-30T07:57:21Z</time>
      </trkpt>
      <trkpt lat="43.54714" lon="6.65696">
        <ele>252</ele>
        <time>2016-09-30T07:57:27Z</time>
      </trkpt>
      <trkpt lat="43.54717" lon="6.6568">
        <ele>254.89</ele>
        <time>2016-09-30T07:57:41Z</time>
      </trkpt>
      <trkpt lat="43.5472" lon="6.65677">
        <ele>255.37</ele>
        <time>2016-09-30T07:57:47Z</time>
      </trkpt>
      <trkpt lat="43.54724" lon="6.65678">
        <ele>255.85</ele>
        <time>2016-09-30T07:57:51Z</time>
      </trkpt>
      <trkpt lat="43.54738" lon="6.65673">
        <ele>256.33</ele>
        <time>2016-09-30T07:58:05Z</time>
      </trkpt>
      <trkpt lat="43.54752" lon="6.65664">
        <ele>257.77</ele>
        <time>2016-09-30T07:58:19Z</time>
      </trkpt>
      <trkpt lat="43.54766" lon="6.65652">
        <ele>258.25</ele>
        <time>2016-09-30T07:58:35Z</time>
      </trkpt>
      <trkpt lat="43.54775" lon="6.65637">
        <ele>258.73</ele>
        <time>2016-09-30T07:58:50Z</time>
      </trkpt>
      <trkpt lat="43.54785" lon="6.65623">
        <ele>259.21</ele>
        <time>2016-09-30T07:59:06Z</time>
      </trkpt>
      <trkpt lat="43.54797" lon="6.65609">
        <ele>260.65</ele>
        <time>2016-09-30T07:59:22Z</time>
      </trkpt>
      <trkpt lat="43.54805" lon="6.65602">
        <ele>261.62</ele>
        <time>2016-09-30T07:59:36Z</time>
      </trkpt>
      <trkpt lat="43.54806" lon="6.65602">
        <ele>262.1</ele>
        <time>2016-09-30T07:59:55Z</time>
      </trkpt>
      <trkpt lat="43.54806" lon="6.65602">
        <ele>262.1</ele>
        <time>2016-09-30T08:00:27Z</time>
      </trkpt>
      <trkpt lat="43.54807" lon="6.65602">
        <ele>262.1</ele>
        <time>2016-09-30T08:00:41Z</time>
      </trkpt>
      <trkpt lat="43.54808" lon="6.65602">
        <ele>262.58</ele>
        <time>2016-09-30T08:01:10Z</time>
      </trkpt>
      <trkpt lat="43.54817" lon="6.65602">
        <ele>263.06</ele>
        <time>2016-09-30T08:01:20Z</time>
      </trkpt>
      <trkpt lat="43.54831" lon="6.65593">
        <ele>264.02</ele>
        <time>2016-09-30T08:01:35Z</time>
      </trkpt>
      <trkpt lat="43.54835" lon="6.65588">
        <ele>264.5</ele>
        <time>2016-09-30T08:01:46Z</time>
      </trkpt>
      <trkpt lat="43.54837" lon="6.65587">
        <ele>264.5</ele>
        <time>2016-09-30T08:01:55Z</time>
      </trkpt>
      <trkpt lat="43.5484" lon="6.65582">
        <ele>264.5</ele>
        <time>2016-09-30T08:02:00Z</time>
      </trkpt>
      <trkpt lat="43.54851" lon="6.65563">
        <ele>264.98</ele>
        <time>2016-09-30T08:02:15Z</time>
      </trkpt>
      <trkpt lat="43.54862" lon="6.65544">
        <ele>265.94</ele>
        <time>2016-09-30T08:02:29Z</time>
      </trkpt>
      <trkpt lat="43.54864" lon="6.65538">
        <ele>266.9</ele>
        <time>2016-09-30T08:02:33Z</time>
      </trkpt>
      <trkpt lat="43.54867" lon="6.65531">
        <ele>265.94</ele>
        <time>2016-09-30T08:02:38Z</time>
      </trkpt>
      <trkpt lat="43.54873" lon="6.65519">
        <ele>266.9</ele>
        <time>2016-09-30T08:02:51Z</time>
      </trkpt>
      <trkpt lat="43.54876" lon="6.65515">
        <ele>267.38</ele>
        <time>2016-09-30T08:02:55Z</time>
      </trkpt>
      <trkpt lat="43.54884" lon="6.65499">
        <ele>268.35</ele>
        <time>2016-09-30T08:03:10Z</time>
      </trkpt>
      <trkpt lat="43.54893" lon="6.65487">
        <ele>269.79</ele>
        <time>2016-09-30T08:03:23Z</time>
      </trkpt>
      <trkpt lat="43.54901" lon="6.65477">
        <ele>271.23</ele>
        <time>2016-09-30T08:03:34Z</time>
      </trkpt>
      <trkpt lat="43.54903" lon="6.65474">
        <ele>271.71</ele>
        <time>2016-09-30T08:03:37Z</time>
      </trkpt>
      <trkpt lat="43.54906" lon="6.65468">
        <ele>272.19</ele>
        <time>2016-09-30T08:03:42Z</time>
      </trkpt>
      <trkpt lat="43.54909" lon="6.65465">
        <ele>272.67</ele>
        <time>2016-09-30T08:03:46Z</time>
      </trkpt>
      <trkpt lat="43.5491" lon="6.65463">
        <ele>272.67</ele>
        <time>2016-09-30T08:03:48Z</time>
      </trkpt>
      <trkpt lat="43.54915" lon="6.65458">
        <ele>274.11</ele>
        <time>2016-09-30T08:03:56Z</time>
      </trkpt>
      <trkpt lat="43.54919" lon="6.65454">
        <ele>274.59</ele>
        <time>2016-09-30T08:04:00Z</time>
      </trkpt>
      <trkpt lat="43.54929" lon="6.65439">
        <ele>276.04</ele>
        <time>2016-09-30T08:04:14Z</time>
      </trkpt>
      <trkpt lat="43.54937" lon="6.65423">
        <ele>277</ele>
        <time>2016-09-30T08:04:27Z</time>
      </trkpt>
      <trkpt lat="43.54946" lon="6.65405">
        <ele>278.44</ele>
        <time>2016-09-30T08:04:42Z</time>
      </trkpt>
      <trkpt lat="43.54957" lon="6.65391">
        <ele>279.88</ele>
        <time>2016-09-30T08:04:55Z</time>
      </trkpt>
      <trkpt lat="43.54967" lon="6.65379">
        <ele>281.32</ele>
        <time>2016-09-30T08:05:09Z</time>
      </trkpt>
      <trkpt lat="43.54973" lon="6.65373">
        <ele>281.8</ele>
        <time>2016-09-30T08:05:16Z</time>
      </trkpt>
      <trkpt lat="43.54986" lon="6.65361">
        <ele>282.77</ele>
        <time>2016-09-30T08:05:30Z</time>
      </trkpt>
      <trkpt lat="43.54994" lon="6.65356">
        <ele>283.25</ele>
        <time>2016-09-30T08:05:38Z</time>
      </trkpt>
      <trkpt lat="43.54996" lon="6.65354">
        <ele>283.73</ele>
        <time>2016-09-30T08:05:40Z</time>
      </trkpt>
      <trkpt lat="43.55009" lon="6.65343">
        <ele>284.69</ele>
        <time>2016-09-30T08:05:53Z</time>
      </trkpt>
      <trkpt lat="43.5502" lon="6.65332">
        <ele>284.69</ele>
        <time>2016-09-30T08:06:05Z</time>
      </trkpt>
      <trkpt lat="43.55027" lon="6.65319">
        <ele>284.69</ele>
        <time>2016-09-30T08:06:15Z</time>
      </trkpt>
      <trkpt lat="43.55036" lon="6.65296">
        <ele>284.21</ele>
        <time>2016-09-30T08:06:30Z</time>
      </trkpt>
      <trkpt lat="43.55042" lon="6.65274">
        <ele>283.73</ele>
        <time>2016-09-30T08:06:44Z</time>
      </trkpt>
      <trkpt lat="43.55048" lon="6.65251">
        <ele>283.73</ele>
        <time>2016-09-30T08:06:57Z</time>
      </trkpt>
      <trkpt lat="43.55056" lon="6.65228">
        <ele>283.25</ele>
        <time>2016-09-30T08:07:13Z</time>
      </trkpt>
      <trkpt lat="43.5506" lon="6.65219">
        <ele>282.77</ele>
        <time>2016-09-30T08:07:19Z</time>
      </trkpt>
      <trkpt lat="43.55068" lon="6.65196">
        <ele>283.73</ele>
        <time>2016-09-30T08:07:34Z</time>
      </trkpt>
      <trkpt lat="43.55069" lon="6.65194">
        <ele>283.73</ele>
        <time>2016-09-30T08:07:35Z</time>
      </trkpt>
      <trkpt lat="43.55074" lon="6.65173">
        <ele>283.73</ele>
        <time>2016-09-30T08:07:49Z</time>
      </trkpt>
      <trkpt lat="43.55079" lon="6.65152">
        <ele>284.21</ele>
        <time>2016-09-30T08:08:03Z</time>
      </trkpt>
      <trkpt lat="43.55088" lon="6.65133">
        <ele>284.69</ele>
        <time>2016-09-30T08:08:17Z</time>
      </trkpt>
      <trkpt lat="43.55101" lon="6.65116">
        <ele>285.65</ele>
        <time>2016-09-30T08:08:33Z</time>
      </trkpt>
      <trkpt lat="43.5511" lon="6.65093">
        <ele>286.13</ele>
        <time>2016-09-30T08:08:48Z</time>
      </trkpt>
      <trkpt lat="43.55114" lon="6.65069">
        <ele>287.09</ele>
        <time>2016-09-30T08:09:02Z</time>
      </trkpt>
      <trkpt lat="43.55123" lon="6.65048">
        <ele>287.57</ele>
        <time>2016-09-30T08:09:17Z</time>
      </trkpt>
      <trkpt lat="43.55132" lon="6.65026">
        <ele>288.05</ele>
        <time>2016-09-30T08:09:32Z</time>
      </trkpt>
      <trkpt lat="43.55141" lon="6.65009">
        <ele>288.53</ele>
        <time>2016-09-30T08:09:46Z</time>
      </trkpt>
      <trkpt lat="43.55151" lon="6.64989">
        <ele>289.01</ele>
        <time>2016-09-30T08:10:01Z</time>
      </trkpt>
      <trkpt lat="43.55154" lon="6.64985">
        <ele>289.49</ele>
        <time>2016-09-30T08:10:04Z</time>
      </trkpt>
      <trkpt lat="43.55156" lon="6.64979">
        <ele>289.97</ele>
        <time>2016-09-30T08:10:17Z</time>
      </trkpt>
      <trkpt lat="43.55156" lon="6.64976">
        <ele>290.46</ele>
        <time>2016-09-30T08:10:36Z</time>
      </trkpt>
      <trkpt lat="43.55156" lon="6.64953">
        <ele>290.94</ele>
        <time>2016-09-30T08:10:50Z</time>
      </trkpt>
      <trkpt lat="43.55152" lon="6.64938">
        <ele>290.94</ele>
        <time>2016-09-30T08:11:02Z</time>
      </trkpt>
      <trkpt lat="43.55142" lon="6.64922">
        <ele>290.46</ele>
        <time>2016-09-30T08:11:16Z</time>
      </trkpt>
      <trkpt lat="43.55129" lon="6.64904">
        <ele>289.97</ele>
        <time>2016-09-30T08:11:32Z</time>
      </trkpt>
      <trkpt lat="43.55123" lon="6.64889">
        <ele>289.97</ele>
        <time>2016-09-30T08:11:43Z</time>
      </trkpt>
      <trkpt lat="43.55122" lon="6.64885">
        <ele>289.49</ele>
        <time>2016-09-30T08:11:46Z</time>
      </trkpt>
      <trkpt lat="43.55122" lon="6.64877">
        <ele>289.49</ele>
        <time>2016-09-30T08:11:52Z</time>
      </trkpt>
      <trkpt lat="43.55121" lon="6.64874">
        <ele>289.49</ele>
        <time>2016-09-30T08:11:55Z</time>
      </trkpt>
      <trkpt lat="43.55122" lon="6.64871">
        <ele>289.49</ele>
        <time>2016-09-30T08:11:57Z</time>
      </trkpt>
      <trkpt lat="43.5512" lon="6.64864">
        <ele>289.49</ele>
        <time>2016-09-30T08:12:01Z</time>
      </trkpt>
      <trkpt lat="43.55117" lon="6.64857">
        <ele>289.49</ele>
        <time>2016-09-30T08:12:05Z</time>
      </trkpt>
      <trkpt lat="43.55115" lon="6.6485">
        <ele>289.49</ele>
        <time>2016-09-30T08:12:09Z</time>
      </trkpt>
      <trkpt lat="43.551" lon="6.64834">
        <ele>289.49</ele>
        <time>2016-09-30T08:12:25Z</time>
      </trkpt>
      <trkpt lat="43.55103" lon="6.64827">
        <ele>289.49</ele>
        <time>2016-09-30T08:12:32Z</time>
      </trkpt>
      <trkpt lat="43.55114" lon="6.64819">
        <ele>289.49</ele>
        <time>2016-09-30T08:12:47Z</time>
      </trkpt>
      <trkpt lat="43.55113" lon="6.64817">
        <ele>289.49</ele>
        <time>2016-09-30T08:13:07Z</time>
      </trkpt>
      <trkpt lat="43.55112" lon="6.64816">
        <ele>289.97</ele>
        <time>2016-09-30T08:13:38Z</time>
      </trkpt>
      <trkpt lat="43.55113" lon="6.64815">
        <ele>289.97</ele>
        <time>2016-09-30T08:14:12Z</time>
      </trkpt>
      <trkpt lat="43.55113" lon="6.64816">
        <ele>289.97</ele>
        <time>2016-09-30T08:14:37Z</time>
      </trkpt>
      <trkpt lat="43.55115" lon="6.64814">
        <ele>290.46</ele>
        <time>2016-09-30T08:14:40Z</time>
      </trkpt>
      <trkpt lat="43.55129" lon="6.64804">
        <ele>291.9</ele>
        <time>2016-09-30T08:14:55Z</time>
      </trkpt>
      <trkpt lat="43.55134" lon="6.6479">
        <ele>293.34</ele>
        <time>2016-09-30T08:15:06Z</time>
      </trkpt>
      <trkpt lat="43.55137" lon="6.64779">
        <ele>293.82</ele>
        <time>2016-09-30T08:15:14Z</time>
      </trkpt>
      <trkpt lat="43.55141" lon="6.64769">
        <ele>294.78</ele>
        <time>2016-09-30T08:15:23Z</time>
      </trkpt>
      <trkpt lat="43.55149" lon="6.64754">
        <ele>295.74</ele>
        <time>2016-09-30T08:15:38Z</time>
      </trkpt>
      <trkpt lat="43.55153" lon="6.64741">
        <ele>297.18</ele>
        <time>2016-09-30T08:15:49Z</time>
      </trkpt>
      <trkpt lat="43.55154" lon="6.64739">
        <ele>297.18</ele>
        <time>2016-09-30T08:15:51Z</time>
      </trkpt>
      <trkpt lat="43.55156" lon="6.64731">
        <ele>297.67</ele>
        <time>2016-09-30T08:15:58Z</time>
      </trkpt>
      <trkpt lat="43.5516" lon="6.64727">
        <ele>298.15</ele>
        <time>2016-09-30T08:16:02Z</time>
      </trkpt>
      <trkpt lat="43.55165" lon="6.64718">
        <ele>298.63</ele>
        <time>2016-09-30T08:16:11Z</time>
      </trkpt>
      <trkpt lat="43.55173" lon="6.64703">
        <ele>300.07</ele>
        <time>2016-09-30T08:16:26Z</time>
      </trkpt>
      <trkpt lat="43.55177" lon="6.6469">
        <ele>301.03</ele>
        <time>2016-09-30T08:16:37Z</time>
      </trkpt>
      <trkpt lat="43.55178" lon="6.64685">
        <ele>301.51</ele>
        <time>2016-09-30T08:16:41Z</time>
      </trkpt>
      <trkpt lat="43.55181" lon="6.64679">
        <ele>301.51</ele>
        <time>2016-09-30T08:16:46Z</time>
      </trkpt>
      <trkpt lat="43.55183" lon="6.64672">
        <ele>301.99</ele>
        <time>2016-09-30T08:16:51Z</time>
      </trkpt>
      <trkpt lat="43.55185" lon="6.6466">
        <ele>302.47</ele>
        <time>2016-09-30T08:17:01Z</time>
      </trkpt>
      <trkpt lat="43.55185" lon="6.64657">
        <ele>302.47</ele>
        <time>2016-09-30T08:17:03Z</time>
      </trkpt>
      <trkpt lat="43.55186" lon="6.64638">
        <ele>303.43</ele>
        <time>2016-09-30T08:17:19Z</time>
      </trkpt>
      <trkpt lat="43.55185" lon="6.64628">
        <ele>304.39</ele>
        <time>2016-09-30T08:17:28Z</time>
      </trkpt>
      <trkpt lat="43.55172" lon="6.64614">
        <ele>304.88</ele>
        <time>2016-09-30T08:17:44Z</time>
      </trkpt>
      <trkpt lat="43.5516" lon="6.64607">
        <ele>305.36</ele>
        <time>2016-09-30T08:17:58Z</time>
      </trkpt>
      <trkpt lat="43.55151" lon="6.646">
        <ele>306.32</ele>
        <time>2016-09-30T08:18:10Z</time>
      </trkpt>
      <trkpt lat="43.55148" lon="6.64597">
        <ele>306.8</ele>
        <time>2016-09-30T08:18:17Z</time>
      </trkpt>
      <trkpt lat="43.55137" lon="6.64583">
        <ele>308.24</ele>
        <time>2016-09-30T08:18:32Z</time>
      </trkpt>
      <trkpt lat="43.55129" lon="6.64566">
        <ele>309.2</ele>
        <time>2016-09-30T08:18:48Z</time>
      </trkpt>
      <trkpt lat="43.55131" lon="6.6455">
        <ele>309.68</ele>
        <time>2016-09-30T08:19:02Z</time>
      </trkpt>
      <trkpt lat="43.55132" lon="6.64534">
        <ele>311.12</ele>
        <time>2016-09-30T08:19:15Z</time>
      </trkpt>
      <trkpt lat="43.5513" lon="6.64515">
        <ele>311.6</ele>
        <time>2016-09-30T08:19:29Z</time>
      </trkpt>
      <trkpt lat="43.55137" lon="6.64499">
        <ele>312.09</ele>
        <time>2016-09-30T08:19:45Z</time>
      </trkpt>
      <trkpt lat="43.55138" lon="6.64495">
        <ele>312.57</ele>
        <time>2016-09-30T08:19:51Z</time>
      </trkpt>
      <trkpt lat="43.5514" lon="6.64493">
        <ele>312.57</ele>
        <time>2016-09-30T08:19:53Z</time>
      </trkpt>
      <trkpt lat="43.55151" lon="6.64478">
        <ele>313.53</ele>
        <time>2016-09-30T08:20:10Z</time>
      </trkpt>
      <trkpt lat="43.55158" lon="6.64459">
        <ele>314.49</ele>
        <time>2016-09-30T08:20:26Z</time>
      </trkpt>
      <trkpt lat="43.55159" lon="6.64456">
        <ele>314.49</ele>
        <time>2016-09-30T08:20:28Z</time>
      </trkpt>
      <trkpt lat="43.55164" lon="6.64439">
        <ele>315.45</ele>
        <time>2016-09-30T08:20:43Z</time>
      </trkpt>
      <trkpt lat="43.55167" lon="6.64419">
        <ele>316.41</ele>
        <time>2016-09-30T08:20:57Z</time>
      </trkpt>
      <trkpt lat="43.55169" lon="6.64414">
        <ele>316.89</ele>
        <time>2016-09-30T08:21:01Z</time>
      </trkpt>
      <trkpt lat="43.55169" lon="6.6441">
        <ele>316.89</ele>
        <time>2016-09-30T08:21:03Z</time>
      </trkpt>
      <trkpt lat="43.55169" lon="6.64403">
        <ele>317.37</ele>
        <time>2016-09-30T08:21:09Z</time>
      </trkpt>
      <trkpt lat="43.55171" lon="6.64385">
        <ele>317.85</ele>
        <time>2016-09-30T08:21:22Z</time>
      </trkpt>
      <trkpt lat="43.55175" lon="6.64373">
        <ele>318.33</ele>
        <time>2016-09-30T08:21:32Z</time>
      </trkpt>
      <trkpt lat="43.55175" lon="6.6437">
        <ele>318.33</ele>
        <time>2016-09-30T08:21:34Z</time>
      </trkpt>
      <trkpt lat="43.55179" lon="6.64356">
        <ele>319.3</ele>
        <time>2016-09-30T08:21:47Z</time>
      </trkpt>
      <trkpt lat="43.55184" lon="6.64347">
        <ele>319.78</ele>
        <time>2016-09-30T08:21:58Z</time>
      </trkpt>
      <trkpt lat="43.55192" lon="6.64331">
        <ele>320.26</ele>
        <time>2016-09-30T08:22:13Z</time>
      </trkpt>
      <trkpt lat="43.55189" lon="6.64325">
        <ele>320.74</ele>
        <time>2016-09-30T08:22:22Z</time>
      </trkpt>
      <trkpt lat="43.55179" lon="6.64333">
        <ele>322.18</ele>
        <time>2016-09-30T08:22:38Z</time>
      </trkpt>
      <trkpt lat="43.55171" lon="6.64342">
        <ele>323.62</ele>
        <time>2016-09-30T08:22:52Z</time>
      </trkpt>
      <trkpt lat="43.5516" lon="6.64355">
        <ele>325.06</ele>
        <time>2016-09-30T08:23:07Z</time>
      </trkpt>
      <trkpt lat="43.55155" lon="6.64374">
        <ele>326.5</ele>
        <time>2016-09-30T08:23:24Z</time>
      </trkpt>
      <trkpt lat="43.55152" lon="6.64394">
        <ele>327.47</ele>
        <time>2016-09-30T08:23:41Z</time>
      </trkpt>
      <trkpt lat="43.55141" lon="6.64413">
        <ele>328.91</ele>
        <time>2016-09-30T08:23:58Z</time>
      </trkpt>
      <trkpt lat="43.55136" lon="6.64419">
        <ele>329.39</ele>
        <time>2016-09-30T08:24:04Z</time>
      </trkpt>
      <trkpt lat="43.55125" lon="6.6443">
        <ele>330.83</ele>
        <time>2016-09-30T08:24:20Z</time>
      </trkpt>
      <trkpt lat="43.55115" lon="6.64444">
        <ele>333.23</ele>
        <time>2016-09-30T08:24:37Z</time>
      </trkpt>
      <trkpt lat="43.55107" lon="6.64456">
        <ele>334.68</ele>
        <time>2016-09-30T08:24:54Z</time>
      </trkpt>
      <trkpt lat="43.55095" lon="6.64464">
        <ele>336.12</ele>
        <time>2016-09-30T08:25:10Z</time>
      </trkpt>
      <trkpt lat="43.55085" lon="6.64466">
        <ele>337.08</ele>
        <time>2016-09-30T08:25:24Z</time>
      </trkpt>
      <trkpt lat="43.55079" lon="6.64482">
        <ele>337.56</ele>
        <time>2016-09-30T08:25:35Z</time>
      </trkpt>
      <trkpt lat="43.55074" lon="6.64501">
        <ele>338.52</ele>
        <time>2016-09-30T08:25:51Z</time>
      </trkpt>
      <trkpt lat="43.55074" lon="6.64503">
        <ele>338.52</ele>
        <time>2016-09-30T08:25:52Z</time>
      </trkpt>
      <trkpt lat="43.55074" lon="6.64506">
        <ele>338.52</ele>
        <time>2016-09-30T08:25:54Z</time>
      </trkpt>
      <trkpt lat="43.5507" lon="6.64521">
        <ele>339.48</ele>
        <time>2016-09-30T08:26:07Z</time>
      </trkpt>
      <trkpt lat="43.55068" lon="6.6453">
        <ele>339.96</ele>
        <time>2016-09-30T08:26:15Z</time>
      </trkpt>
      <trkpt lat="43.5506" lon="6.64547">
        <ele>340.92</ele>
        <time>2016-09-30T08:26:31Z</time>
      </trkpt>
      <trkpt lat="43.55053" lon="6.64559">
        <ele>341.89</ele>
        <time>2016-09-30T08:26:43Z</time>
      </trkpt>
      <trkpt lat="43.55048" lon="6.64577">
        <ele>342.85</ele>
        <time>2016-09-30T08:26:58Z</time>
      </trkpt>
      <trkpt lat="43.55046" lon="6.64583">
        <ele>343.33</ele>
        <time>2016-09-30T08:27:03Z</time>
      </trkpt>
      <trkpt lat="43.55046" lon="6.64589">
        <ele>343.33</ele>
        <time>2016-09-30T08:27:07Z</time>
      </trkpt>
      <trkpt lat="43.55041" lon="6.64605">
        <ele>344.29</ele>
        <time>2016-09-30T08:27:20Z</time>
      </trkpt>
      <trkpt lat="43.55039" lon="6.64609">
        <ele>344.29</ele>
        <time>2016-09-30T08:27:24Z</time>
      </trkpt>
      <trkpt lat="43.55036" lon="6.64614">
        <ele>345.25</ele>
        <time>2016-09-30T08:27:29Z</time>
      </trkpt>
      <trkpt lat="43.55028" lon="6.64628">
        <ele>346.21</ele>
        <time>2016-09-30T08:27:42Z</time>
      </trkpt>
      <trkpt lat="43.55015" lon="6.64634">
        <ele>347.17</ele>
        <time>2016-09-30T08:27:54Z</time>
      </trkpt>
      <trkpt lat="43.55005" lon="6.64642">
        <ele>348.62</ele>
        <time>2016-09-30T08:28:11Z</time>
      </trkpt>
      <trkpt lat="43.55004" lon="6.64639">
        <ele>350.54</ele>
        <time>2016-09-30T08:28:24Z</time>
      </trkpt>
      <trkpt lat="43.55001" lon="6.64639">
        <ele>351.02</ele>
        <time>2016-09-30T08:28:38Z</time>
      </trkpt>
      <trkpt lat="43.55002" lon="6.64639">
        <ele>350.54</ele>
        <time>2016-09-30T08:28:59Z</time>
      </trkpt>
      <trkpt lat="43.55001" lon="6.6464">
        <ele>350.54</ele>
        <time>2016-09-30T08:29:23Z</time>
      </trkpt>
      <trkpt lat="43.55001" lon="6.6464">
        <ele>351.02</ele>
        <time>2016-09-30T08:29:37Z</time>
      </trkpt>
      <trkpt lat="43.55004" lon="6.64636">
        <ele>351.02</ele>
        <time>2016-09-30T08:29:42Z</time>
      </trkpt>
      <trkpt lat="43.55015" lon="6.64619">
        <ele>352.94</ele>
        <time>2016-09-30T08:29:57Z</time>
      </trkpt>
      <trkpt lat="43.55016" lon="6.64618">
        <ele>352.46</ele>
        <time>2016-09-30T08:29:58Z</time>
      </trkpt>
      <trkpt lat="43.5502" lon="6.64595">
        <ele>353.9</ele>
        <time>2016-09-30T08:30:14Z</time>
      </trkpt>
      <trkpt lat="43.55022" lon="6.64579">
        <ele>355.83</ele>
        <time>2016-09-30T08:30:29Z</time>
      </trkpt>
      <trkpt lat="43.55027" lon="6.64562">
        <ele>357.27</ele>
        <time>2016-09-30T08:30:44Z</time>
      </trkpt>
      <trkpt lat="43.5503" lon="6.64545">
        <ele>358.71</ele>
        <time>2016-09-30T08:30:58Z</time>
      </trkpt>
      <trkpt lat="43.55032" lon="6.6453">
        <ele>359.67</ele>
        <time>2016-09-30T08:31:12Z</time>
      </trkpt>
      <trkpt lat="43.55036" lon="6.64515">
        <ele>361.11</ele>
        <time>2016-09-30T08:31:27Z</time>
      </trkpt>
      <trkpt lat="43.55035" lon="6.64505">
        <ele>361.59</ele>
        <time>2016-09-30T08:31:35Z</time>
      </trkpt>
      <trkpt lat="43.55036" lon="6.64499">
        <ele>362.07</ele>
        <time>2016-09-30T08:31:40Z</time>
      </trkpt>
      <trkpt lat="43.55029" lon="6.64488">
        <ele>364</ele>
        <time>2016-09-30T08:31:54Z</time>
      </trkpt>
      <trkpt lat="43.55017" lon="6.64501">
        <ele>364.96</ele>
        <time>2016-09-30T08:32:10Z</time>
      </trkpt>
      <trkpt lat="43.55014" lon="6.64509">
        <ele>364.96</ele>
        <time>2016-09-30T08:32:17Z</time>
      </trkpt>
      <trkpt lat="43.55006" lon="6.64523">
        <ele>365.92</ele>
        <time>2016-09-30T08:32:32Z</time>
      </trkpt>
      <trkpt lat="43.55" lon="6.64528">
        <ele>366.4</ele>
        <time>2016-09-30T08:32:39Z</time>
      </trkpt>
      <trkpt lat="43.5499" lon="6.64539">
        <ele>367.36</ele>
        <time>2016-09-30T08:32:54Z</time>
      </trkpt>
      <trkpt lat="43.54981" lon="6.64553">
        <ele>369.28</ele>
        <time>2016-09-30T08:33:14Z</time>
      </trkpt>
      <trkpt lat="43.54972" lon="6.64564">
        <ele>370.24</ele>
        <time>2016-09-30T08:33:29Z</time>
      </trkpt>
      <trkpt lat="43.54963" lon="6.64575">
        <ele>371.21</ele>
        <time>2016-09-30T08:33:38Z</time>
      </trkpt>
      <trkpt lat="43.54952" lon="6.64594">
        <ele>372.17</ele>
        <time>2016-09-30T08:33:56Z</time>
      </trkpt>
      <trkpt lat="43.54943" lon="6.64614">
        <ele>372.65</ele>
        <time>2016-09-30T08:34:13Z</time>
      </trkpt>
      <trkpt lat="43.54933" lon="6.6463">
        <ele>373.61</ele>
        <time>2016-09-30T08:34:28Z</time>
      </trkpt>
      <trkpt lat="43.54929" lon="6.64642">
        <ele>374.09</ele>
        <time>2016-09-30T08:34:46Z</time>
      </trkpt>
      <trkpt lat="43.54926" lon="6.64649">
        <ele>374.09</ele>
        <time>2016-09-30T08:35:01Z</time>
      </trkpt>
      <trkpt lat="43.54922" lon="6.64661">
        <ele>374.57</ele>
        <time>2016-09-30T08:35:11Z</time>
      </trkpt>
      <trkpt lat="43.54911" lon="6.64673">
        <ele>375.53</ele>
        <time>2016-09-30T08:35:26Z</time>
      </trkpt>
      <trkpt lat="43.5491" lon="6.64672">
        <ele>376.01</ele>
        <time>2016-09-30T08:35:37Z</time>
      </trkpt>
      <trkpt lat="43.54915" lon="6.64667">
        <ele>376.97</ele>
        <time>2016-09-30T08:35:46Z</time>
      </trkpt>
      <trkpt lat="43.54918" lon="6.64661">
        <ele>377.45</ele>
        <time>2016-09-30T08:35:52Z</time>
      </trkpt>
      <trkpt lat="43.54924" lon="6.64643">
        <ele>378.42</ele>
        <time>2016-09-30T08:36:06Z</time>
      </trkpt>
      <trkpt lat="43.5493" lon="6.64623">
        <ele>379.86</ele>
        <time>2016-09-30T08:36:22Z</time>
      </trkpt>
      <trkpt lat="43.54933" lon="6.64606">
        <ele>380.82</ele>
        <time>2016-09-30T08:36:36Z</time>
      </trkpt>
      <trkpt lat="43.54937" lon="6.64591">
        <ele>381.3</ele>
        <time>2016-09-30T08:36:50Z</time>
      </trkpt>
      <trkpt lat="43.54943" lon="6.64584">
        <ele>381.78</ele>
        <time>2016-09-30T08:37:03Z</time>
      </trkpt>
      <trkpt lat="43.54952" lon="6.64568">
        <ele>383.22</ele>
        <time>2016-09-30T08:37:17Z</time>
      </trkpt>
      <trkpt lat="43.54959" lon="6.64548">
        <ele>383.22</ele>
        <time>2016-09-30T08:37:33Z</time>
      </trkpt>
      <trkpt lat="43.54964" lon="6.64532">
        <ele>383.7</ele>
        <time>2016-09-30T08:37:47Z</time>
      </trkpt>
      <trkpt lat="43.54971" lon="6.64511">
        <ele>385.15</ele>
        <time>2016-09-30T08:38:03Z</time>
      </trkpt>
      <trkpt lat="43.54974" lon="6.64492">
        <ele>386.11</ele>
        <time>2016-09-30T08:38:19Z</time>
      </trkpt>
      <trkpt lat="43.54976" lon="6.64476">
        <ele>387.55</ele>
        <time>2016-09-30T08:38:34Z</time>
      </trkpt>
      <trkpt lat="43.5498" lon="6.64455">
        <ele>388.51</ele>
        <time>2016-09-30T08:38:50Z</time>
      </trkpt>
      <trkpt lat="43.54982" lon="6.64451">
        <ele>388.99</ele>
        <time>2016-09-30T08:38:53Z</time>
      </trkpt>
      <trkpt lat="43.54981" lon="6.64429">
        <ele>390.91</ele>
        <time>2016-09-30T08:39:09Z</time>
      </trkpt>
      <trkpt lat="43.54987" lon="6.64415">
        <ele>392.36</ele>
        <time>2016-09-30T08:39:27Z</time>
      </trkpt>
      <trkpt lat="43.54993" lon="6.64395">
        <ele>394.28</ele>
        <time>2016-09-30T08:39:44Z</time>
      </trkpt>
      <trkpt lat="43.54994" lon="6.64392">
        <ele>394.28</ele>
        <time>2016-09-30T08:39:46Z</time>
      </trkpt>
      <trkpt lat="43.54988" lon="6.6438">
        <ele>395.72</ele>
        <time>2016-09-30T08:39:59Z</time>
      </trkpt>
      <trkpt lat="43.54978" lon="6.64382">
        <ele>397.16</ele>
        <time>2016-09-30T08:40:14Z</time>
      </trkpt>
      <trkpt lat="43.54976" lon="6.64384">
        <ele>397.64</ele>
        <time>2016-09-30T08:40:17Z</time>
      </trkpt>
      <trkpt lat="43.5497" lon="6.64396">
        <ele>398.6</ele>
        <time>2016-09-30T08:40:29Z</time>
      </trkpt>
      <trkpt lat="43.5496" lon="6.64405">
        <ele>399.57</ele>
        <time>2016-09-30T08:40:43Z</time>
      </trkpt>
      <trkpt lat="43.54957" lon="6.6441">
        <ele>400.05</ele>
        <time>2016-09-30T08:40:48Z</time>
      </trkpt>
      <trkpt lat="43.5495" lon="6.64422">
        <ele>401.49</ele>
        <time>2016-09-30T08:41:05Z</time>
      </trkpt>
      <trkpt lat="43.54942" lon="6.6443">
        <ele>402.45</ele>
        <time>2016-09-30T08:41:15Z</time>
      </trkpt>
      <trkpt lat="43.54942" lon="6.64435">
        <ele>402.93</ele>
        <time>2016-09-30T08:41:18Z</time>
      </trkpt>
      <trkpt lat="43.54937" lon="6.64449">
        <ele>403.89</ele>
        <time>2016-09-30T08:41:32Z</time>
      </trkpt>
      <trkpt lat="43.54933" lon="6.64464">
        <ele>405.81</ele>
        <time>2016-09-30T08:41:48Z</time>
      </trkpt>
      <trkpt lat="43.54925" lon="6.64478">
        <ele>407.26</ele>
        <time>2016-09-30T08:42:02Z</time>
      </trkpt>
      <trkpt lat="43.54923" lon="6.6448">
        <ele>407.74</ele>
        <time>2016-09-30T08:42:05Z</time>
      </trkpt>
      <trkpt lat="43.54913" lon="6.64491">
        <ele>409.66</ele>
        <time>2016-09-30T08:42:20Z</time>
      </trkpt>
      <trkpt lat="43.54906" lon="6.64498">
        <ele>411.58</ele>
        <time>2016-09-30T08:42:34Z</time>
      </trkpt>
      <trkpt lat="43.54897" lon="6.64508">
        <ele>413.5</ele>
        <time>2016-09-30T08:42:51Z</time>
      </trkpt>
      <trkpt lat="43.54887" lon="6.64517">
        <ele>414.95</ele>
        <time>2016-09-30T08:43:06Z</time>
      </trkpt>
      <trkpt lat="43.54873" lon="6.64528">
        <ele>416.87</ele>
        <time>2016-09-30T08:43:24Z</time>
      </trkpt>
      <trkpt lat="43.54864" lon="6.64539">
        <ele>418.79</ele>
        <time>2016-09-30T08:43:41Z</time>
      </trkpt>
      <trkpt lat="43.54853" lon="6.64552">
        <ele>420.71</ele>
        <time>2016-09-30T08:44:00Z</time>
      </trkpt>
      <trkpt lat="43.54841" lon="6.6456">
        <ele>422.16</ele>
        <time>2016-09-30T08:44:16Z</time>
      </trkpt>
      <trkpt lat="43.54825" lon="6.64574">
        <ele>424.08</ele>
        <time>2016-09-30T08:44:34Z</time>
      </trkpt>
      <trkpt lat="43.54815" lon="6.64582">
        <ele>425.52</ele>
        <time>2016-09-30T08:44:50Z</time>
      </trkpt>
      <trkpt lat="43.54804" lon="6.64598">
        <ele>426.48</ele>
        <time>2016-09-30T08:45:08Z</time>
      </trkpt>
      <trkpt lat="43.54795" lon="6.64604">
        <ele>427.44</ele>
        <time>2016-09-30T08:45:23Z</time>
      </trkpt>
      <trkpt lat="43.5479" lon="6.64596">
        <ele>430.33</ele>
        <time>2016-09-30T08:45:41Z</time>
      </trkpt>
      <trkpt lat="43.54786" lon="6.64583">
        <ele>431.77</ele>
        <time>2016-09-30T08:45:56Z</time>
      </trkpt>
      <trkpt lat="43.54775" lon="6.64571">
        <ele>433.69</ele>
        <time>2016-09-30T08:46:13Z</time>
      </trkpt>
      <trkpt lat="43.54766" lon="6.64558">
        <ele>435.61</ele>
        <time>2016-09-30T08:46:30Z</time>
      </trkpt>
      <trkpt lat="43.54759" lon="6.64545">
        <ele>436.58</ele>
        <time>2016-09-30T08:46:42Z</time>
      </trkpt>
      <trkpt lat="43.54747" lon="6.64532">
        <ele>437.06</ele>
        <time>2016-09-30T08:46:58Z</time>
      </trkpt>
      <trkpt lat="43.54732" lon="6.64537">
        <ele>437.54</ele>
        <time>2016-09-30T08:47:13Z</time>
      </trkpt>
      <trkpt lat="43.54714" lon="6.64542">
        <ele>439.46</ele>
        <time>2016-09-30T08:47:33Z</time>
      </trkpt>
      <trkpt lat="43.54701" lon="6.64547">
        <ele>440.9</ele>
        <time>2016-09-30T08:47:49Z</time>
      </trkpt>
      <trkpt lat="43.54681" lon="6.64541">
        <ele>442.82</ele>
        <time>2016-09-30T08:48:08Z</time>
      </trkpt>
      <trkpt lat="43.54669" lon="6.64536">
        <ele>443.79</ele>
        <time>2016-09-30T08:48:23Z</time>
      </trkpt>
      <trkpt lat="43.54655" lon="6.64528">
        <ele>445.23</ele>
        <time>2016-09-30T08:48:39Z</time>
      </trkpt>
      <trkpt lat="43.54644" lon="6.64522">
        <ele>446.67</ele>
        <time>2016-09-30T08:48:54Z</time>
      </trkpt>
      <trkpt lat="43.5463" lon="6.64515">
        <ele>447.63</ele>
        <time>2016-09-30T08:49:11Z</time>
      </trkpt>
      <trkpt lat="43.54626" lon="6.64514">
        <ele>448.11</ele>
        <time>2016-09-30T08:49:15Z</time>
      </trkpt>
      <trkpt lat="43.54609" lon="6.64517">
        <ele>449.07</ele>
        <time>2016-09-30T08:49:32Z</time>
      </trkpt>
      <trkpt lat="43.54597" lon="6.64522">
        <ele>450.03</ele>
        <time>2016-09-30T08:49:46Z</time>
      </trkpt>
      <trkpt lat="43.54583" lon="6.64525">
        <ele>451</ele>
        <time>2016-09-30T08:49:59Z</time>
      </trkpt>
      <trkpt lat="43.54573" lon="6.64531">
        <ele>451.96</ele>
        <time>2016-09-30T08:50:14Z</time>
      </trkpt>
      <trkpt lat="43.54561" lon="6.64533">
        <ele>452.92</ele>
        <time>2016-09-30T08:50:27Z</time>
      </trkpt>
      <trkpt lat="43.54548" lon="6.64529">
        <ele>453.88</ele>
        <time>2016-09-30T08:50:42Z</time>
      </trkpt>
      <trkpt lat="43.54535" lon="6.64523">
        <ele>455.32</ele>
        <time>2016-09-30T08:50:58Z</time>
      </trkpt>
      <trkpt lat="43.54533" lon="6.64523">
        <ele>455.32</ele>
        <time>2016-09-30T08:51:00Z</time>
      </trkpt>
      <trkpt lat="43.54522" lon="6.64515">
        <ele>456.28</ele>
        <time>2016-09-30T08:51:14Z</time>
      </trkpt>
      <trkpt lat="43.54512" lon="6.64507">
        <ele>457.72</ele>
        <time>2016-09-30T08:51:30Z</time>
      </trkpt>
      <trkpt lat="43.54498" lon="6.64496">
        <ele>458.69</ele>
        <time>2016-09-30T08:51:46Z</time>
      </trkpt>
      <trkpt lat="43.54483" lon="6.64489">
        <ele>459.65</ele>
        <time>2016-09-30T08:52:01Z</time>
      </trkpt>
      <trkpt lat="43.54467" lon="6.64487">
        <ele>460.61</ele>
        <time>2016-09-30T08:52:17Z</time>
      </trkpt>
      <trkpt lat="43.54465" lon="6.64486">
        <ele>461.09</ele>
        <time>2016-09-30T08:52:19Z</time>
      </trkpt>
      <trkpt lat="43.54462" lon="6.64487">
        <ele>461.09</ele>
        <time>2016-09-30T08:52:22Z</time>
      </trkpt>
      <trkpt lat="43.54448" lon="6.64491">
        <ele>462.53</ele>
        <time>2016-09-30T08:52:37Z</time>
      </trkpt>
      <trkpt lat="43.54433" lon="6.64496">
        <ele>463.97</ele>
        <time>2016-09-30T08:52:53Z</time>
      </trkpt>
      <trkpt lat="43.54425" lon="6.64503">
        <ele>464.93</ele>
        <time>2016-09-30T08:53:03Z</time>
      </trkpt>
      <trkpt lat="43.54412" lon="6.64507">
        <ele>466.86</ele>
        <time>2016-09-30T08:53:18Z</time>
      </trkpt>
      <trkpt lat="43.54405" lon="6.64523">
        <ele>468.3</ele>
        <time>2016-09-30T08:53:34Z</time>
      </trkpt>
      <trkpt lat="43.54406" lon="6.64526">
        <ele>468.3</ele>
        <time>2016-09-30T08:53:37Z</time>
      </trkpt>
      <trkpt lat="43.54412" lon="6.64529">
        <ele>468.78</ele>
        <time>2016-09-30T08:53:44Z</time>
      </trkpt>
      <trkpt lat="43.54428" lon="6.64535">
        <ele>470.22</ele>
        <time>2016-09-30T08:54:00Z</time>
      </trkpt>
      <trkpt lat="43.54441" lon="6.64543">
        <ele>471.66</ele>
        <time>2016-09-30T08:54:16Z</time>
      </trkpt>
      <trkpt lat="43.54444" lon="6.64545">
        <ele>472.14</ele>
        <time>2016-09-30T08:54:19Z</time>
      </trkpt>
      <trkpt lat="43.54452" lon="6.64554">
        <ele>473.11</ele>
        <time>2016-09-30T08:54:31Z</time>
      </trkpt>
      <trkpt lat="43.54458" lon="6.64562">
        <ele>473.59</ele>
        <time>2016-09-30T08:54:40Z</time>
      </trkpt>
      <trkpt lat="43.54466" lon="6.64573">
        <ele>474.07</ele>
        <time>2016-09-30T08:54:52Z</time>
      </trkpt>
      <trkpt lat="43.54475" lon="6.64588">
        <ele>475.03</ele>
        <time>2016-09-30T08:55:05Z</time>
      </trkpt>
      <trkpt lat="43.54478" lon="6.6459">
        <ele>475.03</ele>
        <time>2016-09-30T08:55:08Z</time>
      </trkpt>
      <trkpt lat="43.54487" lon="6.64605">
        <ele>474.55</ele>
        <time>2016-09-30T08:55:22Z</time>
      </trkpt>
      <trkpt lat="43.54494" lon="6.64616">
        <ele>474.07</ele>
        <time>2016-09-30T08:55:31Z</time>
      </trkpt>
      <trkpt lat="43.54495" lon="6.64624">
        <ele>473.59</ele>
        <time>2016-09-30T08:55:37Z</time>
      </trkpt>
      <trkpt lat="43.54495" lon="6.64635">
        <ele>473.11</ele>
        <time>2016-09-30T08:55:45Z</time>
      </trkpt>
      <trkpt lat="43.54486" lon="6.64655">
        <ele>472.14</ele>
        <time>2016-09-30T08:56:01Z</time>
      </trkpt>
      <trkpt lat="43.54481" lon="6.64659">
        <ele>472.14</ele>
        <time>2016-09-30T08:56:15Z</time>
      </trkpt>
      <trkpt lat="43.54478" lon="6.64666">
        <ele>472.14</ele>
        <time>2016-09-30T08:56:33Z</time>
      </trkpt>
      <trkpt lat="43.54478" lon="6.64667">
        <ele>471.66</ele>
        <time>2016-09-30T08:56:48Z</time>
      </trkpt>
      <trkpt lat="43.54478" lon="6.64668">
        <ele>472.14</ele>
        <time>2016-09-30T08:57:00Z</time>
      </trkpt>
      <trkpt lat="43.54477" lon="6.64668">
        <ele>472.14</ele>
        <time>2016-09-30T08:57:26Z</time>
      </trkpt>
      <trkpt lat="43.54478" lon="6.64667">
        <ele>472.14</ele>
        <time>2016-09-30T08:57:46Z</time>
      </trkpt>
      <trkpt lat="43.54478" lon="6.64667">
        <ele>472.14</ele>
        <time>2016-09-30T08:58:11Z</time>
      </trkpt>
      <trkpt lat="43.54478" lon="6.64668">
        <ele>472.14</ele>
        <time>2016-09-30T08:58:38Z</time>
      </trkpt>
      <trkpt lat="43.54478" lon="6.64668">
        <ele>471.66</ele>
        <time>2016-09-30T08:59:00Z</time>
      </trkpt>
      <trkpt lat="43.54483" lon="6.64668">
        <ele>472.14</ele>
        <time>2016-09-30T08:59:26Z</time>
      </trkpt>
      <trkpt lat="43.54484" lon="6.64667">
        <ele>471.66</ele>
        <time>2016-09-30T08:59:41Z</time>
      </trkpt>
      <trkpt lat="43.54484" lon="6.64665">
        <ele>472.14</ele>
        <time>2016-09-30T08:59:58Z</time>
      </trkpt>
      <trkpt lat="43.54484" lon="6.64665">
        <ele>471.66</ele>
        <time>2016-09-30T09:00:25Z</time>
      </trkpt>
      <trkpt lat="43.54484" lon="6.64665">
        <ele>471.66</ele>
        <time>2016-09-30T09:00:56Z</time>
      </trkpt>
      <trkpt lat="43.54483" lon="6.64665">
        <ele>471.66</ele>
        <time>2016-09-30T09:01:08Z</time>
      </trkpt>
      <trkpt lat="43.54469" lon="6.64665">
        <ele>471.66</ele>
        <time>2016-09-30T09:01:24Z</time>
      </trkpt>
      <trkpt lat="43.54465" lon="6.64656">
        <ele>472.14</ele>
        <time>2016-09-30T09:01:43Z</time>
      </trkpt>
      <trkpt lat="43.54463" lon="6.64654">
        <ele>474.55</ele>
        <time>2016-09-30T09:01:59Z</time>
      </trkpt>
      <trkpt lat="43.54457" lon="6.64652">
        <ele>475.99</ele>
        <time>2016-09-30T09:02:14Z</time>
      </trkpt>
      <trkpt lat="43.54453" lon="6.64646">
        <ele>477.43</ele>
        <time>2016-09-30T09:02:29Z</time>
      </trkpt>
      <trkpt lat="43.54452" lon="6.64636">
        <ele>479.35</ele>
        <time>2016-09-30T09:02:43Z</time>
      </trkpt>
      <trkpt lat="43.54449" lon="6.64627">
        <ele>480.8</ele>
        <time>2016-09-30T09:02:59Z</time>
      </trkpt>
      <trkpt lat="43.54447" lon="6.64618">
        <ele>481.28</ele>
        <time>2016-09-30T09:03:11Z</time>
      </trkpt>
      <trkpt lat="43.5444" lon="6.6461">
        <ele>482.24</ele>
        <time>2016-09-30T09:03:25Z</time>
      </trkpt>
      <trkpt lat="43.54433" lon="6.64607">
        <ele>483.2</ele>
        <time>2016-09-30T09:03:40Z</time>
      </trkpt>
      <trkpt lat="43.54429" lon="6.64606">
        <ele>484.16</ele>
        <time>2016-09-30T09:03:53Z</time>
      </trkpt>
      <trkpt lat="43.54421" lon="6.64607">
        <ele>485.6</ele>
        <time>2016-09-30T09:04:08Z</time>
      </trkpt>
      <trkpt lat="43.54412" lon="6.64608">
        <ele>486.56</ele>
        <time>2016-09-30T09:04:22Z</time>
      </trkpt>
      <trkpt lat="43.54402" lon="6.64606">
        <ele>488.49</ele>
        <time>2016-09-30T09:04:42Z</time>
      </trkpt>
      <trkpt lat="43.54397" lon="6.6461">
        <ele>490.41</ele>
        <time>2016-09-30T09:04:58Z</time>
      </trkpt>
      <trkpt lat="43.54394" lon="6.64612">
        <ele>492.81</ele>
        <time>2016-09-30T09:05:15Z</time>
      </trkpt>
      <trkpt lat="43.54389" lon="6.64612">
        <ele>494.74</ele>
        <time>2016-09-30T09:05:33Z</time>
      </trkpt>
      <trkpt lat="43.54379" lon="6.64612">
        <ele>496.18</ele>
        <time>2016-09-30T09:05:52Z</time>
      </trkpt>
      <trkpt lat="43.54373" lon="6.64615">
        <ele>498.1</ele>
        <time>2016-09-30T09:06:07Z</time>
      </trkpt>
      <trkpt lat="43.54362" lon="6.64621">
        <ele>500.02</ele>
        <time>2016-09-30T09:06:23Z</time>
      </trkpt>
      <trkpt lat="43.54358" lon="6.64624">
        <ele>500.98</ele>
        <time>2016-09-30T09:06:38Z</time>
      </trkpt>
      <trkpt lat="43.54351" lon="6.64617">
        <ele>500.02</ele>
        <time>2016-09-30T09:06:54Z</time>
      </trkpt>
      <trkpt lat="43.54343" lon="6.6461">
        <ele>499.06</ele>
        <time>2016-09-30T09:07:07Z</time>
      </trkpt>
      <trkpt lat="43.54333" lon="6.64604">
        <ele>498.1</ele>
        <time>2016-09-30T09:07:22Z</time>
      </trkpt>
      <trkpt lat="43.54324" lon="6.64603">
        <ele>498.58</ele>
        <time>2016-09-30T09:07:37Z</time>
      </trkpt>
      <trkpt lat="43.54314" lon="6.64604">
        <ele>499.06</ele>
        <time>2016-09-30T09:07:55Z</time>
      </trkpt>
      <trkpt lat="43.54308" lon="6.64607">
        <ele>498.1</ele>
        <time>2016-09-30T09:08:11Z</time>
      </trkpt>
      <trkpt lat="43.54306" lon="6.64607">
        <ele>497.62</ele>
        <time>2016-09-30T09:08:33Z</time>
      </trkpt>
      <trkpt lat="43.54304" lon="6.64604">
        <ele>495.7</ele>
        <time>2016-09-30T09:08:53Z</time>
      </trkpt>
      <trkpt lat="43.54292" lon="6.64602">
        <ele>496.66</ele>
        <time>2016-09-30T09:09:06Z</time>
      </trkpt>
      <trkpt lat="43.54284" lon="6.64603">
        <ele>497.62</ele>
        <time>2016-09-30T09:09:17Z</time>
      </trkpt>
      <trkpt lat="43.54278" lon="6.64605">
        <ele>498.1</ele>
        <time>2016-09-30T09:09:30Z</time>
      </trkpt>
      <trkpt lat="43.54274" lon="6.6461">
        <ele>500.02</ele>
        <time>2016-09-30T09:09:44Z</time>
      </trkpt>
      <trkpt lat="43.54269" lon="6.64614">
        <ele>501.46</ele>
        <time>2016-09-30T09:09:57Z</time>
      </trkpt>
      <trkpt lat="43.54264" lon="6.64621">
        <ele>502.91</ele>
        <time>2016-09-30T09:10:11Z</time>
      </trkpt>
      <trkpt lat="43.5426" lon="6.64628">
        <ele>503.39</ele>
        <time>2016-09-30T09:10:19Z</time>
      </trkpt>
      <trkpt lat="43.54261" lon="6.64636">
        <ele>504.35</ele>
        <time>2016-09-30T09:10:31Z</time>
      </trkpt>
      <trkpt lat="43.54261" lon="6.64647">
        <ele>506.27</ele>
        <time>2016-09-30T09:10:46Z</time>
      </trkpt>
      <trkpt lat="43.54262" lon="6.64656">
        <ele>508.19</ele>
        <time>2016-09-30T09:11:01Z</time>
      </trkpt>
      <trkpt lat="43.5426" lon="6.64659">
        <ele>509.16</ele>
        <time>2016-09-30T09:11:14Z</time>
      </trkpt>
      <trkpt lat="43.54257" lon="6.64661">
        <ele>509.16</ele>
        <time>2016-09-30T09:11:18Z</time>
      </trkpt>
      <trkpt lat="43.54251" lon="6.6467">
        <ele>510.12</ele>
        <time>2016-09-30T09:11:30Z</time>
      </trkpt>
      <trkpt lat="43.54245" lon="6.64683">
        <ele>511.08</ele>
        <time>2016-09-30T09:11:45Z</time>
      </trkpt>
      <trkpt lat="43.54241" lon="6.64696">
        <ele>511.08</ele>
        <time>2016-09-30T09:12:01Z</time>
      </trkpt>
      <trkpt lat="43.54243" lon="6.647">
        <ele>510.6</ele>
        <time>2016-09-30T09:12:14Z</time>
      </trkpt>
      <trkpt lat="43.54243" lon="6.64701">
        <ele>510.6</ele>
        <time>2016-09-30T09:12:30Z</time>
      </trkpt>
      <trkpt lat="43.54242" lon="6.64701">
        <ele>511.08</ele>
        <time>2016-09-30T09:12:48Z</time>
      </trkpt>
      <trkpt lat="43.54243" lon="6.64701">
        <ele>510.6</ele>
        <time>2016-09-30T09:13:06Z</time>
      </trkpt>
      <trkpt lat="43.54243" lon="6.64701">
        <ele>510.6</ele>
        <time>2016-09-30T09:13:32Z</time>
      </trkpt>
      <trkpt lat="43.54243" lon="6.64701">
        <ele>510.6</ele>
        <time>2016-09-30T09:13:48Z</time>
      </trkpt>
      <trkpt lat="43.54243" lon="6.64702">
        <ele>510.6</ele>
        <time>2016-09-30T09:14:09Z</time>
      </trkpt>
      <trkpt lat="43.54244" lon="6.64705">
        <ele>510.6</ele>
        <time>2016-09-30T09:14:12Z</time>
      </trkpt>
      <trkpt lat="43.54245" lon="6.64709">
        <ele>510.12</ele>
        <time>2016-09-30T09:14:15Z</time>
      </trkpt>
      <trkpt lat="43.54252" lon="6.64712">
        <ele>511.08</ele>
        <time>2016-09-30T09:14:24Z</time>
      </trkpt>
      <trkpt lat="43.54255" lon="6.64712">
        <ele>511.08</ele>
        <time>2016-09-30T09:14:27Z</time>
      </trkpt>
      <trkpt lat="43.54258" lon="6.64708">
        <ele>513</ele>
        <time>2016-09-30T09:14:41Z</time>
      </trkpt>
      <trkpt lat="43.54259" lon="6.64706">
        <ele>514.92</ele>
        <time>2016-09-30T09:14:50Z</time>
      </trkpt>
      <trkpt lat="43.54261" lon="6.647">
        <ele>515.88</ele>
        <time>2016-09-30T09:14:58Z</time>
      </trkpt>
      <trkpt lat="43.54261" lon="6.64698">
        <ele>515.88</ele>
        <time>2016-09-30T09:15:00Z</time>
      </trkpt>
      <trkpt lat="43.54264" lon="6.64696">
        <ele>516.37</ele>
        <time>2016-09-30T09:15:03Z</time>
      </trkpt>
      <trkpt lat="43.54267" lon="6.64696">
        <ele>516.37</ele>
        <time>2016-09-30T09:15:07Z</time>
      </trkpt>
      <trkpt lat="43.54269" lon="6.64697">
        <ele>516.37</ele>
        <time>2016-09-30T09:15:10Z</time>
      </trkpt>
      <trkpt lat="43.54273" lon="6.64697">
        <ele>517.33</ele>
        <time>2016-09-30T09:15:22Z</time>
      </trkpt>
      <trkpt lat="43.54277" lon="6.64697">
        <ele>518.29</ele>
        <time>2016-09-30T09:15:26Z</time>
      </trkpt>
      <trkpt lat="43.54284" lon="6.64696">
        <ele>520.21</ele>
        <time>2016-09-30T09:15:37Z</time>
      </trkpt>
      <trkpt lat="43.5429" lon="6.64695">
        <ele>522.61</ele>
        <time>2016-09-30T09:15:50Z</time>
      </trkpt>
      <trkpt lat="43.54291" lon="6.64695">
        <ele>523.58</ele>
        <time>2016-09-30T09:15:55Z</time>
      </trkpt>
      <trkpt lat="43.54297" lon="6.64687">
        <ele>525.02</ele>
        <time>2016-09-30T09:16:06Z</time>
      </trkpt>
      <trkpt lat="43.54299" lon="6.64683">
        <ele>525.02</ele>
        <time>2016-09-30T09:16:16Z</time>
      </trkpt>
      <trkpt lat="43.543" lon="6.64681">
        <ele>525.5</ele>
        <time>2016-09-30T09:16:28Z</time>
      </trkpt>
      <trkpt lat="43.54301" lon="6.6468">
        <ele>525.98</ele>
        <time>2016-09-30T09:16:51Z</time>
      </trkpt>
      <trkpt lat="43.54302" lon="6.6468">
        <ele>525.98</ele>
        <time>2016-09-30T09:17:19Z</time>
      </trkpt>
      <trkpt lat="43.54302" lon="6.6468">
        <ele>525.98</ele>
        <time>2016-09-30T09:17:45Z</time>
      </trkpt>
      <trkpt lat="43.54302" lon="6.6468">
        <ele>525.98</ele>
        <time>2016-09-30T09:18:05Z</time>
      </trkpt>
      <trkpt lat="43.54302" lon="6.6468">
        <ele>526.46</ele>
        <time>2016-09-30T09:18:30Z</time>
      </trkpt>
      <trkpt lat="43.54303" lon="6.6468">
        <ele>525.98</ele>
        <time>2016-09-30T09:18:50Z</time>
      </trkpt>
      <trkpt lat="43.54303" lon="6.6468">
        <ele>525.98</ele>
        <time>2016-09-30T09:19:18Z</time>
      </trkpt>
      <trkpt lat="43.54304" lon="6.64679">
        <ele>525.5</ele>
        <time>2016-09-30T09:19:46Z</time>
      </trkpt>
      <trkpt lat="43.54303" lon="6.64679">
        <ele>525.98</ele>
        <time>2016-09-30T09:20:08Z</time>
      </trkpt>
      <trkpt lat="43.54303" lon="6.64679">
        <ele>525.98</ele>
        <time>2016-09-30T09:20:24Z</time>
      </trkpt>
      <trkpt lat="43.54303" lon="6.64678">
        <ele>525.5</ele>
        <time>2016-09-30T09:20:42Z</time>
      </trkpt>
      <trkpt lat="43.54307" lon="6.64677">
        <ele>525.02</ele>
        <time>2016-09-30T09:20:55Z</time>
      </trkpt>
      <trkpt lat="43.54306" lon="6.64679">
        <ele>524.54</ele>
        <time>2016-09-30T09:21:08Z</time>
      </trkpt>
      <trkpt lat="43.54305" lon="6.64677">
        <ele>524.54</ele>
        <time>2016-09-30T09:21:23Z</time>
      </trkpt>
      <trkpt lat="43.54304" lon="6.64677">
        <ele>525.02</ele>
        <time>2016-09-30T09:21:50Z</time>
      </trkpt>
      <trkpt lat="43.54303" lon="6.64676">
        <ele>525.02</ele>
        <time>2016-09-30T09:21:56Z</time>
      </trkpt>
      <trkpt lat="43.54299" lon="6.64676">
        <ele>525.5</ele>
        <time>2016-09-30T09:22:02Z</time>
      </trkpt>
      <trkpt lat="43.54299" lon="6.64679">
        <ele>525.5</ele>
        <time>2016-09-30T09:22:16Z</time>
      </trkpt>
      <trkpt lat="43.54298" lon="6.64677">
        <ele>525.02</ele>
        <time>2016-09-30T09:22:35Z</time>
      </trkpt>
      <trkpt lat="43.543" lon="6.64676">
        <ele>525.98</ele>
        <time>2016-09-30T09:23:04Z</time>
      </trkpt>
      <trkpt lat="43.54301" lon="6.64677">
        <ele>525.5</ele>
        <time>2016-09-30T09:23:08Z</time>
      </trkpt>
      <trkpt lat="43.54305" lon="6.64672">
        <ele>524.54</ele>
        <time>2016-09-30T09:23:12Z</time>
      </trkpt>
      <trkpt lat="43.54306" lon="6.6466">
        <ele>524.06</ele>
        <time>2016-09-30T09:23:25Z</time>
      </trkpt>
      <trkpt lat="43.54305" lon="6.64661">
        <ele>524.06</ele>
        <time>2016-09-30T09:23:40Z</time>
      </trkpt>
      <trkpt lat="43.54305" lon="6.64661">
        <ele>524.06</ele>
        <time>2016-09-30T09:23:57Z</time>
      </trkpt>
      <trkpt lat="43.54306" lon="6.64661">
        <ele>524.06</ele>
        <time>2016-09-30T09:24:25Z</time>
      </trkpt>
      <trkpt lat="43.54305" lon="6.64661">
        <ele>524.54</ele>
        <time>2016-09-30T09:24:46Z</time>
      </trkpt>
      <trkpt lat="43.54305" lon="6.64661">
        <ele>524.54</ele>
        <time>2016-09-30T09:25:12Z</time>
      </trkpt>
      <trkpt lat="43.54306" lon="6.64662">
        <ele>524.54</ele>
        <time>2016-09-30T09:25:35Z</time>
      </trkpt>
      <trkpt lat="43.54305" lon="6.64662">
        <ele>524.54</ele>
        <time>2016-09-30T09:26:00Z</time>
      </trkpt>
      <trkpt lat="43.54303" lon="6.64669">
        <ele>524.54</ele>
        <time>2016-09-30T09:26:13Z</time>
      </trkpt>
      <trkpt lat="43.54303" lon="6.64671">
        <ele>525.02</ele>
        <time>2016-09-30T09:26:18Z</time>
      </trkpt>
      <trkpt lat="43.54302" lon="6.64679">
        <ele>526.46</ele>
        <time>2016-09-30T09:26:30Z</time>
      </trkpt>
      <trkpt lat="43.54303" lon="6.64679">
        <ele>526.46</ele>
        <time>2016-09-30T09:26:52Z</time>
      </trkpt>
      <trkpt lat="43.54303" lon="6.64679">
        <ele>526.46</ele>
        <time>2016-09-30T09:27:11Z</time>
      </trkpt>
      <trkpt lat="43.54303" lon="6.64679">
        <ele>526.94</ele>
        <time>2016-09-30T09:27:38Z</time>
      </trkpt>
      <trkpt lat="43.54303" lon="6.64679">
        <ele>526.46</ele>
        <time>2016-09-30T09:27:58Z</time>
      </trkpt>
      <trkpt lat="43.54302" lon="6.64679">
        <ele>525.02</ele>
        <time>2016-09-30T09:28:11Z</time>
      </trkpt>
      <trkpt lat="43.54302" lon="6.64682">
        <ele>525.5</ele>
        <time>2016-09-30T09:28:20Z</time>
      </trkpt>
      <trkpt lat="43.54296" lon="6.64688">
        <ele>523.58</ele>
        <time>2016-09-30T09:28:33Z</time>
      </trkpt>
      <trkpt lat="43.5429" lon="6.6469">
        <ele>521.17</ele>
        <time>2016-09-30T09:28:42Z</time>
      </trkpt>
      <trkpt lat="43.54278" lon="6.64693">
        <ele>518.29</ele>
        <time>2016-09-30T09:28:54Z</time>
      </trkpt>
      <trkpt lat="43.54273" lon="6.6469">
        <ele>517.33</ele>
        <time>2016-09-30T09:28:59Z</time>
      </trkpt>
      <trkpt lat="43.54261" lon="6.64692">
        <ele>516.85</ele>
        <time>2016-09-30T09:29:11Z</time>
      </trkpt>
      <trkpt lat="43.54255" lon="6.64693">
        <ele>515.4</ele>
        <time>2016-09-30T09:29:23Z</time>
      </trkpt>
      <trkpt lat="43.54255" lon="6.64693">
        <ele>514.44</ele>
        <time>2016-09-30T09:29:48Z</time>
      </trkpt>
      <trkpt lat="43.54252" lon="6.64695">
        <ele>512.52</ele>
        <time>2016-09-30T09:29:59Z</time>
      </trkpt>
      <trkpt lat="43.54248" lon="6.64698">
        <ele>512.04</ele>
        <time>2016-09-30T09:30:09Z</time>
      </trkpt>
      <trkpt lat="43.54246" lon="6.64698">
        <ele>512.04</ele>
        <time>2016-09-30T09:30:27Z</time>
      </trkpt>
      <trkpt lat="43.5424" lon="6.64699">
        <ele>511.56</ele>
        <time>2016-09-30T09:30:42Z</time>
      </trkpt>
      <trkpt lat="43.54237" lon="6.64701">
        <ele>512.04</ele>
        <time>2016-09-30T09:31:06Z</time>
      </trkpt>
      <trkpt lat="43.54237" lon="6.64703">
        <ele>511.56</ele>
        <time>2016-09-30T09:31:25Z</time>
      </trkpt>
      <trkpt lat="43.54237" lon="6.64703">
        <ele>512.04</ele>
        <time>2016-09-30T09:31:56Z</time>
      </trkpt>
      <trkpt lat="43.54237" lon="6.64703">
        <ele>512.04</ele>
        <time>2016-09-30T09:32:29Z</time>
      </trkpt>
      <trkpt lat="43.54237" lon="6.64704">
        <ele>512.04</ele>
        <time>2016-09-30T09:33:01Z</time>
      </trkpt>
      <trkpt lat="43.54236" lon="6.64703">
        <ele>512.04</ele>
        <time>2016-09-30T09:33:28Z</time>
      </trkpt>
      <trkpt lat="43.54234" lon="6.647">
        <ele>512.04</ele>
        <time>2016-09-30T09:33:51Z</time>
      </trkpt>
      <trkpt lat="43.54223" lon="6.64695">
        <ele>512.52</ele>
        <time>2016-09-30T09:34:08Z</time>
      </trkpt>
      <trkpt lat="43.54219" lon="6.64692">
        <ele>514.44</ele>
        <time>2016-09-30T09:34:24Z</time>
      </trkpt>
      <trkpt lat="43.54215" lon="6.64689">
        <ele>515.88</ele>
        <time>2016-09-30T09:34:40Z</time>
      </trkpt>
      <trkpt lat="43.54204" lon="6.64684">
        <ele>517.81</ele>
        <time>2016-09-30T09:34:55Z</time>
      </trkpt>
      <trkpt lat="43.54196" lon="6.64676">
        <ele>517.81</ele>
        <time>2016-09-30T09:35:08Z</time>
      </trkpt>
      <trkpt lat="43.54188" lon="6.64669">
        <ele>518.77</ele>
        <time>2016-09-30T09:35:22Z</time>
      </trkpt>
      <trkpt lat="43.54183" lon="6.64659">
        <ele>518.77</ele>
        <time>2016-09-30T09:35:36Z</time>
      </trkpt>
      <trkpt lat="43.54174" lon="6.64653">
        <ele>518.77</ele>
        <time>2016-09-30T09:35:51Z</time>
      </trkpt>
      <trkpt lat="43.5417" lon="6.64651">
        <ele>518.29</ele>
        <time>2016-09-30T09:36:03Z</time>
      </trkpt>
      <trkpt lat="43.54167" lon="6.6465">
        <ele>516.85</ele>
        <time>2016-09-30T09:36:19Z</time>
      </trkpt>
      <trkpt lat="43.54164" lon="6.6465">
        <ele>514.92</ele>
        <time>2016-09-30T09:36:30Z</time>
      </trkpt>
      <trkpt lat="43.54158" lon="6.64645">
        <ele>512.52</ele>
        <time>2016-09-30T09:36:44Z</time>
      </trkpt>
      <trkpt lat="43.54154" lon="6.64641">
        <ele>511.56</ele>
        <time>2016-09-30T09:36:58Z</time>
      </trkpt>
      <trkpt lat="43.54148" lon="6.64638">
        <ele>510.12</ele>
        <time>2016-09-30T09:37:11Z</time>
      </trkpt>
      <trkpt lat="43.54143" lon="6.64634">
        <ele>508.67</ele>
        <time>2016-09-30T09:37:24Z</time>
      </trkpt>
      <trkpt lat="43.54136" lon="6.64629">
        <ele>506.75</ele>
        <time>2016-09-30T09:37:39Z</time>
      </trkpt>
      <trkpt lat="43.54132" lon="6.64628">
        <ele>505.79</ele>
        <time>2016-09-30T09:37:55Z</time>
      </trkpt>
      <trkpt lat="43.54131" lon="6.64628">
        <ele>505.31</ele>
        <time>2016-09-30T09:38:16Z</time>
      </trkpt>
      <trkpt lat="43.5413" lon="6.64628">
        <ele>505.31</ele>
        <time>2016-09-30T09:38:38Z</time>
      </trkpt>
      <trkpt lat="43.54129" lon="6.64625">
        <ele>505.31</ele>
        <time>2016-09-30T09:39:03Z</time>
      </trkpt>
      <trkpt lat="43.54122" lon="6.64617">
        <ele>503.39</ele>
        <time>2016-09-30T09:39:16Z</time>
      </trkpt>
      <trkpt lat="43.54112" lon="6.64609">
        <ele>501.46</ele>
        <time>2016-09-30T09:39:31Z</time>
      </trkpt>
      <trkpt lat="43.54106" lon="6.64608">
        <ele>500.98</ele>
        <time>2016-09-30T09:39:45Z</time>
      </trkpt>
      <trkpt lat="43.541" lon="6.64599">
        <ele>499.54</ele>
        <time>2016-09-30T09:39:58Z</time>
      </trkpt>
      <trkpt lat="43.54093" lon="6.64595">
        <ele>497.62</ele>
        <time>2016-09-30T09:40:11Z</time>
      </trkpt>
      <trkpt lat="43.54092" lon="6.64594">
        <ele>497.14</ele>
        <time>2016-09-30T09:40:14Z</time>
      </trkpt>
      <trkpt lat="43.54087" lon="6.64589">
        <ele>495.7</ele>
        <time>2016-09-30T09:40:26Z</time>
      </trkpt>
      <trkpt lat="43.54081" lon="6.64586">
        <ele>494.74</ele>
        <time>2016-09-30T09:40:40Z</time>
      </trkpt>
      <trkpt lat="43.54071" lon="6.64577">
        <ele>493.77</ele>
        <time>2016-09-30T09:40:55Z</time>
      </trkpt>
      <trkpt lat="43.54068" lon="6.64573">
        <ele>493.29</ele>
        <time>2016-09-30T09:40:59Z</time>
      </trkpt>
      <trkpt lat="43.5406" lon="6.64561">
        <ele>493.77</ele>
        <time>2016-09-30T09:41:14Z</time>
      </trkpt>
      <trkpt lat="43.54056" lon="6.64556">
        <ele>494.74</ele>
        <time>2016-09-30T09:41:27Z</time>
      </trkpt>
      <trkpt lat="43.54054" lon="6.64551">
        <ele>496.18</ele>
        <time>2016-09-30T09:41:41Z</time>
      </trkpt>
      <trkpt lat="43.54049" lon="6.64549">
        <ele>496.18</ele>
        <time>2016-09-30T09:42:01Z</time>
      </trkpt>
      <trkpt lat="43.54044" lon="6.64542">
        <ele>497.62</ele>
        <time>2016-09-30T09:42:15Z</time>
      </trkpt>
      <trkpt lat="43.54043" lon="6.64534">
        <ele>499.06</ele>
        <time>2016-09-30T09:42:26Z</time>
      </trkpt>
      <trkpt lat="43.54039" lon="6.64524">
        <ele>500.98</ele>
        <time>2016-09-30T09:42:41Z</time>
      </trkpt>
      <trkpt lat="43.54037" lon="6.64515">
        <ele>503.39</ele>
        <time>2016-09-30T09:42:59Z</time>
      </trkpt>
      <trkpt lat="43.54034" lon="6.64506">
        <ele>504.35</ele>
        <time>2016-09-30T09:43:12Z</time>
      </trkpt>
      <trkpt lat="43.5403" lon="6.64501">
        <ele>505.79</ele>
        <time>2016-09-30T09:43:24Z</time>
      </trkpt>
      <trkpt lat="43.54026" lon="6.64499">
        <ele>507.23</ele>
        <time>2016-09-30T09:43:38Z</time>
      </trkpt>
      <trkpt lat="43.5402" lon="6.64496">
        <ele>509.16</ele>
        <time>2016-09-30T09:43:54Z</time>
      </trkpt>
      <trkpt lat="43.54017" lon="6.6449">
        <ele>511.08</ele>
        <time>2016-09-30T09:44:12Z</time>
      </trkpt>
      <trkpt lat="43.54012" lon="6.64485">
        <ele>512.52</ele>
        <time>2016-09-30T09:44:26Z</time>
      </trkpt>
      <trkpt lat="43.54005" lon="6.64486">
        <ele>514.44</ele>
        <time>2016-09-30T09:44:43Z</time>
      </trkpt>
      <trkpt lat="43.54004" lon="6.64476">
        <ele>515.88</ele>
        <time>2016-09-30T09:44:58Z</time>
      </trkpt>
      <trkpt lat="43.53998" lon="6.64479">
        <ele>515.88</ele>
        <time>2016-09-30T09:45:12Z</time>
      </trkpt>
      <trkpt lat="43.53996" lon="6.64486">
        <ele>515.88</ele>
        <time>2016-09-30T09:45:23Z</time>
      </trkpt>
      <trkpt lat="43.53996" lon="6.64492">
        <ele>515.88</ele>
        <time>2016-09-30T09:45:37Z</time>
      </trkpt>
      <trkpt lat="43.53992" lon="6.64499">
        <ele>514.92</ele>
        <time>2016-09-30T09:45:52Z</time>
      </trkpt>
      <trkpt lat="43.53989" lon="6.64503">
        <ele>514.92</ele>
        <time>2016-09-30T09:45:59Z</time>
      </trkpt>
      <trkpt lat="43.53981" lon="6.64504">
        <ele>514.92</ele>
        <time>2016-09-30T09:46:15Z</time>
      </trkpt>
      <trkpt lat="43.53974" lon="6.64504">
        <ele>515.88</ele>
        <time>2016-09-30T09:46:31Z</time>
      </trkpt>
      <trkpt lat="43.53963" lon="6.64506">
        <ele>514.92</ele>
        <time>2016-09-30T09:46:43Z</time>
      </trkpt>
      <trkpt lat="43.5396" lon="6.64506">
        <ele>514.92</ele>
        <time>2016-09-30T09:46:47Z</time>
      </trkpt>
      <trkpt lat="43.53951" lon="6.64503">
        <ele>513.96</ele>
        <time>2016-09-30T09:47:03Z</time>
      </trkpt>
      <trkpt lat="43.5394" lon="6.64504">
        <ele>512.52</ele>
        <time>2016-09-30T09:47:17Z</time>
      </trkpt>
      <trkpt lat="43.53935" lon="6.64505">
        <ele>512.52</ele>
        <time>2016-09-30T09:47:31Z</time>
      </trkpt>
      <trkpt lat="43.53927" lon="6.64501">
        <ele>512.04</ele>
        <time>2016-09-30T09:47:44Z</time>
      </trkpt>
      <trkpt lat="43.53915" lon="6.64502">
        <ele>511.56</ele>
        <time>2016-09-30T09:47:59Z</time>
      </trkpt>
      <trkpt lat="43.53905" lon="6.64502">
        <ele>510.6</ele>
        <time>2016-09-30T09:48:13Z</time>
      </trkpt>
      <trkpt lat="43.53894" lon="6.64503">
        <ele>510.12</ele>
        <time>2016-09-30T09:48:27Z</time>
      </trkpt>
      <trkpt lat="43.53888" lon="6.64501">
        <ele>509.64</ele>
        <time>2016-09-30T09:48:41Z</time>
      </trkpt>
      <trkpt lat="43.5388" lon="6.645">
        <ele>508.67</ele>
        <time>2016-09-30T09:48:52Z</time>
      </trkpt>
      <trkpt lat="43.5387" lon="6.64498">
        <ele>509.16</ele>
        <time>2016-09-30T09:49:06Z</time>
      </trkpt>
      <trkpt lat="43.5386" lon="6.64498">
        <ele>510.12</ele>
        <time>2016-09-30T09:49:21Z</time>
      </trkpt>
      <trkpt lat="43.53852" lon="6.64498">
        <ele>511.08</ele>
        <time>2016-09-30T09:49:36Z</time>
      </trkpt>
      <trkpt lat="43.53841" lon="6.64495">
        <ele>511.56</ele>
        <time>2016-09-30T09:49:51Z</time>
      </trkpt>
      <trkpt lat="43.53834" lon="6.64494">
        <ele>512.04</ele>
        <time>2016-09-30T09:50:04Z</time>
      </trkpt>
      <trkpt lat="43.53832" lon="6.64492">
        <ele>512.52</ele>
        <time>2016-09-30T09:50:14Z</time>
      </trkpt>
      <trkpt lat="43.53819" lon="6.64492">
        <ele>512.04</ele>
        <time>2016-09-30T09:50:30Z</time>
      </trkpt>
      <trkpt lat="43.53811" lon="6.64492">
        <ele>513</ele>
        <time>2016-09-30T09:50:43Z</time>
      </trkpt>
      <trkpt lat="43.53804" lon="6.64491">
        <ele>514.44</ele>
        <time>2016-09-30T09:50:59Z</time>
      </trkpt>
      <trkpt lat="43.53802" lon="6.64487">
        <ele>515.88</ele>
        <time>2016-09-30T09:51:12Z</time>
      </trkpt>
      <trkpt lat="43.53797" lon="6.64483">
        <ele>517.33</ele>
        <time>2016-09-30T09:51:23Z</time>
      </trkpt>
      <trkpt lat="43.5379" lon="6.6449">
        <ele>517.81</ele>
        <time>2016-09-30T09:51:36Z</time>
      </trkpt>
      <trkpt lat="43.53784" lon="6.64491">
        <ele>518.77</ele>
        <time>2016-09-30T09:51:49Z</time>
      </trkpt>
      <trkpt lat="43.53773" lon="6.64491">
        <ele>519.25</ele>
        <time>2016-09-30T09:52:04Z</time>
      </trkpt>
      <trkpt lat="43.53767" lon="6.6449">
        <ele>518.77</ele>
        <time>2016-09-30T09:52:18Z</time>
      </trkpt>
      <trkpt lat="43.5376" lon="6.64489">
        <ele>518.77</ele>
        <time>2016-09-30T09:52:27Z</time>
      </trkpt>
      <trkpt lat="43.53751" lon="6.6449">
        <ele>518.29</ele>
        <time>2016-09-30T09:52:40Z</time>
      </trkpt>
      <trkpt lat="43.53741" lon="6.64487">
        <ele>517.81</ele>
        <time>2016-09-30T09:52:55Z</time>
      </trkpt>
      <trkpt lat="43.5373" lon="6.64484">
        <ele>517.33</ele>
        <time>2016-09-30T09:53:11Z</time>
      </trkpt>
      <trkpt lat="43.53718" lon="6.64483">
        <ele>517.81</ele>
        <time>2016-09-30T09:53:25Z</time>
      </trkpt>
      <trkpt lat="43.5371" lon="6.64481">
        <ele>518.77</ele>
        <time>2016-09-30T09:53:41Z</time>
      </trkpt>
      <trkpt lat="43.53706" lon="6.6448">
        <ele>519.73</ele>
        <time>2016-09-30T09:53:56Z</time>
      </trkpt>
      <trkpt lat="43.53701" lon="6.64481">
        <ele>519.73</ele>
        <time>2016-09-30T09:54:12Z</time>
      </trkpt>
      <trkpt lat="43.53691" lon="6.64483">
        <ele>520.21</ele>
        <time>2016-09-30T09:54:24Z</time>
      </trkpt>
      <trkpt lat="43.53689" lon="6.64486">
        <ele>522.13</ele>
        <time>2016-09-30T09:54:38Z</time>
      </trkpt>
      <trkpt lat="43.53683" lon="6.64483">
        <ele>522.13</ele>
        <time>2016-09-30T09:54:50Z</time>
      </trkpt>
      <trkpt lat="43.53678" lon="6.64477">
        <ele>520.21</ele>
        <time>2016-09-30T09:55:03Z</time>
      </trkpt>
      <trkpt lat="43.53671" lon="6.6447">
        <ele>518.77</ele>
        <time>2016-09-30T09:55:18Z</time>
      </trkpt>
      <trkpt lat="43.53665" lon="6.64465">
        <ele>517.33</ele>
        <time>2016-09-30T09:55:30Z</time>
      </trkpt>
      <trkpt lat="43.53658" lon="6.64457">
        <ele>515.88</ele>
        <time>2016-09-30T09:55:47Z</time>
      </trkpt>
      <trkpt lat="43.53656" lon="6.64453">
        <ele>515.4</ele>
        <time>2016-09-30T09:55:57Z</time>
      </trkpt>
      <trkpt lat="43.53649" lon="6.64446">
        <ele>514.44</ele>
        <time>2016-09-30T09:56:11Z</time>
      </trkpt>
      <trkpt lat="43.53643" lon="6.64438">
        <ele>513</ele>
        <time>2016-09-30T09:56:25Z</time>
      </trkpt>
      <trkpt lat="43.53636" lon="6.64431">
        <ele>512.04</ele>
        <time>2016-09-30T09:56:38Z</time>
      </trkpt>
      <trkpt lat="43.53629" lon="6.64423">
        <ele>511.56</ele>
        <time>2016-09-30T09:56:51Z</time>
      </trkpt>
      <trkpt lat="43.53626" lon="6.64421">
        <ele>511.08</ele>
        <time>2016-09-30T09:57:05Z</time>
      </trkpt>
      <trkpt lat="43.53623" lon="6.64418">
        <ele>510.6</ele>
        <time>2016-09-30T09:57:10Z</time>
      </trkpt>
      <trkpt lat="43.53615" lon="6.64408">
        <ele>510.12</ele>
        <time>2016-09-30T09:57:24Z</time>
      </trkpt>
      <trkpt lat="43.53613" lon="6.64406">
        <ele>510.12</ele>
        <time>2016-09-30T09:57:37Z</time>
      </trkpt>
      <trkpt lat="43.5361" lon="6.64404">
        <ele>510.12</ele>
        <time>2016-09-30T09:57:53Z</time>
      </trkpt>
      <trkpt lat="43.53608" lon="6.64403">
        <ele>510.12</ele>
        <time>2016-09-30T09:58:13Z</time>
      </trkpt>
      <trkpt lat="43.53607" lon="6.64403">
        <ele>509.64</ele>
        <time>2016-09-30T09:58:40Z</time>
      </trkpt>
      <trkpt lat="43.53606" lon="6.64402">
        <ele>510.12</ele>
        <time>2016-09-30T09:59:03Z</time>
      </trkpt>
      <trkpt lat="43.53606" lon="6.64402">
        <ele>509.64</ele>
        <time>2016-09-30T09:59:40Z</time>
      </trkpt>
      <trkpt lat="43.53605" lon="6.64401">
        <ele>509.64</ele>
        <time>2016-09-30T10:00:20Z</time>
      </trkpt>
      <trkpt lat="43.53604" lon="6.644">
        <ele>509.64</ele>
        <time>2016-09-30T10:00:55Z</time>
      </trkpt>
      <trkpt lat="43.53602" lon="6.64395">
        <ele>509.16</ele>
        <time>2016-09-30T10:01:12Z</time>
      </trkpt>
      <trkpt lat="43.53594" lon="6.64385">
        <ele>507.71</ele>
        <time>2016-09-30T10:01:25Z</time>
      </trkpt>
      <trkpt lat="43.53581" lon="6.64374">
        <ele>506.27</ele>
        <time>2016-09-30T10:01:42Z</time>
      </trkpt>
      <trkpt lat="43.5358" lon="6.64371">
        <ele>505.79</ele>
        <time>2016-09-30T10:01:45Z</time>
      </trkpt>
      <trkpt lat="43.53576" lon="6.64365">
        <ele>505.31</ele>
        <time>2016-09-30T10:01:54Z</time>
      </trkpt>
      <trkpt lat="43.53565" lon="6.64355">
        <ele>505.31</ele>
        <time>2016-09-30T10:02:09Z</time>
      </trkpt>
      <trkpt lat="43.53559" lon="6.64349">
        <ele>506.27</ele>
        <time>2016-09-30T10:02:23Z</time>
      </trkpt>
      <trkpt lat="43.53557" lon="6.64346">
        <ele>507.23</ele>
        <time>2016-09-30T10:02:36Z</time>
      </trkpt>
      <trkpt lat="43.53554" lon="6.64341">
        <ele>508.67</ele>
        <time>2016-09-30T10:02:50Z</time>
      </trkpt>
      <trkpt lat="43.53549" lon="6.64332">
        <ele>509.64</ele>
        <time>2016-09-30T10:03:05Z</time>
      </trkpt>
      <trkpt lat="43.53543" lon="6.64318">
        <ele>510.12</ele>
        <time>2016-09-30T10:03:19Z</time>
      </trkpt>
      <trkpt lat="43.5354" lon="6.64312">
        <ele>510.12</ele>
        <time>2016-09-30T10:03:23Z</time>
      </trkpt>
      <trkpt lat="43.53531" lon="6.64291">
        <ele>510.12</ele>
        <time>2016-09-30T10:03:38Z</time>
      </trkpt>
      <trkpt lat="43.53525" lon="6.64281">
        <ele>510.12</ele>
        <time>2016-09-30T10:03:47Z</time>
      </trkpt>
      <trkpt lat="43.53519" lon="6.64264">
        <ele>510.6</ele>
        <time>2016-09-30T10:04:02Z</time>
      </trkpt>
      <trkpt lat="43.53514" lon="6.64261">
        <ele>511.56</ele>
        <time>2016-09-30T10:04:17Z</time>
      </trkpt>
      <trkpt lat="43.53514" lon="6.6426">
        <ele>511.56</ele>
        <time>2016-09-30T10:04:31Z</time>
      </trkpt>
      <trkpt lat="43.53511" lon="6.64258">
        <ele>512.04</ele>
        <time>2016-09-30T10:04:54Z</time>
      </trkpt>
      <trkpt lat="43.53511" lon="6.64258">
        <ele>511.56</ele>
        <time>2016-09-30T10:05:18Z</time>
      </trkpt>
      <trkpt lat="43.53511" lon="6.64258">
        <ele>512.04</ele>
        <time>2016-09-30T10:05:32Z</time>
      </trkpt>
      <trkpt lat="43.5351" lon="6.64258">
        <ele>511.56</ele>
        <time>2016-09-30T10:06:00Z</time>
      </trkpt>
      <trkpt lat="43.53509" lon="6.64259">
        <ele>511.56</ele>
        <time>2016-09-30T10:06:30Z</time>
      </trkpt>
      <trkpt lat="43.53509" lon="6.64259">
        <ele>511.56</ele>
        <time>2016-09-30T10:07:03Z</time>
      </trkpt>
      <trkpt lat="43.53507" lon="6.64259">
        <ele>512.04</ele>
        <time>2016-09-30T10:07:37Z</time>
      </trkpt>
      <trkpt lat="43.53507" lon="6.64259">
        <ele>512.04</ele>
        <time>2016-09-30T10:08:04Z</time>
      </trkpt>
      <trkpt lat="43.53508" lon="6.64257">
        <ele>512.04</ele>
        <time>2016-09-30T10:08:30Z</time>
      </trkpt>
      <trkpt lat="43.53504" lon="6.64247">
        <ele>513</ele>
        <time>2016-09-30T10:08:40Z</time>
      </trkpt>
      <trkpt lat="43.53504" lon="6.6424">
        <ele>513.96</ele>
        <time>2016-09-30T10:08:53Z</time>
      </trkpt>
      <trkpt lat="43.53503" lon="6.64237">
        <ele>514.92</ele>
        <time>2016-09-30T10:09:07Z</time>
      </trkpt>
      <trkpt lat="43.53498" lon="6.64226">
        <ele>516.37</ele>
        <time>2016-09-30T10:09:23Z</time>
      </trkpt>
      <trkpt lat="43.53492" lon="6.6421">
        <ele>517.33</ele>
        <time>2016-09-30T10:09:37Z</time>
      </trkpt>
      <trkpt lat="43.53489" lon="6.64197">
        <ele>518.29</ele>
        <time>2016-09-30T10:09:52Z</time>
      </trkpt>
      <trkpt lat="43.53485" lon="6.64188">
        <ele>520.21</ele>
        <time>2016-09-30T10:10:08Z</time>
      </trkpt>
      <trkpt lat="43.53484" lon="6.6418">
        <ele>521.65</ele>
        <time>2016-09-30T10:10:22Z</time>
      </trkpt>
      <trkpt lat="43.53483" lon="6.64173">
        <ele>524.06</ele>
        <time>2016-09-30T10:10:40Z</time>
      </trkpt>
      <trkpt lat="43.53481" lon="6.64159">
        <ele>525.98</ele>
        <time>2016-09-30T10:10:56Z</time>
      </trkpt>
      <trkpt lat="43.53479" lon="6.64154">
        <ele>527.42</ele>
        <time>2016-09-30T10:11:11Z</time>
      </trkpt>
      <trkpt lat="43.53479" lon="6.64148">
        <ele>529.34</ele>
        <time>2016-09-30T10:11:29Z</time>
      </trkpt>
      <trkpt lat="43.53475" lon="6.64138">
        <ele>531.75</ele>
        <time>2016-09-30T10:11:45Z</time>
      </trkpt>
      <trkpt lat="43.53473" lon="6.64132">
        <ele>533.19</ele>
        <time>2016-09-30T10:11:59Z</time>
      </trkpt>
      <trkpt lat="43.53471" lon="6.64127">
        <ele>535.11</ele>
        <time>2016-09-30T10:12:16Z</time>
      </trkpt>
      <trkpt lat="43.53468" lon="6.64123">
        <ele>537.51</ele>
        <time>2016-09-30T10:12:34Z</time>
      </trkpt>
      <trkpt lat="43.53467" lon="6.64117">
        <ele>539.44</ele>
        <time>2016-09-30T10:12:52Z</time>
      </trkpt>
      <trkpt lat="43.53466" lon="6.64111">
        <ele>541.36</ele>
        <time>2016-09-30T10:13:11Z</time>
      </trkpt>
      <trkpt lat="43.53464" lon="6.64101">
        <ele>543.28</ele>
        <time>2016-09-30T10:13:27Z</time>
      </trkpt>
      <trkpt lat="43.53458" lon="6.6409">
        <ele>545.2</ele>
        <time>2016-09-30T10:13:44Z</time>
      </trkpt>
      <trkpt lat="43.53454" lon="6.64083">
        <ele>547.61</ele>
        <time>2016-09-30T10:14:02Z</time>
      </trkpt>
      <trkpt lat="43.53453" lon="6.64078">
        <ele>548.57</ele>
        <time>2016-09-30T10:14:15Z</time>
      </trkpt>
      <trkpt lat="43.53452" lon="6.64071">
        <ele>550.49</ele>
        <time>2016-09-30T10:14:33Z</time>
      </trkpt>
      <trkpt lat="43.53449" lon="6.64065">
        <ele>552.41</ele>
        <time>2016-09-30T10:14:46Z</time>
      </trkpt>
      <trkpt lat="43.53449" lon="6.64059">
        <ele>553.86</ele>
        <time>2016-09-30T10:15:00Z</time>
      </trkpt>
      <trkpt lat="43.53448" lon="6.64053">
        <ele>555.78</ele>
        <time>2016-09-30T10:15:16Z</time>
      </trkpt>
      <trkpt lat="43.53448" lon="6.6405">
        <ele>558.18</ele>
        <time>2016-09-30T10:15:31Z</time>
      </trkpt>
      <trkpt lat="43.53447" lon="6.64048">
        <ele>559.62</ele>
        <time>2016-09-30T10:15:45Z</time>
      </trkpt>
      <trkpt lat="43.53446" lon="6.64044">
        <ele>561.55</ele>
        <time>2016-09-30T10:16:01Z</time>
      </trkpt>
      <trkpt lat="43.5344" lon="6.6404">
        <ele>561.55</ele>
        <time>2016-09-30T10:16:13Z</time>
      </trkpt>
      <trkpt lat="43.53438" lon="6.64038">
        <ele>561.55</ele>
        <time>2016-09-30T10:16:26Z</time>
      </trkpt>
      <trkpt lat="43.53431" lon="6.64036">
        <ele>561.55</ele>
        <time>2016-09-30T10:16:45Z</time>
      </trkpt>
      <trkpt lat="43.53429" lon="6.64033">
        <ele>561.07</ele>
        <time>2016-09-30T10:17:05Z</time>
      </trkpt>
      <trkpt lat="43.53426" lon="6.6403">
        <ele>561.07</ele>
        <time>2016-09-30T10:17:42Z</time>
      </trkpt>
      <trkpt lat="43.53426" lon="6.64028">
        <ele>561.07</ele>
        <time>2016-09-30T10:17:58Z</time>
      </trkpt>
      <trkpt lat="43.53428" lon="6.64024">
        <ele>561.55</ele>
        <time>2016-09-30T10:18:14Z</time>
      </trkpt>
      <trkpt lat="43.53431" lon="6.64023">
        <ele>561.55</ele>
        <time>2016-09-30T10:18:24Z</time>
      </trkpt>
      <trkpt lat="43.53431" lon="6.64021">
        <ele>562.03</ele>
        <time>2016-09-30T10:18:39Z</time>
      </trkpt>
      <trkpt lat="43.5343" lon="6.6402">
        <ele>561.55</ele>
        <time>2016-09-30T10:18:52Z</time>
      </trkpt>
      <trkpt lat="43.5343" lon="6.64019">
        <ele>561.55</ele>
        <time>2016-09-30T10:19:04Z</time>
      </trkpt>
      <trkpt lat="43.53429" lon="6.64019">
        <ele>561.55</ele>
        <time>2016-09-30T10:19:25Z</time>
      </trkpt>
      <trkpt lat="43.53429" lon="6.64019">
        <ele>562.51</ele>
        <time>2016-09-30T10:19:41Z</time>
      </trkpt>
      <trkpt lat="43.53429" lon="6.64019">
        <ele>561.55</ele>
        <time>2016-09-30T10:19:56Z</time>
      </trkpt>
      <trkpt lat="43.53429" lon="6.64018">
        <ele>561.55</ele>
        <time>2016-09-30T10:20:13Z</time>
      </trkpt>
      <trkpt lat="43.5343" lon="6.6402">
        <ele>561.55</ele>
        <time>2016-09-30T10:20:27Z</time>
      </trkpt>
      <trkpt lat="43.53431" lon="6.6402">
        <ele>562.51</ele>
        <time>2016-09-30T10:20:41Z</time>
      </trkpt>
      <trkpt lat="43.53433" lon="6.64016">
        <ele>562.03</ele>
        <time>2016-09-30T10:20:54Z</time>
      </trkpt>
      <trkpt lat="43.53435" lon="6.64014">
        <ele>561.55</ele>
        <time>2016-09-30T10:21:10Z</time>
      </trkpt>
      <trkpt lat="43.53438" lon="6.64007">
        <ele>561.55</ele>
        <time>2016-09-30T10:21:39Z</time>
      </trkpt>
      <trkpt lat="43.53441" lon="6.63997">
        <ele>561.07</ele>
        <time>2016-09-30T10:21:52Z</time>
      </trkpt>
      <trkpt lat="43.53444" lon="6.63991">
        <ele>560.59</ele>
        <time>2016-09-30T10:22:06Z</time>
      </trkpt>
      <trkpt lat="43.53452" lon="6.63982">
        <ele>559.62</ele>
        <time>2016-09-30T10:22:19Z</time>
      </trkpt>
      <trkpt lat="43.53463" lon="6.63962">
        <ele>558.66</ele>
        <time>2016-09-30T10:22:32Z</time>
      </trkpt>
      <trkpt lat="43.53473" lon="6.63942">
        <ele>557.22</ele>
        <time>2016-09-30T10:22:47Z</time>
      </trkpt>
      <trkpt lat="43.5348" lon="6.63931">
        <ele>555.78</ele>
        <time>2016-09-30T10:23:01Z</time>
      </trkpt>
      <trkpt lat="43.53487" lon="6.63923">
        <ele>554.82</ele>
        <time>2016-09-30T10:23:18Z</time>
      </trkpt>
      <trkpt lat="43.53493" lon="6.63913">
        <ele>553.86</ele>
        <time>2016-09-30T10:23:32Z</time>
      </trkpt>
      <trkpt lat="43.53497" lon="6.63906">
        <ele>553.38</ele>
        <time>2016-09-30T10:23:39Z</time>
      </trkpt>
      <trkpt lat="43.53507" lon="6.63887">
        <ele>551.45</ele>
        <time>2016-09-30T10:23:54Z</time>
      </trkpt>
      <trkpt lat="43.5351" lon="6.6388">
        <ele>550.49</ele>
        <time>2016-09-30T10:24:07Z</time>
      </trkpt>
      <trkpt lat="43.53513" lon="6.63869">
        <ele>548.57</ele>
        <time>2016-09-30T10:24:23Z</time>
      </trkpt>
      <trkpt lat="43.53515" lon="6.63866">
        <ele>548.09</ele>
        <time>2016-09-30T10:24:36Z</time>
      </trkpt>
      <trkpt lat="43.53519" lon="6.63856">
        <ele>548.57</ele>
        <time>2016-09-30T10:24:50Z</time>
      </trkpt>
      <trkpt lat="43.53524" lon="6.63841">
        <ele>548.57</ele>
        <time>2016-09-30T10:25:03Z</time>
      </trkpt>
      <trkpt lat="43.53528" lon="6.63824">
        <ele>549.53</ele>
        <time>2016-09-30T10:25:18Z</time>
      </trkpt>
      <trkpt lat="43.53533" lon="6.63808">
        <ele>550.49</ele>
        <time>2016-09-30T10:25:29Z</time>
      </trkpt>
      <trkpt lat="43.53538" lon="6.63789">
        <ele>551.45</ele>
        <time>2016-09-30T10:25:44Z</time>
      </trkpt>
      <trkpt lat="43.5354" lon="6.63783">
        <ele>552.9</ele>
        <time>2016-09-30T10:25:59Z</time>
      </trkpt>
      <trkpt lat="43.5354" lon="6.63777">
        <ele>554.82</ele>
        <time>2016-09-30T10:26:16Z</time>
      </trkpt>
      <trkpt lat="43.53541" lon="6.6377">
        <ele>555.78</ele>
        <time>2016-09-30T10:26:32Z</time>
      </trkpt>
      <trkpt lat="43.53546" lon="6.63755">
        <ele>556.74</ele>
        <time>2016-09-30T10:26:46Z</time>
      </trkpt>
      <trkpt lat="43.53548" lon="6.63739">
        <ele>557.22</ele>
        <time>2016-09-30T10:27:00Z</time>
      </trkpt>
      <trkpt lat="43.5355" lon="6.63728">
        <ele>557.7</ele>
        <time>2016-09-30T10:27:13Z</time>
      </trkpt>
      <trkpt lat="43.53554" lon="6.63712">
        <ele>558.66</ele>
        <time>2016-09-30T10:27:28Z</time>
      </trkpt>
      <trkpt lat="43.53554" lon="6.63707">
        <ele>558.66</ele>
        <time>2016-09-30T10:27:41Z</time>
      </trkpt>
      <trkpt lat="43.53555" lon="6.637">
        <ele>559.14</ele>
        <time>2016-09-30T10:27:54Z</time>
      </trkpt>
      <trkpt lat="43.53557" lon="6.63692">
        <ele>559.62</ele>
        <time>2016-09-30T10:28:10Z</time>
      </trkpt>
      <trkpt lat="43.5356" lon="6.63682">
        <ele>559.14</ele>
        <time>2016-09-30T10:28:24Z</time>
      </trkpt>
      <trkpt lat="43.53563" lon="6.63675">
        <ele>557.7</ele>
        <time>2016-09-30T10:28:41Z</time>
      </trkpt>
      <trkpt lat="43.53565" lon="6.63666">
        <ele>557.22</ele>
        <time>2016-09-30T10:28:56Z</time>
      </trkpt>
      <trkpt lat="43.5357" lon="6.63652">
        <ele>556.26</ele>
        <time>2016-09-30T10:29:11Z</time>
      </trkpt>
      <trkpt lat="43.53573" lon="6.63649">
        <ele>554.82</ele>
        <time>2016-09-30T10:29:23Z</time>
      </trkpt>
      <trkpt lat="43.53578" lon="6.63634">
        <ele>554.34</ele>
        <time>2016-09-30T10:29:35Z</time>
      </trkpt>
      <trkpt lat="43.53582" lon="6.63625">
        <ele>553.38</ele>
        <time>2016-09-30T10:29:50Z</time>
      </trkpt>
      <trkpt lat="43.53587" lon="6.63613">
        <ele>552.41</ele>
        <time>2016-09-30T10:30:03Z</time>
      </trkpt>
      <trkpt lat="43.53594" lon="6.63597">
        <ele>552.9</ele>
        <time>2016-09-30T10:30:16Z</time>
      </trkpt>
      <trkpt lat="43.53598" lon="6.63591">
        <ele>553.38</ele>
        <time>2016-09-30T10:30:28Z</time>
      </trkpt>
      <trkpt lat="43.53601" lon="6.63584">
        <ele>554.34</ele>
        <time>2016-09-30T10:30:42Z</time>
      </trkpt>
      <trkpt lat="43.53606" lon="6.63575">
        <ele>554.82</ele>
        <time>2016-09-30T10:30:54Z</time>
      </trkpt>
      <trkpt lat="43.53609" lon="6.63568">
        <ele>554.82</ele>
        <time>2016-09-30T10:31:07Z</time>
      </trkpt>
      <trkpt lat="43.53609" lon="6.63566">
        <ele>554.82</ele>
        <time>2016-09-30T10:31:08Z</time>
      </trkpt>
      <trkpt lat="43.53613" lon="6.63551">
        <ele>555.3</ele>
        <time>2016-09-30T10:31:21Z</time>
      </trkpt>
      <trkpt lat="43.53616" lon="6.63543">
        <ele>555.3</ele>
        <time>2016-09-30T10:31:33Z</time>
      </trkpt>
      <trkpt lat="43.53619" lon="6.63539">
        <ele>555.78</ele>
        <time>2016-09-30T10:31:47Z</time>
      </trkpt>
      <trkpt lat="43.53622" lon="6.63536">
        <ele>556.26</ele>
        <time>2016-09-30T10:32:03Z</time>
      </trkpt>
      <trkpt lat="43.53624" lon="6.63534">
        <ele>556.26</ele>
        <time>2016-09-30T10:32:20Z</time>
      </trkpt>
      <trkpt lat="43.53626" lon="6.63531">
        <ele>556.74</ele>
        <time>2016-09-30T10:32:39Z</time>
      </trkpt>
      <trkpt lat="43.53627" lon="6.63529">
        <ele>556.26</ele>
        <time>2016-09-30T10:32:53Z</time>
      </trkpt>
      <trkpt lat="43.53632" lon="6.63525">
        <ele>556.26</ele>
        <time>2016-09-30T10:33:16Z</time>
      </trkpt>
      <trkpt lat="43.53635" lon="6.63522">
        <ele>556.74</ele>
        <time>2016-09-30T10:33:45Z</time>
      </trkpt>
      <trkpt lat="43.5364" lon="6.63507">
        <ele>557.22</ele>
        <time>2016-09-30T10:34:02Z</time>
      </trkpt>
      <trkpt lat="43.53641" lon="6.63505">
        <ele>556.74</ele>
        <time>2016-09-30T10:34:26Z</time>
      </trkpt>
      <trkpt lat="43.53639" lon="6.63506">
        <ele>557.22</ele>
        <time>2016-09-30T10:34:38Z</time>
      </trkpt>
      <trkpt lat="43.53637" lon="6.63506">
        <ele>557.22</ele>
        <time>2016-09-30T10:34:41Z</time>
      </trkpt>
      <trkpt lat="43.53633" lon="6.63502">
        <ele>555.78</ele>
        <time>2016-09-30T10:34:55Z</time>
      </trkpt>
      <trkpt lat="43.53635" lon="6.63499">
        <ele>555.78</ele>
        <time>2016-09-30T10:35:00Z</time>
      </trkpt>
      <trkpt lat="43.53636" lon="6.63497">
        <ele>555.3</ele>
        <time>2016-09-30T10:35:03Z</time>
      </trkpt>
      <trkpt lat="43.53639" lon="6.63496">
        <ele>555.78</ele>
        <time>2016-09-30T10:35:17Z</time>
      </trkpt>
      <trkpt lat="43.53639" lon="6.63497">
        <ele>555.78</ele>
        <time>2016-09-30T10:35:37Z</time>
      </trkpt>
      <trkpt lat="43.53638" lon="6.63496">
        <ele>554.82</ele>
        <time>2016-09-30T10:35:54Z</time>
      </trkpt>
      <trkpt lat="43.53638" lon="6.63496">
        <ele>554.82</ele>
        <time>2016-09-30T10:36:15Z</time>
      </trkpt>
      <trkpt lat="43.53636" lon="6.63496">
        <ele>555.3</ele>
        <time>2016-09-30T10:36:37Z</time>
      </trkpt>
      <trkpt lat="43.53635" lon="6.63498">
        <ele>555.3</ele>
        <time>2016-09-30T10:36:53Z</time>
      </trkpt>
      <trkpt lat="43.53634" lon="6.635">
        <ele>555.3</ele>
        <time>2016-09-30T10:37:12Z</time>
      </trkpt>
      <trkpt lat="43.53633" lon="6.63502">
        <ele>554.82</ele>
        <time>2016-09-30T10:37:31Z</time>
      </trkpt>
      <trkpt lat="43.53632" lon="6.63504">
        <ele>555.3</ele>
        <time>2016-09-30T10:37:51Z</time>
      </trkpt>
      <trkpt lat="43.53631" lon="6.63504">
        <ele>555.3</ele>
        <time>2016-09-30T10:38:07Z</time>
      </trkpt>
      <trkpt lat="43.53631" lon="6.63505">
        <ele>554.82</ele>
        <time>2016-09-30T10:38:23Z</time>
      </trkpt>
      <trkpt lat="43.53631" lon="6.63505">
        <ele>554.82</ele>
        <time>2016-09-30T10:38:41Z</time>
      </trkpt>
      <trkpt lat="43.5363" lon="6.63507">
        <ele>554.82</ele>
        <time>2016-09-30T10:39:04Z</time>
      </trkpt>
      <trkpt lat="43.53634" lon="6.63499">
        <ele>554.34</ele>
        <time>2016-09-30T10:39:17Z</time>
      </trkpt>
      <trkpt lat="43.53634" lon="6.63485">
        <ele>553.38</ele>
        <time>2016-09-30T10:39:31Z</time>
      </trkpt>
      <trkpt lat="43.53634" lon="6.63484">
        <ele>553.38</ele>
        <time>2016-09-30T10:39:32Z</time>
      </trkpt>
      <trkpt lat="43.53635" lon="6.63473">
        <ele>551.93</ele>
        <time>2016-09-30T10:39:45Z</time>
      </trkpt>
      <trkpt lat="43.53636" lon="6.63461">
        <ele>550.49</ele>
        <time>2016-09-30T10:39:57Z</time>
      </trkpt>
      <trkpt lat="43.53633" lon="6.63445">
        <ele>549.05</ele>
        <time>2016-09-30T10:40:10Z</time>
      </trkpt>
      <trkpt lat="43.53624" lon="6.63433">
        <ele>547.13</ele>
        <time>2016-09-30T10:40:25Z</time>
      </trkpt>
      <trkpt lat="43.53613" lon="6.63422">
        <ele>546.17</ele>
        <time>2016-09-30T10:40:39Z</time>
      </trkpt>
      <trkpt lat="43.53608" lon="6.63408">
        <ele>544.72</ele>
        <time>2016-09-30T10:40:54Z</time>
      </trkpt>
      <trkpt lat="43.5361" lon="6.63396">
        <ele>543.76</ele>
        <time>2016-09-30T10:41:06Z</time>
      </trkpt>
      <trkpt lat="43.53615" lon="6.63381">
        <ele>542.32</ele>
        <time>2016-09-30T10:41:21Z</time>
      </trkpt>
      <trkpt lat="43.53613" lon="6.63365">
        <ele>540.88</ele>
        <time>2016-09-30T10:41:34Z</time>
      </trkpt>
      <trkpt lat="43.53607" lon="6.63351">
        <ele>539.92</ele>
        <time>2016-09-30T10:41:48Z</time>
      </trkpt>
      <trkpt lat="43.53602" lon="6.63336">
        <ele>538.48</ele>
        <time>2016-09-30T10:42:01Z</time>
      </trkpt>
      <trkpt lat="43.536" lon="6.63323">
        <ele>537.03</ele>
        <time>2016-09-30T10:42:13Z</time>
      </trkpt>
      <trkpt lat="43.53599" lon="6.63317">
        <ele>537.03</ele>
        <time>2016-09-30T10:42:18Z</time>
      </trkpt>
      <trkpt lat="43.53598" lon="6.633">
        <ele>535.11</ele>
        <time>2016-09-30T10:42:32Z</time>
      </trkpt>
      <trkpt lat="43.53599" lon="6.63287">
        <ele>534.15</ele>
        <time>2016-09-30T10:42:46Z</time>
      </trkpt>
      <trkpt lat="43.53599" lon="6.63287">
        <ele>534.15</ele>
        <time>2016-09-30T10:42:48Z</time>
      </trkpt>
      <trkpt lat="43.53598" lon="6.63282">
        <ele>534.15</ele>
        <time>2016-09-30T10:43:00Z</time>
      </trkpt>
      <trkpt lat="43.53602" lon="6.63282">
        <ele>534.63</ele>
        <time>2016-09-30T10:43:15Z</time>
      </trkpt>
      <trkpt lat="43.53604" lon="6.63282">
        <ele>534.63</ele>
        <time>2016-09-30T10:43:18Z</time>
      </trkpt>
      <trkpt lat="43.53612" lon="6.6329">
        <ele>535.11</ele>
        <time>2016-09-30T10:43:31Z</time>
      </trkpt>
      <trkpt lat="43.53622" lon="6.63303">
        <ele>535.59</ele>
        <time>2016-09-30T10:43:45Z</time>
      </trkpt>
      <trkpt lat="43.53627" lon="6.63308">
        <ele>536.07</ele>
        <time>2016-09-30T10:43:52Z</time>
      </trkpt>
      <trkpt lat="43.53629" lon="6.6331">
        <ele>536.07</ele>
        <time>2016-09-30T10:43:55Z</time>
      </trkpt>
      <trkpt lat="43.53638" lon="6.63319">
        <ele>536.07</ele>
        <time>2016-09-30T10:44:09Z</time>
      </trkpt>
      <trkpt lat="43.53644" lon="6.63323">
        <ele>535.11</ele>
        <time>2016-09-30T10:44:25Z</time>
      </trkpt>
      <trkpt lat="43.53649" lon="6.63326">
        <ele>534.63</ele>
        <time>2016-09-30T10:44:31Z</time>
      </trkpt>
      <trkpt lat="43.53655" lon="6.63328">
        <ele>534.15</ele>
        <time>2016-09-30T10:44:37Z</time>
      </trkpt>
      <trkpt lat="43.5367" lon="6.63332">
        <ele>532.23</ele>
        <time>2016-09-30T10:44:53Z</time>
      </trkpt>
      <trkpt lat="43.53684" lon="6.63333">
        <ele>529.82</ele>
        <time>2016-09-30T10:45:08Z</time>
      </trkpt>
      <trkpt lat="43.53697" lon="6.63333">
        <ele>528.86</ele>
        <time>2016-09-30T10:45:21Z</time>
      </trkpt>
      <trkpt lat="43.53716" lon="6.63325">
        <ele>526.46</ele>
        <time>2016-09-30T10:45:39Z</time>
      </trkpt>
      <trkpt lat="43.5373" lon="6.63317">
        <ele>525.02</ele>
        <time>2016-09-30T10:45:54Z</time>
      </trkpt>
      <trkpt lat="43.53742" lon="6.63309">
        <ele>524.54</ele>
        <time>2016-09-30T10:46:07Z</time>
      </trkpt>
      <trkpt lat="43.53752" lon="6.633">
        <ele>523.58</ele>
        <time>2016-09-30T10:46:17Z</time>
      </trkpt>
      <trkpt lat="43.53762" lon="6.6329">
        <ele>522.61</ele>
        <time>2016-09-30T10:46:28Z</time>
      </trkpt>
      <trkpt lat="43.53766" lon="6.63284">
        <ele>521.65</ele>
        <time>2016-09-30T10:46:34Z</time>
      </trkpt>
      <trkpt lat="43.53768" lon="6.63279">
        <ele>520.69</ele>
        <time>2016-09-30T10:46:38Z</time>
      </trkpt>
      <trkpt lat="43.53771" lon="6.63275">
        <ele>520.21</ele>
        <time>2016-09-30T10:46:42Z</time>
      </trkpt>
      <trkpt lat="43.53773" lon="6.63271">
        <ele>519.73</ele>
        <time>2016-09-30T10:46:45Z</time>
      </trkpt>
      <trkpt lat="43.53781" lon="6.63253">
        <ele>517.81</ele>
        <time>2016-09-30T10:46:59Z</time>
      </trkpt>
      <trkpt lat="43.53782" lon="6.63252">
        <ele>517.81</ele>
        <time>2016-09-30T10:47:00Z</time>
      </trkpt>
      <trkpt lat="43.53788" lon="6.63238">
        <ele>516.85</ele>
        <time>2016-09-30T10:47:10Z</time>
      </trkpt>
      <trkpt lat="43.53791" lon="6.63229">
        <ele>515.88</ele>
        <time>2016-09-30T10:47:17Z</time>
      </trkpt>
      <trkpt lat="43.53797" lon="6.6321">
        <ele>514.44</ele>
        <time>2016-09-30T10:47:31Z</time>
      </trkpt>
      <trkpt lat="43.53804" lon="6.63186">
        <ele>513.48</ele>
        <time>2016-09-30T10:47:46Z</time>
      </trkpt>
      <trkpt lat="43.53805" lon="6.63174">
        <ele>513</ele>
        <time>2016-09-30T10:47:53Z</time>
      </trkpt>
      <trkpt lat="43.53807" lon="6.63157">
        <ele>512.52</ele>
        <time>2016-09-30T10:48:06Z</time>
      </trkpt>
      <trkpt lat="43.53807" lon="6.63144">
        <ele>511.56</ele>
        <time>2016-09-30T10:48:19Z</time>
      </trkpt>
      <trkpt lat="43.53806" lon="6.63133">
        <ele>511.56</ele>
        <time>2016-09-30T10:48:27Z</time>
      </trkpt>
      <trkpt lat="43.53807" lon="6.63127">
        <ele>511.08</ele>
        <time>2016-09-30T10:48:31Z</time>
      </trkpt>
      <trkpt lat="43.53806" lon="6.63124">
        <ele>511.08</ele>
        <time>2016-09-30T10:48:33Z</time>
      </trkpt>
      <trkpt lat="43.53806" lon="6.63102">
        <ele>509.16</ele>
        <time>2016-09-30T10:48:48Z</time>
      </trkpt>
      <trkpt lat="43.53808" lon="6.63089">
        <ele>508.67</ele>
        <time>2016-09-30T10:48:58Z</time>
      </trkpt>
      <trkpt lat="43.53809" lon="6.63085">
        <ele>509.16</ele>
        <time>2016-09-30T10:49:01Z</time>
      </trkpt>
      <trkpt lat="43.53809" lon="6.63076">
        <ele>508.67</ele>
        <time>2016-09-30T10:49:07Z</time>
      </trkpt>
      <trkpt lat="43.53812" lon="6.63067">
        <ele>508.19</ele>
        <time>2016-09-30T10:49:13Z</time>
      </trkpt>
      <trkpt lat="43.53812" lon="6.63064">
        <ele>508.19</ele>
        <time>2016-09-30T10:49:15Z</time>
      </trkpt>
      <trkpt lat="43.53815" lon="6.63051">
        <ele>508.19</ele>
        <time>2016-09-30T10:49:24Z</time>
      </trkpt>
      <trkpt lat="43.53814" lon="6.63029">
        <ele>507.71</ele>
        <time>2016-09-30T10:49:38Z</time>
      </trkpt>
      <trkpt lat="43.53809" lon="6.63006">
        <ele>505.79</ele>
        <time>2016-09-30T10:49:53Z</time>
      </trkpt>
      <trkpt lat="43.53806" lon="6.6299">
        <ele>504.83</ele>
        <time>2016-09-30T10:50:08Z</time>
      </trkpt>
      <trkpt lat="43.53803" lon="6.62974">
        <ele>502.91</ele>
        <time>2016-09-30T10:50:24Z</time>
      </trkpt>
      <trkpt lat="43.53799" lon="6.62962">
        <ele>501.95</ele>
        <time>2016-09-30T10:50:34Z</time>
      </trkpt>
      <trkpt lat="43.53797" lon="6.62958">
        <ele>501.46</ele>
        <time>2016-09-30T10:50:37Z</time>
      </trkpt>
      <trkpt lat="43.53796" lon="6.62956">
        <ele>501.46</ele>
        <time>2016-09-30T10:50:39Z</time>
      </trkpt>
      <trkpt lat="43.53792" lon="6.6295">
        <ele>499.54</ele>
        <time>2016-09-30T10:50:51Z</time>
      </trkpt>
      <trkpt lat="43.53791" lon="6.62947">
        <ele>499.54</ele>
        <time>2016-09-30T10:51:13Z</time>
      </trkpt>
      <trkpt lat="43.53791" lon="6.62946">
        <ele>499.06</ele>
        <time>2016-09-30T10:51:14Z</time>
      </trkpt>
      <trkpt lat="43.5379" lon="6.62942">
        <ele>499.06</ele>
        <time>2016-09-30T10:51:17Z</time>
      </trkpt>
      <trkpt lat="43.53785" lon="6.62919">
        <ele>497.14</ele>
        <time>2016-09-30T10:51:32Z</time>
      </trkpt>
      <trkpt lat="43.53784" lon="6.62901">
        <ele>495.7</ele>
        <time>2016-09-30T10:51:43Z</time>
      </trkpt>
      <trkpt lat="43.53784" lon="6.62896">
        <ele>495.22</ele>
        <time>2016-09-30T10:51:46Z</time>
      </trkpt>
      <trkpt lat="43.53784" lon="6.62887">
        <ele>495.22</ele>
        <time>2016-09-30T10:51:51Z</time>
      </trkpt>
      <trkpt lat="43.53786" lon="6.62863">
        <ele>494.26</ele>
        <time>2016-09-30T10:52:05Z</time>
      </trkpt>
      <trkpt lat="43.53787" lon="6.62842">
        <ele>494.26</ele>
        <time>2016-09-30T10:52:17Z</time>
      </trkpt>
      <trkpt lat="43.53786" lon="6.62838">
        <ele>494.26</ele>
        <time>2016-09-30T10:52:19Z</time>
      </trkpt>
      <trkpt lat="43.53788" lon="6.62807">
        <ele>494.26</ele>
        <time>2016-09-30T10:52:37Z</time>
      </trkpt>
      <trkpt lat="43.53789" lon="6.62805">
        <ele>494.74</ele>
        <time>2016-09-30T10:52:38Z</time>
      </trkpt>
      <trkpt lat="43.53789" lon="6.62796">
        <ele>494.74</ele>
        <time>2016-09-30T10:52:43Z</time>
      </trkpt>
      <trkpt lat="43.53791" lon="6.6279">
        <ele>494.74</ele>
        <time>2016-09-30T10:52:47Z</time>
      </trkpt>
      <trkpt lat="43.53793" lon="6.62773">
        <ele>495.7</ele>
        <time>2016-09-30T10:52:58Z</time>
      </trkpt>
      <trkpt lat="43.53797" lon="6.62752">
        <ele>496.18</ele>
        <time>2016-09-30T10:53:12Z</time>
      </trkpt>
      <trkpt lat="43.53798" lon="6.62746">
        <ele>496.66</ele>
        <time>2016-09-30T10:53:16Z</time>
      </trkpt>
      <trkpt lat="43.53798" lon="6.62742">
        <ele>496.66</ele>
        <time>2016-09-30T10:53:19Z</time>
      </trkpt>
      <trkpt lat="43.53798" lon="6.6274">
        <ele>496.66</ele>
        <time>2016-09-30T10:53:21Z</time>
      </trkpt>
      <trkpt lat="43.53801" lon="6.62728">
        <ele>497.14</ele>
        <time>2016-09-30T10:53:30Z</time>
      </trkpt>
      <trkpt lat="43.53806" lon="6.6271">
        <ele>498.58</ele>
        <time>2016-09-30T10:53:45Z</time>
      </trkpt>
      <trkpt lat="43.53811" lon="6.62695">
        <ele>498.58</ele>
        <time>2016-09-30T10:53:59Z</time>
      </trkpt>
      <trkpt lat="43.53815" lon="6.62679">
        <ele>500.98</ele>
        <time>2016-09-30T10:54:13Z</time>
      </trkpt>
      <trkpt lat="43.53818" lon="6.62663">
        <ele>502.43</ele>
        <time>2016-09-30T10:54:26Z</time>
      </trkpt>
      <trkpt lat="43.53823" lon="6.62641">
        <ele>503.87</ele>
        <time>2016-09-30T10:54:41Z</time>
      </trkpt>
      <trkpt lat="43.53828" lon="6.62626">
        <ele>504.83</ele>
        <time>2016-09-30T10:54:53Z</time>
      </trkpt>
      <trkpt lat="43.53831" lon="6.62611">
        <ele>504.35</ele>
        <time>2016-09-30T10:55:06Z</time>
      </trkpt>
      <trkpt lat="43.53828" lon="6.62611">
        <ele>504.83</ele>
        <time>2016-09-30T10:55:20Z</time>
      </trkpt>
      <trkpt lat="43.53827" lon="6.62609">
        <ele>504.83</ele>
        <time>2016-09-30T10:55:34Z</time>
      </trkpt>
      <trkpt lat="43.53827" lon="6.62609">
        <ele>504.83</ele>
        <time>2016-09-30T10:55:53Z</time>
      </trkpt>
      <trkpt lat="43.53827" lon="6.6261">
        <ele>504.83</ele>
        <time>2016-09-30T10:56:24Z</time>
      </trkpt>
      <trkpt lat="43.53827" lon="6.62609">
        <ele>505.31</ele>
        <time>2016-09-30T10:56:45Z</time>
      </trkpt>
      <trkpt lat="43.5383" lon="6.626">
        <ele>503.87</ele>
        <time>2016-09-30T10:56:52Z</time>
      </trkpt>
      <trkpt lat="43.53834" lon="6.62582">
        <ele>503.39</ele>
        <time>2016-09-30T10:57:05Z</time>
      </trkpt>
      <trkpt lat="43.53836" lon="6.62564">
        <ele>502.91</ele>
        <time>2016-09-30T10:57:17Z</time>
      </trkpt>
      <trkpt lat="43.53837" lon="6.6254">
        <ele>500.98</ele>
        <time>2016-09-30T10:57:31Z</time>
      </trkpt>
      <trkpt lat="43.53836" lon="6.62515">
        <ele>500.5</ele>
        <time>2016-09-30T10:57:46Z</time>
      </trkpt>
      <trkpt lat="43.53834" lon="6.62488">
        <ele>499.06</ele>
        <time>2016-09-30T10:58:02Z</time>
      </trkpt>
      <trkpt lat="43.53835" lon="6.62464">
        <ele>497.62</ele>
        <time>2016-09-30T10:58:17Z</time>
      </trkpt>
      <trkpt lat="43.5384" lon="6.62441">
        <ele>495.22</ele>
        <time>2016-09-30T10:58:33Z</time>
      </trkpt>
      <trkpt lat="43.53843" lon="6.62429">
        <ele>494.26</ele>
        <time>2016-09-30T10:58:41Z</time>
      </trkpt>
      <trkpt lat="43.53852" lon="6.62409">
        <ele>493.29</ele>
        <time>2016-09-30T10:58:57Z</time>
      </trkpt>
      <trkpt lat="43.53856" lon="6.624">
        <ele>492.81</ele>
        <time>2016-09-30T10:59:03Z</time>
      </trkpt>
      <trkpt lat="43.53857" lon="6.62391">
        <ele>492.33</ele>
        <time>2016-09-30T10:59:08Z</time>
      </trkpt>
      <trkpt lat="43.53858" lon="6.62388">
        <ele>491.85</ele>
        <time>2016-09-30T10:59:10Z</time>
      </trkpt>
      <trkpt lat="43.5386" lon="6.62368">
        <ele>490.89</ele>
        <time>2016-09-30T10:59:21Z</time>
      </trkpt>
      <trkpt lat="43.53861" lon="6.62348">
        <ele>489.45</ele>
        <time>2016-09-30T10:59:33Z</time>
      </trkpt>
      <trkpt lat="43.53861" lon="6.62345">
        <ele>489.45</ele>
        <time>2016-09-30T10:59:35Z</time>
      </trkpt>
      <trkpt lat="43.53861" lon="6.6232">
        <ele>487.05</ele>
        <time>2016-09-30T10:59:49Z</time>
      </trkpt>
      <trkpt lat="43.53865" lon="6.62295">
        <ele>485.6</ele>
        <time>2016-09-30T11:00:04Z</time>
      </trkpt>
      <trkpt lat="43.53867" lon="6.6228">
        <ele>484.16</ele>
        <time>2016-09-30T11:00:13Z</time>
      </trkpt>
      <trkpt lat="43.53868" lon="6.62256">
        <ele>481.76</ele>
        <time>2016-09-30T11:00:27Z</time>
      </trkpt>
      <trkpt lat="43.53867" lon="6.62238">
        <ele>480.8</ele>
        <time>2016-09-30T11:00:36Z</time>
      </trkpt>
      <trkpt lat="43.53869" lon="6.62214">
        <ele>479.84</ele>
        <time>2016-09-30T11:00:50Z</time>
      </trkpt>
      <trkpt lat="43.53874" lon="6.62192">
        <ele>477.91</ele>
        <time>2016-09-30T11:01:02Z</time>
      </trkpt>
      <trkpt lat="43.53878" lon="6.6217">
        <ele>477.43</ele>
        <time>2016-09-30T11:01:16Z</time>
      </trkpt>
      <trkpt lat="43.53882" lon="6.62156">
        <ele>477.43</ele>
        <time>2016-09-30T11:01:26Z</time>
      </trkpt>
      <trkpt lat="43.53889" lon="6.62133">
        <ele>476.95</ele>
        <time>2016-09-30T11:01:41Z</time>
      </trkpt>
      <trkpt lat="43.53893" lon="6.62124">
        <ele>476.95</ele>
        <time>2016-09-30T11:01:47Z</time>
      </trkpt>
      <trkpt lat="43.53896" lon="6.62116">
        <ele>476.47</ele>
        <time>2016-09-30T11:01:53Z</time>
      </trkpt>
      <trkpt lat="43.53907" lon="6.62099">
        <ele>474.07</ele>
        <time>2016-09-30T11:02:08Z</time>
      </trkpt>
      <trkpt lat="43.53909" lon="6.62095">
        <ele>473.59</ele>
        <time>2016-09-30T11:02:11Z</time>
      </trkpt>
      <trkpt lat="43.53919" lon="6.62074">
        <ele>472.14</ele>
        <time>2016-09-30T11:02:27Z</time>
      </trkpt>
      <trkpt lat="43.53927" lon="6.62056">
        <ele>470.7</ele>
        <time>2016-09-30T11:02:42Z</time>
      </trkpt>
      <trkpt lat="43.53933" lon="6.62039">
        <ele>468.78</ele>
        <time>2016-09-30T11:02:55Z</time>
      </trkpt>
      <trkpt lat="43.53939" lon="6.62018">
        <ele>467.34</ele>
        <time>2016-09-30T11:03:09Z</time>
      </trkpt>
      <trkpt lat="43.53945" lon="6.62004">
        <ele>467.34</ele>
        <time>2016-09-30T11:03:20Z</time>
      </trkpt>
      <trkpt lat="43.53946" lon="6.62001">
        <ele>466.86</ele>
        <time>2016-09-30T11:03:22Z</time>
      </trkpt>
      <trkpt lat="43.53951" lon="6.61973">
        <ele>463.97</ele>
        <time>2016-09-30T11:03:40Z</time>
      </trkpt>
      <trkpt lat="43.53952" lon="6.61969">
        <ele>463.49</ele>
        <time>2016-09-30T11:03:43Z</time>
      </trkpt>
      <trkpt lat="43.53951" lon="6.61958">
        <ele>463.01</ele>
        <time>2016-09-30T11:03:57Z</time>
      </trkpt>
      <trkpt lat="43.53951" lon="6.61958">
        <ele>466.38</ele>
        <time>2016-09-30T11:04:15Z</time>
      </trkpt>
      <trkpt lat="43.53951" lon="6.61958">
        <ele>460.61</ele>
        <time>2016-09-30T11:04:17Z</time>
      </trkpt>
      <trkpt lat="43.53951" lon="6.61958">
        <ele>465.9</ele>
        <time>2016-09-30T11:04:18Z</time>
      </trkpt>
      <trkpt lat="43.53951" lon="6.61958">
        <ele>462.53</ele>
        <time>2016-09-30T11:04:22Z</time>
      </trkpt>
      <trkpt lat="43.53951" lon="6.61958">
        <ele>463.01</ele>
        <time>2016-09-30T11:04:46Z</time>
      </trkpt>
      <trkpt lat="43.53951" lon="6.61958">
        <ele>463.49</ele>
        <time>2016-09-30T11:05:06Z</time>
      </trkpt>
      <trkpt lat="43.53952" lon="6.61952">
        <ele>463.01</ele>
        <time>2016-09-30T11:05:22Z</time>
      </trkpt>
      <trkpt lat="43.53953" lon="6.61951">
        <ele>462.53</ele>
        <time>2016-09-30T11:05:39Z</time>
      </trkpt>
      <trkpt lat="43.53953" lon="6.61951">
        <ele>462.53</ele>
        <time>2016-09-30T11:05:55Z</time>
      </trkpt>
      <trkpt lat="43.53953" lon="6.61942">
        <ele>463.01</ele>
        <time>2016-09-30T11:06:10Z</time>
      </trkpt>
      <trkpt lat="43.53955" lon="6.61934">
        <ele>463.49</ele>
        <time>2016-09-30T11:06:16Z</time>
      </trkpt>
      <trkpt lat="43.53957" lon="6.61928">
        <ele>463.97</ele>
        <time>2016-09-30T11:06:20Z</time>
      </trkpt>
      <trkpt lat="43.53962" lon="6.61909">
        <ele>465.42</ele>
        <time>2016-09-30T11:06:35Z</time>
      </trkpt>
      <trkpt lat="43.53963" lon="6.61905">
        <ele>465.9</ele>
        <time>2016-09-30T11:06:39Z</time>
      </trkpt>
      <trkpt lat="43.53971" lon="6.61889">
        <ele>467.82</ele>
        <time>2016-09-30T11:06:56Z</time>
      </trkpt>
      <trkpt lat="43.53972" lon="6.61884">
        <ele>468.78</ele>
        <time>2016-09-30T11:07:01Z</time>
      </trkpt>
      <trkpt lat="43.5397" lon="6.61868">
        <ele>471.18</ele>
        <time>2016-09-30T11:07:17Z</time>
      </trkpt>
      <trkpt lat="43.53961" lon="6.61857">
        <ele>472.63</ele>
        <time>2016-09-30T11:07:32Z</time>
      </trkpt>
      <trkpt lat="43.53956" lon="6.61845">
        <ele>474.07</ele>
        <time>2016-09-30T11:07:45Z</time>
      </trkpt>
      <trkpt lat="43.53955" lon="6.61836">
        <ele>475.03</ele>
        <time>2016-09-30T11:07:52Z</time>
      </trkpt>
      <trkpt lat="43.53953" lon="6.61817">
        <ele>475.99</ele>
        <time>2016-09-30T11:08:08Z</time>
      </trkpt>
      <trkpt lat="43.53952" lon="6.61812">
        <ele>475.99</ele>
        <time>2016-09-30T11:08:21Z</time>
      </trkpt>
      <trkpt lat="43.5395" lon="6.6181">
        <ele>475.99</ele>
        <time>2016-09-30T11:08:39Z</time>
      </trkpt>
      <trkpt lat="43.53949" lon="6.6181">
        <ele>475.99</ele>
        <time>2016-09-30T11:09:01Z</time>
      </trkpt>
      <trkpt lat="43.53949" lon="6.61809">
        <ele>475.99</ele>
        <time>2016-09-30T11:09:24Z</time>
      </trkpt>
      <trkpt lat="43.53948" lon="6.61809">
        <ele>476.47</ele>
        <time>2016-09-30T11:09:37Z</time>
      </trkpt>
      <trkpt lat="43.53947" lon="6.6181">
        <ele>476.47</ele>
        <time>2016-09-30T11:09:39Z</time>
      </trkpt>
      <trkpt lat="43.53943" lon="6.61814">
        <ele>475.99</ele>
        <time>2016-09-30T11:09:44Z</time>
      </trkpt>
      <trkpt lat="43.5394" lon="6.6182">
        <ele>475.99</ele>
        <time>2016-09-30T11:09:56Z</time>
      </trkpt>
      <trkpt lat="43.53939" lon="6.6182">
        <ele>475.03</ele>
        <time>2016-09-30T11:10:13Z</time>
      </trkpt>
      <trkpt lat="43.53939" lon="6.6182">
        <ele>475.03</ele>
        <time>2016-09-30T11:10:36Z</time>
      </trkpt>
      <trkpt lat="43.53939" lon="6.6182">
        <ele>475.03</ele>
        <time>2016-09-30T11:11:06Z</time>
      </trkpt>
      <trkpt lat="43.53939" lon="6.61819">
        <ele>475.03</ele>
        <time>2016-09-30T11:11:40Z</time>
      </trkpt>
      <trkpt lat="43.53939" lon="6.61819">
        <ele>475.03</ele>
        <time>2016-09-30T11:12:16Z</time>
      </trkpt>
      <trkpt lat="43.53939" lon="6.61819">
        <ele>475.03</ele>
        <time>2016-09-30T11:12:53Z</time>
      </trkpt>
      <trkpt lat="43.53939" lon="6.6182">
        <ele>475.03</ele>
        <time>2016-09-30T11:13:29Z</time>
      </trkpt>
      <trkpt lat="43.53939" lon="6.6182">
        <ele>475.03</ele>
        <time>2016-09-30T11:14:03Z</time>
      </trkpt>
      <trkpt lat="43.53939" lon="6.6182">
        <ele>475.03</ele>
        <time>2016-09-30T11:14:40Z</time>
      </trkpt>
      <trkpt lat="43.53939" lon="6.6182">
        <ele>475.03</ele>
        <time>2016-09-30T11:15:15Z</time>
      </trkpt>
      <trkpt lat="43.53939" lon="6.61819">
        <ele>475.03</ele>
        <time>2016-09-30T11:15:52Z</time>
      </trkpt>
      <trkpt lat="43.53939" lon="6.61819">
        <ele>475.51</ele>
        <time>2016-09-30T11:16:31Z</time>
      </trkpt>
      <trkpt lat="43.53939" lon="6.61819">
        <ele>475.51</ele>
        <time>2016-09-30T11:17:12Z</time>
      </trkpt>
      <trkpt lat="43.53939" lon="6.61819">
        <ele>475.51</ele>
        <time>2016-09-30T11:17:52Z</time>
      </trkpt>
      <trkpt lat="43.53939" lon="6.6182">
        <ele>475.03</ele>
        <time>2016-09-30T11:18:28Z</time>
      </trkpt>
      <trkpt lat="43.53939" lon="6.6182">
        <ele>475.51</ele>
        <time>2016-09-30T11:19:07Z</time>
      </trkpt>
      <trkpt lat="43.53939" lon="6.6182">
        <ele>475.51</ele>
        <time>2016-09-30T11:19:45Z</time>
      </trkpt>
      <trkpt lat="43.53938" lon="6.61821">
        <ele>475.51</ele>
        <time>2016-09-30T11:20:24Z</time>
      </trkpt>
      <trkpt lat="43.53938" lon="6.61821">
        <ele>475.99</ele>
        <time>2016-09-30T11:21:01Z</time>
      </trkpt>
      <trkpt lat="43.53938" lon="6.61821">
        <ele>475.51</ele>
        <time>2016-09-30T11:21:38Z</time>
      </trkpt>
      <trkpt lat="43.53938" lon="6.61822">
        <ele>475.51</ele>
        <time>2016-09-30T11:22:17Z</time>
      </trkpt>
      <trkpt lat="43.53938" lon="6.61821">
        <ele>475.99</ele>
        <time>2016-09-30T11:22:47Z</time>
      </trkpt>
      <trkpt lat="43.53938" lon="6.61821">
        <ele>475.99</ele>
        <time>2016-09-30T11:23:06Z</time>
      </trkpt>
      <trkpt lat="43.53938" lon="6.61821">
        <ele>475.99</ele>
        <time>2016-09-30T11:23:24Z</time>
      </trkpt>
      <trkpt lat="43.53939" lon="6.61821">
        <ele>475.99</ele>
        <time>2016-09-30T11:23:59Z</time>
      </trkpt>
      <trkpt lat="43.5394" lon="6.61822">
        <ele>476.47</ele>
        <time>2016-09-30T11:24:35Z</time>
      </trkpt>
      <trkpt lat="43.53939" lon="6.61822">
        <ele>475.51</ele>
        <time>2016-09-30T11:24:54Z</time>
      </trkpt>
      <trkpt lat="43.53938" lon="6.61822">
        <ele>475.51</ele>
        <time>2016-09-30T11:25:31Z</time>
      </trkpt>
      <trkpt lat="43.53938" lon="6.61823">
        <ele>475.03</ele>
        <time>2016-09-30T11:26:06Z</time>
      </trkpt>
      <trkpt lat="43.53938" lon="6.61823">
        <ele>475.51</ele>
        <time>2016-09-30T11:26:39Z</time>
      </trkpt>
      <trkpt lat="43.53938" lon="6.61822">
        <ele>478.87</ele>
        <time>2016-09-30T11:26:46Z</time>
      </trkpt>
      <trkpt lat="43.53938" lon="6.61822">
        <ele>475.51</ele>
        <time>2016-09-30T11:26:47Z</time>
      </trkpt>
      <trkpt lat="43.53938" lon="6.61821">
        <ele>475.03</ele>
        <time>2016-09-30T11:27:11Z</time>
      </trkpt>
      <trkpt lat="43.53938" lon="6.61821">
        <ele>475.51</ele>
        <time>2016-09-30T11:27:40Z</time>
      </trkpt>
      <trkpt lat="43.53939" lon="6.61821">
        <ele>475.51</ele>
        <time>2016-09-30T11:28:09Z</time>
      </trkpt>
      <trkpt lat="43.53938" lon="6.61821">
        <ele>475.51</ele>
        <time>2016-09-30T11:28:40Z</time>
      </trkpt>
      <trkpt lat="43.53939" lon="6.61821">
        <ele>475.03</ele>
        <time>2016-09-30T11:29:07Z</time>
      </trkpt>
      <trkpt lat="43.53939" lon="6.6182">
        <ele>475.03</ele>
        <time>2016-09-30T11:29:41Z</time>
      </trkpt>
      <trkpt lat="43.53939" lon="6.6182">
        <ele>475.51</ele>
        <time>2016-09-30T11:30:05Z</time>
      </trkpt>
      <trkpt lat="43.53938" lon="6.61821">
        <ele>475.51</ele>
        <time>2016-09-30T11:30:40Z</time>
      </trkpt>
      <trkpt lat="43.53938" lon="6.61821">
        <ele>475.03</ele>
        <time>2016-09-30T11:31:00Z</time>
      </trkpt>
      <trkpt lat="43.53938" lon="6.61821">
        <ele>475.03</ele>
        <time>2016-09-30T11:31:36Z</time>
      </trkpt>
      <trkpt lat="43.53938" lon="6.61821">
        <ele>475.51</ele>
        <time>2016-09-30T11:32:10Z</time>
      </trkpt>
      <trkpt lat="43.53938" lon="6.61821">
        <ele>475.03</ele>
        <time>2016-09-30T11:32:41Z</time>
      </trkpt>
      <trkpt lat="43.53938" lon="6.61821">
        <ele>475.51</ele>
        <time>2016-09-30T11:33:15Z</time>
      </trkpt>
      <trkpt lat="43.53939" lon="6.61821">
        <ele>475.99</ele>
        <time>2016-09-30T11:33:39Z</time>
      </trkpt>
      <trkpt lat="43.53938" lon="6.61821">
        <ele>476.47</ele>
        <time>2016-09-30T11:33:51Z</time>
      </trkpt>
      <trkpt lat="43.53933" lon="6.61822">
        <ele>477.43</ele>
        <time>2016-09-30T11:34:04Z</time>
      </trkpt>
      <trkpt lat="43.53932" lon="6.61827">
        <ele>476.95</ele>
        <time>2016-09-30T11:34:15Z</time>
      </trkpt>
      <trkpt lat="43.53928" lon="6.61828">
        <ele>477.43</ele>
        <time>2016-09-30T11:34:28Z</time>
      </trkpt>
      <trkpt lat="43.53927" lon="6.61829">
        <ele>478.39</ele>
        <time>2016-09-30T11:34:43Z</time>
      </trkpt>
      <trkpt lat="43.53927" lon="6.61828">
        <ele>480.32</ele>
        <time>2016-09-30T11:34:56Z</time>
      </trkpt>
      <trkpt lat="43.53922" lon="6.61833">
        <ele>480.8</ele>
        <time>2016-09-30T11:35:09Z</time>
      </trkpt>
      <trkpt lat="43.53922" lon="6.61834">
        <ele>481.76</ele>
        <time>2016-09-30T11:35:12Z</time>
      </trkpt>
      <trkpt lat="43.53924" lon="6.61836">
        <ele>483.2</ele>
        <time>2016-09-30T11:35:16Z</time>
      </trkpt>
      <trkpt lat="43.53924" lon="6.61838">
        <ele>481.76</ele>
        <time>2016-09-30T11:35:30Z</time>
      </trkpt>
      <trkpt lat="43.53923" lon="6.61838">
        <ele>482.24</ele>
        <time>2016-09-30T11:35:50Z</time>
      </trkpt>
      <trkpt lat="43.53924" lon="6.61837">
        <ele>482.24</ele>
        <time>2016-09-30T11:36:13Z</time>
      </trkpt>
      <trkpt lat="43.53924" lon="6.61836">
        <ele>482.72</ele>
        <time>2016-09-30T11:36:38Z</time>
      </trkpt>
      <trkpt lat="43.53924" lon="6.61836">
        <ele>481.76</ele>
        <time>2016-09-30T11:36:57Z</time>
      </trkpt>
      <trkpt lat="43.53925" lon="6.61835">
        <ele>481.76</ele>
        <time>2016-09-30T11:37:21Z</time>
      </trkpt>
      <trkpt lat="43.53925" lon="6.61836">
        <ele>481.28</ele>
        <time>2016-09-30T11:37:52Z</time>
      </trkpt>
      <trkpt lat="43.53925" lon="6.61837">
        <ele>481.76</ele>
        <time>2016-09-30T11:38:06Z</time>
      </trkpt>
      <trkpt lat="43.53924" lon="6.61835">
        <ele>481.76</ele>
        <time>2016-09-30T11:38:19Z</time>
      </trkpt>
      <trkpt lat="43.53924" lon="6.61834">
        <ele>481.76</ele>
        <time>2016-09-30T11:38:56Z</time>
      </trkpt>
      <trkpt lat="43.53924" lon="6.61835">
        <ele>481.76</ele>
        <time>2016-09-30T11:39:35Z</time>
      </trkpt>
      <trkpt lat="43.53924" lon="6.61837">
        <ele>481.76</ele>
        <time>2016-09-30T11:39:48Z</time>
      </trkpt>
      <trkpt lat="43.53924" lon="6.61836">
        <ele>482.24</ele>
        <time>2016-09-30T11:40:06Z</time>
      </trkpt>
      <trkpt lat="43.53924" lon="6.61836">
        <ele>482.72</ele>
        <time>2016-09-30T11:40:34Z</time>
      </trkpt>
      <trkpt lat="43.53921" lon="6.61834">
        <ele>481.76</ele>
        <time>2016-09-30T11:40:49Z</time>
      </trkpt>
      <trkpt lat="43.53921" lon="6.61832">
        <ele>481.28</ele>
        <time>2016-09-30T11:41:00Z</time>
      </trkpt>
      <trkpt lat="43.53921" lon="6.6183">
        <ele>479.84</ele>
        <time>2016-09-30T11:41:16Z</time>
      </trkpt>
      <trkpt lat="43.53922" lon="6.61829">
        <ele>478.87</ele>
        <time>2016-09-30T11:41:28Z</time>
      </trkpt>
      <trkpt lat="43.53926" lon="6.61827">
        <ele>478.87</ele>
        <time>2016-09-30T11:41:41Z</time>
      </trkpt>
      <trkpt lat="43.53927" lon="6.61823">
        <ele>477.43</ele>
        <time>2016-09-30T11:41:54Z</time>
      </trkpt>
      <trkpt lat="43.53927" lon="6.61819">
        <ele>475.51</ele>
        <time>2016-09-30T11:42:05Z</time>
      </trkpt>
      <trkpt lat="43.53928" lon="6.61819">
        <ele>475.51</ele>
        <time>2016-09-30T11:42:07Z</time>
      </trkpt>
      <trkpt lat="43.53932" lon="6.61819">
        <ele>476.47</ele>
        <time>2016-09-30T11:42:19Z</time>
      </trkpt>
      <trkpt lat="43.53933" lon="6.61819">
        <ele>476.47</ele>
        <time>2016-09-30T11:42:47Z</time>
      </trkpt>
      <trkpt lat="43.53934" lon="6.6182">
        <ele>476.47</ele>
        <time>2016-09-30T11:43:00Z</time>
      </trkpt>
      <trkpt lat="43.53934" lon="6.61821">
        <ele>475.99</ele>
        <time>2016-09-30T11:43:24Z</time>
      </trkpt>
      <trkpt lat="43.53933" lon="6.61822">
        <ele>475.99</ele>
        <time>2016-09-30T11:43:42Z</time>
      </trkpt>
      <trkpt lat="43.53937" lon="6.61822">
        <ele>475.03</ele>
        <time>2016-09-30T11:43:54Z</time>
      </trkpt>
      <trkpt lat="43.53938" lon="6.61822">
        <ele>475.51</ele>
        <time>2016-09-30T11:44:16Z</time>
      </trkpt>
      <trkpt lat="43.53938" lon="6.61822">
        <ele>475.99</ele>
        <time>2016-09-30T11:44:41Z</time>
      </trkpt>
      <trkpt lat="43.53938" lon="6.61822">
        <ele>475.99</ele>
        <time>2016-09-30T11:45:09Z</time>
      </trkpt>
      <trkpt lat="43.53938" lon="6.61822">
        <ele>475.51</ele>
        <time>2016-09-30T11:45:26Z</time>
      </trkpt>
      <trkpt lat="43.53939" lon="6.61822">
        <ele>475.51</ele>
        <time>2016-09-30T11:45:49Z</time>
      </trkpt>
      <trkpt lat="43.53939" lon="6.61823">
        <ele>475.51</ele>
        <time>2016-09-30T11:46:22Z</time>
      </trkpt>
      <trkpt lat="43.53942" lon="6.61821">
        <ele>475.51</ele>
        <time>2016-09-30T11:46:38Z</time>
      </trkpt>
      <trkpt lat="43.53946" lon="6.61819">
        <ele>475.03</ele>
        <time>2016-09-30T11:46:50Z</time>
      </trkpt>
      <trkpt lat="43.53947" lon="6.6182">
        <ele>475.03</ele>
        <time>2016-09-30T11:47:10Z</time>
      </trkpt>
      <trkpt lat="43.53948" lon="6.61819">
        <ele>475.03</ele>
        <time>2016-09-30T11:47:28Z</time>
      </trkpt>
      <trkpt lat="43.53948" lon="6.61818">
        <ele>475.51</ele>
        <time>2016-09-30T11:47:59Z</time>
      </trkpt>
      <trkpt lat="43.53948" lon="6.61818">
        <ele>475.03</ele>
        <time>2016-09-30T11:48:22Z</time>
      </trkpt>
      <trkpt lat="43.53949" lon="6.61818">
        <ele>475.03</ele>
        <time>2016-09-30T11:49:00Z</time>
      </trkpt>
      <trkpt lat="43.53949" lon="6.61818">
        <ele>475.03</ele>
        <time>2016-09-30T11:49:27Z</time>
      </trkpt>
      <trkpt lat="43.5395" lon="6.61815">
        <ele>475.99</ele>
        <time>2016-09-30T11:49:49Z</time>
      </trkpt>
      <trkpt lat="43.53952" lon="6.61813">
        <ele>474.07</ele>
        <time>2016-09-30T11:49:55Z</time>
      </trkpt>
      <trkpt lat="43.53952" lon="6.61812">
        <ele>475.03</ele>
        <time>2016-09-30T11:50:15Z</time>
      </trkpt>
      <trkpt lat="43.53952" lon="6.61812">
        <ele>475.51</ele>
        <time>2016-09-30T11:50:36Z</time>
      </trkpt>
      <trkpt lat="43.53952" lon="6.61811">
        <ele>475.51</ele>
        <time>2016-09-30T11:51:06Z</time>
      </trkpt>
      <trkpt lat="43.53952" lon="6.6181">
        <ele>475.51</ele>
        <time>2016-09-30T11:51:22Z</time>
      </trkpt>
      <trkpt lat="43.53951" lon="6.61804">
        <ele>475.51</ele>
        <time>2016-09-30T11:51:50Z</time>
      </trkpt>
      <trkpt lat="43.53951" lon="6.61803">
        <ele>475.99</ele>
        <time>2016-09-30T11:51:51Z</time>
      </trkpt>
      <trkpt lat="43.53949" lon="6.61797">
        <ele>474.55</ele>
        <time>2016-09-30T11:51:56Z</time>
      </trkpt>
      <trkpt lat="43.53947" lon="6.61791">
        <ele>474.55</ele>
        <time>2016-09-30T11:52:01Z</time>
      </trkpt>
      <trkpt lat="43.53941" lon="6.61775">
        <ele>472.14</ele>
        <time>2016-09-30T11:52:15Z</time>
      </trkpt>
      <trkpt lat="43.53937" lon="6.61765">
        <ele>470.7</ele>
        <time>2016-09-30T11:52:24Z</time>
      </trkpt>
      <trkpt lat="43.53935" lon="6.61758">
        <ele>470.22</ele>
        <time>2016-09-30T11:52:30Z</time>
      </trkpt>
      <trkpt lat="43.5393" lon="6.6174">
        <ele>468.3</ele>
        <time>2016-09-30T11:52:45Z</time>
      </trkpt>
      <trkpt lat="43.53927" lon="6.61726">
        <ele>466.38</ele>
        <time>2016-09-30T11:52:57Z</time>
      </trkpt>
      <trkpt lat="43.53924" lon="6.61706">
        <ele>465.42</ele>
        <time>2016-09-30T11:53:10Z</time>
      </trkpt>
      <trkpt lat="43.5392" lon="6.61685">
        <ele>463.97</ele>
        <time>2016-09-30T11:53:24Z</time>
      </trkpt>
      <trkpt lat="43.53919" lon="6.61684">
        <ele>463.97</ele>
        <time>2016-09-30T11:53:25Z</time>
      </trkpt>
      <trkpt lat="43.53919" lon="6.61679">
        <ele>463.49</ele>
        <time>2016-09-30T11:53:28Z</time>
      </trkpt>
      <trkpt lat="43.53919" lon="6.61668">
        <ele>463.01</ele>
        <time>2016-09-30T11:53:36Z</time>
      </trkpt>
      <trkpt lat="43.5392" lon="6.61659">
        <ele>463.49</ele>
        <time>2016-09-30T11:53:42Z</time>
      </trkpt>
      <trkpt lat="43.53922" lon="6.61646">
        <ele>463.97</ele>
        <time>2016-09-30T11:53:51Z</time>
      </trkpt>
      <trkpt lat="43.53928" lon="6.61627">
        <ele>463.97</ele>
        <time>2016-09-30T11:54:06Z</time>
      </trkpt>
      <trkpt lat="43.53936" lon="6.61605">
        <ele>465.42</ele>
        <time>2016-09-30T11:54:23Z</time>
      </trkpt>
      <trkpt lat="43.53944" lon="6.61587">
        <ele>466.38</ele>
        <time>2016-09-30T11:54:37Z</time>
      </trkpt>
      <trkpt lat="43.53949" lon="6.61579">
        <ele>466.38</ele>
        <time>2016-09-30T11:54:44Z</time>
      </trkpt>
      <trkpt lat="43.53956" lon="6.6156">
        <ele>465.9</ele>
        <time>2016-09-30T11:54:58Z</time>
      </trkpt>
      <trkpt lat="43.53957" lon="6.61537">
        <ele>464.93</ele>
        <time>2016-09-30T11:55:13Z</time>
      </trkpt>
      <trkpt lat="43.53957" lon="6.61516">
        <ele>463.97</ele>
        <time>2016-09-30T11:55:27Z</time>
      </trkpt>
      <trkpt lat="43.53959" lon="6.61498">
        <ele>463.01</ele>
        <time>2016-09-30T11:55:38Z</time>
      </trkpt>
      <trkpt lat="43.53962" lon="6.61474">
        <ele>462.53</ele>
        <time>2016-09-30T11:55:52Z</time>
      </trkpt>
      <trkpt lat="43.53963" lon="6.61465">
        <ele>462.53</ele>
        <time>2016-09-30T11:55:58Z</time>
      </trkpt>
      <trkpt lat="43.53962" lon="6.61458">
        <ele>462.05</ele>
        <time>2016-09-30T11:56:03Z</time>
      </trkpt>
      <trkpt lat="43.53963" lon="6.6145">
        <ele>461.57</ele>
        <time>2016-09-30T11:56:08Z</time>
      </trkpt>
      <trkpt lat="43.5396" lon="6.61427">
        <ele>462.53</ele>
        <time>2016-09-30T11:56:23Z</time>
      </trkpt>
      <trkpt lat="43.53964" lon="6.61407">
        <ele>463.49</ele>
        <time>2016-09-30T11:56:37Z</time>
      </trkpt>
      <trkpt lat="43.53976" lon="6.61394">
        <ele>464.45</ele>
        <time>2016-09-30T11:56:52Z</time>
      </trkpt>
      <trkpt lat="43.53989" lon="6.61385">
        <ele>465.42</ele>
        <time>2016-09-30T11:57:05Z</time>
      </trkpt>
      <trkpt lat="43.53994" lon="6.61381">
        <ele>464.93</ele>
        <time>2016-09-30T11:57:22Z</time>
      </trkpt>
      <trkpt lat="43.53997" lon="6.61379">
        <ele>464.93</ele>
        <time>2016-09-30T11:57:26Z</time>
      </trkpt>
      <trkpt lat="43.54006" lon="6.61372">
        <ele>463.97</ele>
        <time>2016-09-30T11:57:40Z</time>
      </trkpt>
      <trkpt lat="43.54019" lon="6.61363">
        <ele>463.01</ele>
        <time>2016-09-30T11:57:55Z</time>
      </trkpt>
      <trkpt lat="43.54026" lon="6.61358">
        <ele>462.53</ele>
        <time>2016-09-30T11:58:04Z</time>
      </trkpt>
      <trkpt lat="43.54041" lon="6.61346">
        <ele>461.09</ele>
        <time>2016-09-30T11:58:19Z</time>
      </trkpt>
      <trkpt lat="43.54052" lon="6.61333">
        <ele>460.13</ele>
        <time>2016-09-30T11:58:33Z</time>
      </trkpt>
      <trkpt lat="43.54054" lon="6.61325">
        <ele>460.13</ele>
        <time>2016-09-30T11:58:38Z</time>
      </trkpt>
      <trkpt lat="43.54057" lon="6.613">
        <ele>458.69</ele>
        <time>2016-09-30T11:58:54Z</time>
      </trkpt>
      <trkpt lat="43.54053" lon="6.61279">
        <ele>457.72</ele>
        <time>2016-09-30T11:59:08Z</time>
      </trkpt>
      <trkpt lat="43.5405" lon="6.61255">
        <ele>456.28</ele>
        <time>2016-09-30T11:59:23Z</time>
      </trkpt>
      <trkpt lat="43.54052" lon="6.61242">
        <ele>455.8</ele>
        <time>2016-09-30T11:59:32Z</time>
      </trkpt>
      <trkpt lat="43.54059" lon="6.61219">
        <ele>453.88</ele>
        <time>2016-09-30T11:59:48Z</time>
      </trkpt>
      <trkpt lat="43.54064" lon="6.61198">
        <ele>452.44</ele>
        <time>2016-09-30T12:00:02Z</time>
      </trkpt>
      <trkpt lat="43.5407" lon="6.61179">
        <ele>451</ele>
        <time>2016-09-30T12:00:16Z</time>
      </trkpt>
      <trkpt lat="43.54074" lon="6.61164">
        <ele>449.07</ele>
        <time>2016-09-30T12:00:27Z</time>
      </trkpt>
      <trkpt lat="43.54071" lon="6.61141">
        <ele>446.67</ele>
        <time>2016-09-30T12:00:43Z</time>
      </trkpt>
      <trkpt lat="43.54064" lon="6.61123">
        <ele>444.75</ele>
        <time>2016-09-30T12:00:57Z</time>
      </trkpt>
      <trkpt lat="43.54055" lon="6.61107">
        <ele>442.34</ele>
        <time>2016-09-30T12:01:11Z</time>
      </trkpt>
      <trkpt lat="43.54046" lon="6.61093">
        <ele>440.9</ele>
        <time>2016-09-30T12:01:24Z</time>
      </trkpt>
      <trkpt lat="43.54037" lon="6.61081">
        <ele>438.98</ele>
        <time>2016-09-30T12:01:40Z</time>
      </trkpt>
      <trkpt lat="43.54032" lon="6.61071">
        <ele>436.58</ele>
        <time>2016-09-30T12:01:53Z</time>
      </trkpt>
      <trkpt lat="43.54025" lon="6.61057">
        <ele>434.17</ele>
        <time>2016-09-30T12:02:08Z</time>
      </trkpt>
      <trkpt lat="43.5402" lon="6.61044">
        <ele>431.77</ele>
        <time>2016-09-30T12:02:21Z</time>
      </trkpt>
      <trkpt lat="43.54018" lon="6.61036">
        <ele>430.81</ele>
        <time>2016-09-30T12:02:28Z</time>
      </trkpt>
      <trkpt lat="43.54017" lon="6.61028">
        <ele>429.37</ele>
        <time>2016-09-30T12:02:35Z</time>
      </trkpt>
      <trkpt lat="43.54015" lon="6.61018">
        <ele>428.4</ele>
        <time>2016-09-30T12:02:43Z</time>
      </trkpt>
      <trkpt lat="43.54016" lon="6.61008">
        <ele>426.96</ele>
        <time>2016-09-30T12:02:50Z</time>
      </trkpt>
      <trkpt lat="43.54017" lon="6.60986">
        <ele>424.56</ele>
        <time>2016-09-30T12:03:04Z</time>
      </trkpt>
      <trkpt lat="43.5402" lon="6.60969">
        <ele>423.12</ele>
        <time>2016-09-30T12:03:18Z</time>
      </trkpt>
      <trkpt lat="43.54021" lon="6.60961">
        <ele>422.16</ele>
        <time>2016-09-30T12:03:24Z</time>
      </trkpt>
      <trkpt lat="43.54022" lon="6.60958">
        <ele>421.68</ele>
        <time>2016-09-30T12:03:27Z</time>
      </trkpt>
      <trkpt lat="43.54022" lon="6.60952">
        <ele>421.19</ele>
        <time>2016-09-30T12:03:31Z</time>
      </trkpt>
      <trkpt lat="43.54025" lon="6.60936">
        <ele>419.75</ele>
        <time>2016-09-30T12:03:43Z</time>
      </trkpt>
      <trkpt lat="43.5403" lon="6.60918">
        <ele>418.31</ele>
        <time>2016-09-30T12:03:58Z</time>
      </trkpt>
      <trkpt lat="43.5403" lon="6.60915">
        <ele>417.83</ele>
        <time>2016-09-30T12:04:00Z</time>
      </trkpt>
      <trkpt lat="43.54033" lon="6.60897">
        <ele>416.39</ele>
        <time>2016-09-30T12:04:13Z</time>
      </trkpt>
      <trkpt lat="43.54034" lon="6.60887">
        <ele>415.43</ele>
        <time>2016-09-30T12:04:21Z</time>
      </trkpt>
      <trkpt lat="43.54034" lon="6.60882">
        <ele>414.95</ele>
        <time>2016-09-30T12:04:24Z</time>
      </trkpt>
      <trkpt lat="43.54036" lon="6.60877">
        <ele>411.1</ele>
        <time>2016-09-30T12:04:27Z</time>
      </trkpt>
      <trkpt lat="43.54036" lon="6.60875">
        <ele>417.35</ele>
        <time>2016-09-30T12:04:28Z</time>
      </trkpt>
      <trkpt lat="43.54037" lon="6.60871">
        <ele>414.47</ele>
        <time>2016-09-30T12:04:31Z</time>
      </trkpt>
      <trkpt lat="43.54036" lon="6.60867">
        <ele>413.98</ele>
        <time>2016-09-30T12:04:34Z</time>
      </trkpt>
      <trkpt lat="43.54037" lon="6.60862">
        <ele>413.02</ele>
        <time>2016-09-30T12:04:38Z</time>
      </trkpt>
      <trkpt lat="43.54035" lon="6.60849">
        <ele>412.54</ele>
        <time>2016-09-30T12:04:46Z</time>
      </trkpt>
      <trkpt lat="43.54029" lon="6.60826">
        <ele>410.62</ele>
        <time>2016-09-30T12:05:02Z</time>
      </trkpt>
      <trkpt lat="43.5402" lon="6.60814">
        <ele>410.14</ele>
        <time>2016-09-30T12:05:16Z</time>
      </trkpt>
      <trkpt lat="43.54012" lon="6.60811">
        <ele>410.14</ele>
        <time>2016-09-30T12:05:30Z</time>
      </trkpt>
      <trkpt lat="43.54014" lon="6.60813">
        <ele>409.66</ele>
        <time>2016-09-30T12:05:48Z</time>
      </trkpt>
      <trkpt lat="43.54016" lon="6.60814">
        <ele>409.66</ele>
        <time>2016-09-30T12:05:50Z</time>
      </trkpt>
      <trkpt lat="43.54017" lon="6.60817">
        <ele>410.14</ele>
        <time>2016-09-30T12:06:02Z</time>
      </trkpt>
      <trkpt lat="43.54017" lon="6.60821">
        <ele>409.66</ele>
        <time>2016-09-30T12:06:14Z</time>
      </trkpt>
      <trkpt lat="43.54016" lon="6.60815">
        <ele>410.14</ele>
        <time>2016-09-30T12:06:27Z</time>
      </trkpt>
      <trkpt lat="43.54014" lon="6.60813">
        <ele>410.14</ele>
        <time>2016-09-30T12:06:48Z</time>
      </trkpt>
      <trkpt lat="43.54014" lon="6.60811">
        <ele>409.66</ele>
        <time>2016-09-30T12:07:15Z</time>
      </trkpt>
      <trkpt lat="43.54013" lon="6.60811">
        <ele>409.66</ele>
        <time>2016-09-30T12:07:42Z</time>
      </trkpt>
      <trkpt lat="43.54012" lon="6.60811">
        <ele>409.66</ele>
        <time>2016-09-30T12:07:56Z</time>
      </trkpt>
      <trkpt lat="43.54012" lon="6.60812">
        <ele>410.14</ele>
        <time>2016-09-30T12:08:31Z</time>
      </trkpt>
      <trkpt lat="43.54012" lon="6.60814">
        <ele>410.62</ele>
        <time>2016-09-30T12:08:58Z</time>
      </trkpt>
      <trkpt lat="43.54012" lon="6.6081">
        <ele>410.62</ele>
        <time>2016-09-30T12:09:20Z</time>
      </trkpt>
      <trkpt lat="43.54006" lon="6.608">
        <ele>410.14</ele>
        <time>2016-09-30T12:09:32Z</time>
      </trkpt>
      <trkpt lat="43.54006" lon="6.60797">
        <ele>410.14</ele>
        <time>2016-09-30T12:09:50Z</time>
      </trkpt>
      <trkpt lat="43.54005" lon="6.608">
        <ele>410.14</ele>
        <time>2016-09-30T12:09:54Z</time>
      </trkpt>
      <trkpt lat="43.54008" lon="6.60813">
        <ele>409.66</ele>
        <time>2016-09-30T12:10:08Z</time>
      </trkpt>
      <trkpt lat="43.54009" lon="6.60812">
        <ele>410.62</ele>
        <time>2016-09-30T12:10:29Z</time>
      </trkpt>
      <trkpt lat="43.54007" lon="6.6081">
        <ele>403.89</ele>
        <time>2016-09-30T12:10:42Z</time>
      </trkpt>
      <trkpt lat="43.54007" lon="6.6081">
        <ele>415.43</ele>
        <time>2016-09-30T12:10:43Z</time>
      </trkpt>
      <trkpt lat="43.54007" lon="6.6081">
        <ele>410.14</ele>
        <time>2016-09-30T12:10:44Z</time>
      </trkpt>
      <trkpt lat="43.54008" lon="6.60811">
        <ele>409.66</ele>
        <time>2016-09-30T12:10:59Z</time>
      </trkpt>
      <trkpt lat="43.54008" lon="6.60815">
        <ele>410.14</ele>
        <time>2016-09-30T12:11:10Z</time>
      </trkpt>
      <trkpt lat="43.54008" lon="6.60816">
        <ele>410.62</ele>
        <time>2016-09-30T12:11:28Z</time>
      </trkpt>
      <trkpt lat="43.5401" lon="6.60817">
        <ele>410.62</ele>
        <time>2016-09-30T12:11:45Z</time>
      </trkpt>
      <trkpt lat="43.54012" lon="6.60821">
        <ele>410.14</ele>
        <time>2016-09-30T12:11:58Z</time>
      </trkpt>
      <trkpt lat="43.54008" lon="6.60828">
        <ele>409.66</ele>
        <time>2016-09-30T12:12:10Z</time>
      </trkpt>
      <trkpt lat="43.54001" lon="6.60842">
        <ele>409.66</ele>
        <time>2016-09-30T12:12:24Z</time>
      </trkpt>
      <trkpt lat="43.53999" lon="6.60846">
        <ele>409.66</ele>
        <time>2016-09-30T12:12:28Z</time>
      </trkpt>
      <trkpt lat="43.53991" lon="6.60864">
        <ele>409.66</ele>
        <time>2016-09-30T12:12:43Z</time>
      </trkpt>
      <trkpt lat="43.53983" lon="6.60885">
        <ele>409.66</ele>
        <time>2016-09-30T12:12:58Z</time>
      </trkpt>
      <trkpt lat="43.53974" lon="6.60904">
        <ele>410.14</ele>
        <time>2016-09-30T12:13:13Z</time>
      </trkpt>
      <trkpt lat="43.53964" lon="6.60924">
        <ele>409.66</ele>
        <time>2016-09-30T12:13:28Z</time>
      </trkpt>
      <trkpt lat="43.53958" lon="6.60944">
        <ele>409.18</ele>
        <time>2016-09-30T12:13:42Z</time>
      </trkpt>
      <trkpt lat="43.53952" lon="6.60967">
        <ele>407.74</ele>
        <time>2016-09-30T12:13:57Z</time>
      </trkpt>
      <trkpt lat="43.53945" lon="6.60988">
        <ele>407.26</ele>
        <time>2016-09-30T12:14:13Z</time>
      </trkpt>
      <trkpt lat="43.53937" lon="6.61008">
        <ele>406.77</ele>
        <time>2016-09-30T12:14:27Z</time>
      </trkpt>
      <trkpt lat="43.53935" lon="6.61014">
        <ele>406.77</ele>
        <time>2016-09-30T12:14:31Z</time>
      </trkpt>
      <trkpt lat="43.5393" lon="6.61025">
        <ele>406.29</ele>
        <time>2016-09-30T12:14:39Z</time>
      </trkpt>
      <trkpt lat="43.53927" lon="6.6103">
        <ele>406.29</ele>
        <time>2016-09-30T12:14:43Z</time>
      </trkpt>
      <trkpt lat="43.53918" lon="6.6105">
        <ele>405.33</ele>
        <time>2016-09-30T12:14:58Z</time>
      </trkpt>
      <trkpt lat="43.53907" lon="6.61064">
        <ele>404.37</ele>
        <time>2016-09-30T12:15:12Z</time>
      </trkpt>
      <trkpt lat="43.53893" lon="6.61073">
        <ele>403.89</ele>
        <time>2016-09-30T12:15:27Z</time>
      </trkpt>
      <trkpt lat="43.53874" lon="6.61075">
        <ele>402.93</ele>
        <time>2016-09-30T12:15:43Z</time>
      </trkpt>
      <trkpt lat="43.53858" lon="6.61081">
        <ele>402.93</ele>
        <time>2016-09-30T12:15:57Z</time>
      </trkpt>
      <trkpt lat="43.53844" lon="6.61096">
        <ele>401.97</ele>
        <time>2016-09-30T12:16:13Z</time>
      </trkpt>
      <trkpt lat="43.53832" lon="6.61116">
        <ele>401.01</ele>
        <time>2016-09-30T12:16:29Z</time>
      </trkpt>
      <trkpt lat="43.53823" lon="6.61135">
        <ele>400.53</ele>
        <time>2016-09-30T12:16:43Z</time>
      </trkpt>
      <trkpt lat="43.5382" lon="6.6114">
        <ele>400.05</ele>
        <time>2016-09-30T12:16:47Z</time>
      </trkpt>
      <trkpt lat="43.53811" lon="6.61161">
        <ele>400.05</ele>
        <time>2016-09-30T12:17:02Z</time>
      </trkpt>
      <trkpt lat="43.53808" lon="6.61166">
        <ele>399.57</ele>
        <time>2016-09-30T12:17:06Z</time>
      </trkpt>
      <trkpt lat="43.53803" lon="6.61179">
        <ele>399.08</ele>
        <time>2016-09-30T12:17:15Z</time>
      </trkpt>
      <trkpt lat="43.53792" lon="6.61204">
        <ele>398.6</ele>
        <time>2016-09-30T12:17:33Z</time>
      </trkpt>
      <trkpt lat="43.53783" lon="6.6122">
        <ele>398.6</ele>
        <time>2016-09-30T12:17:46Z</time>
      </trkpt>
      <trkpt lat="43.53761" lon="6.61227">
        <ele>398.6</ele>
        <time>2016-09-30T12:18:06Z</time>
      </trkpt>
      <trkpt lat="43.53744" lon="6.6123">
        <ele>398.6</ele>
        <time>2016-09-30T12:18:21Z</time>
      </trkpt>
      <trkpt lat="43.53733" lon="6.61246">
        <ele>397.64</ele>
        <time>2016-09-30T12:18:34Z</time>
      </trkpt>
      <trkpt lat="43.53725" lon="6.61266">
        <ele>396.2</ele>
        <time>2016-09-30T12:18:48Z</time>
      </trkpt>
      <trkpt lat="43.53713" lon="6.61277">
        <ele>395.72</ele>
        <time>2016-09-30T12:19:02Z</time>
      </trkpt>
      <trkpt lat="43.53696" lon="6.61271">
        <ele>395.24</ele>
        <time>2016-09-30T12:19:17Z</time>
      </trkpt>
      <trkpt lat="43.53679" lon="6.61272">
        <ele>394.28</ele>
        <time>2016-09-30T12:19:32Z</time>
      </trkpt>
      <trkpt lat="43.53664" lon="6.61279">
        <ele>393.8</ele>
        <time>2016-09-30T12:19:46Z</time>
      </trkpt>
      <trkpt lat="43.53648" lon="6.61283">
        <ele>393.32</ele>
        <time>2016-09-30T12:20:01Z</time>
      </trkpt>
      <trkpt lat="43.53631" lon="6.61286">
        <ele>392.36</ele>
        <time>2016-09-30T12:20:16Z</time>
      </trkpt>
      <trkpt lat="43.53613" lon="6.61283">
        <ele>391.39</ele>
        <time>2016-09-30T12:20:30Z</time>
      </trkpt>
      <trkpt lat="43.53596" lon="6.61278">
        <ele>390.43</ele>
        <time>2016-09-30T12:20:45Z</time>
      </trkpt>
      <trkpt lat="43.5358" lon="6.61269">
        <ele>389.47</ele>
        <time>2016-09-30T12:21:00Z</time>
      </trkpt>
      <trkpt lat="43.53565" lon="6.61263">
        <ele>388.51</ele>
        <time>2016-09-30T12:21:14Z</time>
      </trkpt>
      <trkpt lat="43.53546" lon="6.61257">
        <ele>388.03</ele>
        <time>2016-09-30T12:21:30Z</time>
      </trkpt>
      <trkpt lat="43.53524" lon="6.61254">
        <ele>387.07</ele>
        <time>2016-09-30T12:21:49Z</time>
      </trkpt>
      <trkpt lat="43.53505" lon="6.61256">
        <ele>385.63</ele>
        <time>2016-09-30T12:22:04Z</time>
      </trkpt>
      <trkpt lat="43.53488" lon="6.61265">
        <ele>385.15</ele>
        <time>2016-09-30T12:22:19Z</time>
      </trkpt>
      <trkpt lat="43.5347" lon="6.61272">
        <ele>384.18</ele>
        <time>2016-09-30T12:22:34Z</time>
      </trkpt>
      <trkpt lat="43.53452" lon="6.61282">
        <ele>383.22</ele>
        <time>2016-09-30T12:22:48Z</time>
      </trkpt>
      <trkpt lat="43.53444" lon="6.61288">
        <ele>382.74</ele>
        <time>2016-09-30T12:22:56Z</time>
      </trkpt>
      <trkpt lat="43.53441" lon="6.61289">
        <ele>382.26</ele>
        <time>2016-09-30T12:22:58Z</time>
      </trkpt>
      <trkpt lat="43.53437" lon="6.61292">
        <ele>382.26</ele>
        <time>2016-09-30T12:23:02Z</time>
      </trkpt>
      <trkpt lat="43.53424" lon="6.613">
        <ele>381.78</ele>
        <time>2016-09-30T12:23:14Z</time>
      </trkpt>
      <trkpt lat="43.53413" lon="6.61311">
        <ele>380.82</ele>
        <time>2016-09-30T12:23:25Z</time>
      </trkpt>
      <trkpt lat="43.53399" lon="6.61326">
        <ele>380.34</ele>
        <time>2016-09-30T12:23:39Z</time>
      </trkpt>
      <trkpt lat="43.53386" lon="6.61343">
        <ele>379.38</ele>
        <time>2016-09-30T12:23:52Z</time>
      </trkpt>
      <trkpt lat="43.5338" lon="6.6135">
        <ele>378.9</ele>
        <time>2016-09-30T12:24:07Z</time>
      </trkpt>
      <trkpt lat="43.5338" lon="6.6135">
        <ele>378.9</ele>
        <time>2016-09-30T12:24:35Z</time>
      </trkpt>
      <trkpt lat="43.53379" lon="6.61351">
        <ele>378.9</ele>
        <time>2016-09-30T12:25:01Z</time>
      </trkpt>
      <trkpt lat="43.53378" lon="6.61352">
        <ele>378.9</ele>
        <time>2016-09-30T12:25:17Z</time>
      </trkpt>
      <trkpt lat="43.53377" lon="6.61351">
        <ele>378.42</ele>
        <time>2016-09-30T12:25:43Z</time>
      </trkpt>
      <trkpt lat="43.53377" lon="6.61351">
        <ele>378.42</ele>
        <time>2016-09-30T12:25:49Z</time>
      </trkpt>
      <trkpt lat="43.53374" lon="6.61357">
        <ele>378.42</ele>
        <time>2016-09-30T12:25:53Z</time>
      </trkpt>
      <trkpt lat="43.53367" lon="6.61371">
        <ele>377.94</ele>
        <time>2016-09-30T12:26:05Z</time>
      </trkpt>
      <trkpt lat="43.53358" lon="6.61384">
        <ele>377.45</ele>
        <time>2016-09-30T12:26:18Z</time>
      </trkpt>
      <trkpt lat="43.53354" lon="6.61392">
        <ele>377.45</ele>
        <time>2016-09-30T12:26:25Z</time>
      </trkpt>
      <trkpt lat="43.53345" lon="6.6141">
        <ele>376.97</ele>
        <time>2016-09-30T12:26:41Z</time>
      </trkpt>
      <trkpt lat="43.53342" lon="6.61417">
        <ele>376.97</ele>
        <time>2016-09-30T12:26:47Z</time>
      </trkpt>
      <trkpt lat="43.5334" lon="6.61421">
        <ele>376.97</ele>
        <time>2016-09-30T12:26:50Z</time>
      </trkpt>
      <trkpt lat="43.53333" lon="6.61446">
        <ele>376.97</ele>
        <time>2016-09-30T12:27:07Z</time>
      </trkpt>
      <trkpt lat="43.53332" lon="6.61468">
        <ele>376.97</ele>
        <time>2016-09-30T12:27:21Z</time>
      </trkpt>
      <trkpt lat="43.53332" lon="6.61489">
        <ele>376.97</ele>
        <time>2016-09-30T12:27:35Z</time>
      </trkpt>
      <trkpt lat="43.53334" lon="6.61509">
        <ele>377.45</ele>
        <time>2016-09-30T12:27:49Z</time>
      </trkpt>
      <trkpt lat="43.53336" lon="6.61523">
        <ele>377.94</ele>
        <time>2016-09-30T12:27:58Z</time>
      </trkpt>
      <trkpt lat="43.53339" lon="6.61545">
        <ele>377.94</ele>
        <time>2016-09-30T12:28:13Z</time>
      </trkpt>
      <trkpt lat="43.5334" lon="6.61548">
        <ele>377.94</ele>
        <time>2016-09-30T12:28:15Z</time>
      </trkpt>
      <trkpt lat="43.5334" lon="6.61554">
        <ele>377.94</ele>
        <time>2016-09-30T12:28:19Z</time>
      </trkpt>
      <trkpt lat="43.5334" lon="6.61557">
        <ele>378.42</ele>
        <time>2016-09-30T12:28:21Z</time>
      </trkpt>
      <trkpt lat="43.53341" lon="6.61577">
        <ele>378.42</ele>
        <time>2016-09-30T12:28:34Z</time>
      </trkpt>
      <trkpt lat="43.53342" lon="6.61596">
        <ele>378.9</ele>
        <time>2016-09-30T12:28:46Z</time>
      </trkpt>
      <trkpt lat="43.53344" lon="6.61611">
        <ele>378.9</ele>
        <time>2016-09-30T12:28:56Z</time>
      </trkpt>
      <trkpt lat="43.53344" lon="6.61618">
        <ele>378.9</ele>
        <time>2016-09-30T12:29:01Z</time>
      </trkpt>
      <trkpt lat="43.53343" lon="6.61639">
        <ele>379.38</ele>
        <time>2016-09-30T12:29:14Z</time>
      </trkpt>
      <trkpt lat="43.53341" lon="6.6165">
        <ele>379.38</ele>
        <time>2016-09-30T12:29:22Z</time>
      </trkpt>
      <trkpt lat="43.53333" lon="6.61671">
        <ele>380.34</ele>
        <time>2016-09-30T12:29:39Z</time>
      </trkpt>
      <trkpt lat="43.53325" lon="6.61693">
        <ele>381.3</ele>
        <time>2016-09-30T12:29:57Z</time>
      </trkpt>
      <trkpt lat="43.5332" lon="6.61714">
        <ele>381.3</ele>
        <time>2016-09-30T12:30:11Z</time>
      </trkpt>
      <trkpt lat="43.5332" lon="6.6172">
        <ele>381.3</ele>
        <time>2016-09-30T12:30:15Z</time>
      </trkpt>
      <trkpt lat="43.53331" lon="6.61744">
        <ele>380.82</ele>
        <time>2016-09-30T12:30:33Z</time>
      </trkpt>
      <trkpt lat="43.53334" lon="6.61752">
        <ele>379.86</ele>
        <time>2016-09-30T12:30:39Z</time>
      </trkpt>
      <trkpt lat="43.53333" lon="6.61759">
        <ele>379.86</ele>
        <time>2016-09-30T12:30:44Z</time>
      </trkpt>
      <trkpt lat="43.53327" lon="6.61772">
        <ele>378.9</ele>
        <time>2016-09-30T12:30:54Z</time>
      </trkpt>
      <trkpt lat="43.53325" lon="6.61775">
        <ele>378.9</ele>
        <time>2016-09-30T12:30:57Z</time>
      </trkpt>
      <trkpt lat="43.53316" lon="6.61799">
        <ele>377.94</ele>
        <time>2016-09-30T12:31:13Z</time>
      </trkpt>
      <trkpt lat="43.53316" lon="6.61804">
        <ele>377.45</ele>
        <time>2016-09-30T12:31:16Z</time>
      </trkpt>
      <trkpt lat="43.53316" lon="6.61812">
        <ele>377.45</ele>
        <time>2016-09-30T12:31:20Z</time>
      </trkpt>
      <trkpt lat="43.53317" lon="6.6182">
        <ele>377.45</ele>
        <time>2016-09-30T12:31:25Z</time>
      </trkpt>
      <trkpt lat="43.53319" lon="6.61826">
        <ele>376.97</ele>
        <time>2016-09-30T12:31:28Z</time>
      </trkpt>
      <trkpt lat="43.53321" lon="6.61834">
        <ele>376.97</ele>
        <time>2016-09-30T12:31:40Z</time>
      </trkpt>
      <trkpt lat="43.53324" lon="6.61844">
        <ele>377.45</ele>
        <time>2016-09-30T12:31:55Z</time>
      </trkpt>
      <trkpt lat="43.53326" lon="6.61848">
        <ele>376.49</ele>
        <time>2016-09-30T12:31:58Z</time>
      </trkpt>
      <trkpt lat="43.53329" lon="6.61854">
        <ele>376.49</ele>
        <time>2016-09-30T12:32:02Z</time>
      </trkpt>
      <trkpt lat="43.53331" lon="6.61857">
        <ele>376.49</ele>
        <time>2016-09-30T12:32:04Z</time>
      </trkpt>
      <trkpt lat="43.53333" lon="6.61863">
        <ele>376.49</ele>
        <time>2016-09-30T12:32:08Z</time>
      </trkpt>
      <trkpt lat="43.5334" lon="6.61878">
        <ele>376.01</ele>
        <time>2016-09-30T12:32:19Z</time>
      </trkpt>
      <trkpt lat="43.53348" lon="6.61894">
        <ele>376.01</ele>
        <time>2016-09-30T12:32:31Z</time>
      </trkpt>
      <trkpt lat="43.53349" lon="6.61897">
        <ele>376.01</ele>
        <time>2016-09-30T12:32:33Z</time>
      </trkpt>
      <trkpt lat="43.53355" lon="6.61907">
        <ele>376.01</ele>
        <time>2016-09-30T12:32:43Z</time>
      </trkpt>
      <trkpt lat="43.53357" lon="6.6191">
        <ele>376.01</ele>
        <time>2016-09-30T12:32:46Z</time>
      </trkpt>
      <trkpt lat="43.53359" lon="6.61916">
        <ele>376.01</ele>
        <time>2016-09-30T12:33:00Z</time>
      </trkpt>
      <trkpt lat="43.53362" lon="6.61923">
        <ele>376.01</ele>
        <time>2016-09-30T12:33:11Z</time>
      </trkpt>
      <trkpt lat="43.53368" lon="6.61931">
        <ele>376.01</ele>
        <time>2016-09-30T12:33:19Z</time>
      </trkpt>
      <trkpt lat="43.53377" lon="6.61948">
        <ele>376.01</ele>
        <time>2016-09-30T12:33:33Z</time>
      </trkpt>
      <trkpt lat="43.53378" lon="6.61969">
        <ele>376.01</ele>
        <time>2016-09-30T12:33:48Z</time>
      </trkpt>
      <trkpt lat="43.53366" lon="6.61983">
        <ele>375.53</ele>
        <time>2016-09-30T12:34:03Z</time>
      </trkpt>
      <trkpt lat="43.53348" lon="6.61998">
        <ele>375.05</ele>
        <time>2016-09-30T12:34:20Z</time>
      </trkpt>
      <trkpt lat="43.53333" lon="6.62015">
        <ele>374.09</ele>
        <time>2016-09-30T12:34:36Z</time>
      </trkpt>
      <trkpt lat="43.53317" lon="6.62033">
        <ele>373.13</ele>
        <time>2016-09-30T12:34:53Z</time>
      </trkpt>
      <trkpt lat="43.53303" lon="6.6205">
        <ele>372.17</ele>
        <time>2016-09-30T12:35:08Z</time>
      </trkpt>
      <trkpt lat="43.53292" lon="6.62068">
        <ele>371.69</ele>
        <time>2016-09-30T12:35:23Z</time>
      </trkpt>
      <trkpt lat="43.53282" lon="6.62094">
        <ele>371.21</ele>
        <time>2016-09-30T12:35:40Z</time>
      </trkpt>
      <trkpt lat="43.53275" lon="6.62118">
        <ele>370.24</ele>
        <time>2016-09-30T12:35:56Z</time>
      </trkpt>
      <trkpt lat="43.53264" lon="6.62137">
        <ele>370.24</ele>
        <time>2016-09-30T12:36:10Z</time>
      </trkpt>
      <trkpt lat="43.53252" lon="6.62156">
        <ele>369.76</ele>
        <time>2016-09-30T12:36:26Z</time>
      </trkpt>
      <trkpt lat="43.53247" lon="6.62168">
        <ele>369.28</ele>
        <time>2016-09-30T12:36:35Z</time>
      </trkpt>
      <trkpt lat="43.53245" lon="6.62176">
        <ele>369.28</ele>
        <time>2016-09-30T12:36:40Z</time>
      </trkpt>
      <trkpt lat="43.53245" lon="6.62201">
        <ele>368.8</ele>
        <time>2016-09-30T12:36:55Z</time>
      </trkpt>
      <trkpt lat="43.53247" lon="6.62212">
        <ele>368.32</ele>
        <time>2016-09-30T12:37:02Z</time>
      </trkpt>
      <trkpt lat="43.53246" lon="6.62224">
        <ele>368.32</ele>
        <time>2016-09-30T12:37:10Z</time>
      </trkpt>
      <trkpt lat="43.53233" lon="6.62226">
        <ele>367.36</ele>
        <time>2016-09-30T12:37:25Z</time>
      </trkpt>
      <trkpt lat="43.53217" lon="6.62214">
        <ele>365.92</ele>
        <time>2016-09-30T12:37:40Z</time>
      </trkpt>
      <trkpt lat="43.53204" lon="6.62206">
        <ele>364.96</ele>
        <time>2016-09-30T12:37:53Z</time>
      </trkpt>
      <trkpt lat="43.53189" lon="6.62193">
        <ele>364.48</ele>
        <time>2016-09-30T12:38:07Z</time>
      </trkpt>
      <trkpt lat="43.53174" lon="6.62189">
        <ele>363.52</ele>
        <time>2016-09-30T12:38:19Z</time>
      </trkpt>
      <trkpt lat="43.53152" lon="6.6219">
        <ele>362.55</ele>
        <time>2016-09-30T12:38:36Z</time>
      </trkpt>
      <trkpt lat="43.53143" lon="6.62187">
        <ele>361.59</ele>
        <time>2016-09-30T12:38:44Z</time>
      </trkpt>
      <trkpt lat="43.53125" lon="6.62179">
        <ele>360.15</ele>
        <time>2016-09-30T12:38:59Z</time>
      </trkpt>
      <trkpt lat="43.53107" lon="6.62168">
        <ele>359.19</ele>
        <time>2016-09-30T12:39:14Z</time>
      </trkpt>
      <trkpt lat="43.53091" lon="6.62154">
        <ele>358.23</ele>
        <time>2016-09-30T12:39:29Z</time>
      </trkpt>
      <trkpt lat="43.53073" lon="6.62153">
        <ele>357.27</ele>
        <time>2016-09-30T12:39:44Z</time>
      </trkpt>
      <trkpt lat="43.53056" lon="6.62174">
        <ele>357.27</ele>
        <time>2016-09-30T12:40:01Z</time>
      </trkpt>
      <trkpt lat="43.53044" lon="6.62199">
        <ele>356.79</ele>
        <time>2016-09-30T12:40:18Z</time>
      </trkpt>
      <trkpt lat="43.53037" lon="6.62216">
        <ele>356.31</ele>
        <time>2016-09-30T12:40:29Z</time>
      </trkpt>
      <trkpt lat="43.53033" lon="6.62233">
        <ele>355.83</ele>
        <time>2016-09-30T12:40:39Z</time>
      </trkpt>
      <trkpt lat="43.53025" lon="6.62256">
        <ele>355.34</ele>
        <time>2016-09-30T12:40:54Z</time>
      </trkpt>
      <trkpt lat="43.53005" lon="6.62265">
        <ele>355.34</ele>
        <time>2016-09-30T12:41:11Z</time>
      </trkpt>
      <trkpt lat="43.52985" lon="6.62274">
        <ele>355.83</ele>
        <time>2016-09-30T12:41:27Z</time>
      </trkpt>
      <trkpt lat="43.52966" lon="6.62285">
        <ele>356.31</ele>
        <time>2016-09-30T12:41:43Z</time>
      </trkpt>
      <trkpt lat="43.52949" lon="6.62295">
        <ele>356.79</ele>
        <time>2016-09-30T12:41:58Z</time>
      </trkpt>
      <trkpt lat="43.52941" lon="6.623">
        <ele>356.79</ele>
        <time>2016-09-30T12:42:05Z</time>
      </trkpt>
      <trkpt lat="43.52936" lon="6.62307">
        <ele>357.27</ele>
        <time>2016-09-30T12:42:19Z</time>
      </trkpt>
      <trkpt lat="43.52937" lon="6.62308">
        <ele>357.27</ele>
        <time>2016-09-30T12:42:37Z</time>
      </trkpt>
      <trkpt lat="43.52937" lon="6.62309">
        <ele>357.27</ele>
        <time>2016-09-30T12:42:59Z</time>
      </trkpt>
      <trkpt lat="43.52938" lon="6.62309">
        <ele>357.27</ele>
        <time>2016-09-30T12:43:20Z</time>
      </trkpt>
      <trkpt lat="43.52938" lon="6.62309">
        <ele>357.27</ele>
        <time>2016-09-30T12:43:45Z</time>
      </trkpt>
      <trkpt lat="43.52938" lon="6.62308">
        <ele>357.27</ele>
        <time>2016-09-30T12:44:07Z</time>
      </trkpt>
      <trkpt lat="43.52938" lon="6.62308">
        <ele>357.27</ele>
        <time>2016-09-30T12:44:28Z</time>
      </trkpt>
      <trkpt lat="43.52938" lon="6.62308">
        <ele>357.27</ele>
        <time>2016-09-30T12:44:45Z</time>
      </trkpt>
      <trkpt lat="43.52937" lon="6.62308">
        <ele>357.27</ele>
        <time>2016-09-30T12:45:10Z</time>
      </trkpt>
      <trkpt lat="43.52937" lon="6.62308">
        <ele>356.79</ele>
        <time>2016-09-30T12:45:37Z</time>
      </trkpt>
      <trkpt lat="43.52937" lon="6.62308">
        <ele>356.79</ele>
        <time>2016-09-30T12:46:09Z</time>
      </trkpt>
      <trkpt lat="43.52936" lon="6.62309">
        <ele>356.31</ele>
        <time>2016-09-30T12:46:37Z</time>
      </trkpt>
      <trkpt lat="43.52936" lon="6.62309">
        <ele>356.79</ele>
        <time>2016-09-30T12:47:04Z</time>
      </trkpt>
      <trkpt lat="43.52936" lon="6.62309">
        <ele>356.79</ele>
        <time>2016-09-30T12:47:27Z</time>
      </trkpt>
      <trkpt lat="43.52936" lon="6.62309">
        <ele>356.79</ele>
        <time>2016-09-30T12:47:51Z</time>
      </trkpt>
      <trkpt lat="43.52937" lon="6.62309">
        <ele>356.79</ele>
        <time>2016-09-30T12:48:14Z</time>
      </trkpt>
      <trkpt lat="43.52934" lon="6.62311">
        <ele>357.27</ele>
        <time>2016-09-30T12:48:23Z</time>
      </trkpt>
      <trkpt lat="43.5293" lon="6.62322">
        <ele>356.79</ele>
        <time>2016-09-30T12:48:32Z</time>
      </trkpt>
      <trkpt lat="43.52923" lon="6.62334">
        <ele>356.31</ele>
        <time>2016-09-30T12:48:43Z</time>
      </trkpt>
      <trkpt lat="43.52915" lon="6.62345">
        <ele>355.34</ele>
        <time>2016-09-30T12:48:54Z</time>
      </trkpt>
      <trkpt lat="43.52914" lon="6.62348">
        <ele>355.34</ele>
        <time>2016-09-30T12:48:56Z</time>
      </trkpt>
      <trkpt lat="43.52901" lon="6.62368">
        <ele>353.9</ele>
        <time>2016-09-30T12:49:14Z</time>
      </trkpt>
      <trkpt lat="43.5289" lon="6.62383">
        <ele>352.94</ele>
        <time>2016-09-30T12:49:27Z</time>
      </trkpt>
      <trkpt lat="43.52882" lon="6.62394">
        <ele>351.5</ele>
        <time>2016-09-30T12:49:37Z</time>
      </trkpt>
      <trkpt lat="43.5288" lon="6.62395">
        <ele>351.02</ele>
        <time>2016-09-30T12:49:39Z</time>
      </trkpt>
      <trkpt lat="43.52869" lon="6.62407">
        <ele>349.58</ele>
        <time>2016-09-30T12:49:51Z</time>
      </trkpt>
      <trkpt lat="43.52859" lon="6.62423">
        <ele>347.65</ele>
        <time>2016-09-30T12:50:04Z</time>
      </trkpt>
      <trkpt lat="43.52849" lon="6.62439">
        <ele>346.21</ele>
        <time>2016-09-30T12:50:18Z</time>
      </trkpt>
      <trkpt lat="43.52836" lon="6.62451">
        <ele>344.29</ele>
        <time>2016-09-30T12:50:31Z</time>
      </trkpt>
      <trkpt lat="43.52821" lon="6.62464">
        <ele>342.37</ele>
        <time>2016-09-30T12:50:46Z</time>
      </trkpt>
      <trkpt lat="43.52814" lon="6.62489">
        <ele>340.92</ele>
        <time>2016-09-30T12:51:01Z</time>
      </trkpt>
      <trkpt lat="43.52819" lon="6.62509">
        <ele>339.96</ele>
        <time>2016-09-30T12:51:14Z</time>
      </trkpt>
      <trkpt lat="43.52825" lon="6.62531">
        <ele>339.48</ele>
        <time>2016-09-30T12:51:28Z</time>
      </trkpt>
      <trkpt lat="43.5283" lon="6.62541">
        <ele>339</ele>
        <time>2016-09-30T12:51:35Z</time>
      </trkpt>
      <trkpt lat="43.52834" lon="6.62563">
        <ele>337.56</ele>
        <time>2016-09-30T12:51:48Z</time>
      </trkpt>
      <trkpt lat="43.52833" lon="6.62568">
        <ele>337.56</ele>
        <time>2016-09-30T12:51:51Z</time>
      </trkpt>
      <trkpt lat="43.5283" lon="6.62579">
        <ele>337.08</ele>
        <time>2016-09-30T12:51:58Z</time>
      </trkpt>
      <trkpt lat="43.52828" lon="6.62587">
        <ele>336.12</ele>
        <time>2016-09-30T12:52:03Z</time>
      </trkpt>
      <trkpt lat="43.52826" lon="6.62589">
        <ele>336.12</ele>
        <time>2016-09-30T12:52:05Z</time>
      </trkpt>
      <trkpt lat="43.52818" lon="6.62601">
        <ele>335.16</ele>
        <time>2016-09-30T12:52:14Z</time>
      </trkpt>
      <trkpt lat="43.52815" lon="6.62604">
        <ele>334.68</ele>
        <time>2016-09-30T12:52:18Z</time>
      </trkpt>
      <trkpt lat="43.52811" lon="6.62607">
        <ele>334.68</ele>
        <time>2016-09-30T12:52:21Z</time>
      </trkpt>
      <trkpt lat="43.52794" lon="6.62616">
        <ele>333.23</ele>
        <time>2016-09-30T12:52:35Z</time>
      </trkpt>
      <trkpt lat="43.52784" lon="6.6262">
        <ele>332.27</ele>
        <time>2016-09-30T12:52:43Z</time>
      </trkpt>
      <trkpt lat="43.52767" lon="6.62625">
        <ele>330.35</ele>
        <time>2016-09-30T12:52:57Z</time>
      </trkpt>
      <trkpt lat="43.52749" lon="6.62639">
        <ele>328.91</ele>
        <time>2016-09-30T12:53:14Z</time>
      </trkpt>
      <trkpt lat="43.52739" lon="6.62651">
        <ele>328.43</ele>
        <time>2016-09-30T12:53:24Z</time>
      </trkpt>
      <trkpt lat="43.52723" lon="6.62658">
        <ele>326.5</ele>
        <time>2016-09-30T12:53:38Z</time>
      </trkpt>
      <trkpt lat="43.52719" lon="6.62654">
        <ele>325.54</ele>
        <time>2016-09-30T12:53:43Z</time>
      </trkpt>
      <trkpt lat="43.52714" lon="6.6264">
        <ele>324.1</ele>
        <time>2016-09-30T12:53:55Z</time>
      </trkpt>
      <trkpt lat="43.52711" lon="6.62627">
        <ele>323.62</ele>
        <time>2016-09-30T12:54:04Z</time>
      </trkpt>
      <trkpt lat="43.52705" lon="6.62603">
        <ele>322.18</ele>
        <time>2016-09-30T12:54:19Z</time>
      </trkpt>
      <trkpt lat="43.52699" lon="6.6258">
        <ele>320.74</ele>
        <time>2016-09-30T12:54:32Z</time>
      </trkpt>
      <trkpt lat="43.52693" lon="6.62558">
        <ele>318.81</ele>
        <time>2016-09-30T12:54:45Z</time>
      </trkpt>
      <trkpt lat="43.52688" lon="6.62538">
        <ele>318.81</ele>
        <time>2016-09-30T12:54:57Z</time>
      </trkpt>
      <trkpt lat="43.52681" lon="6.62523">
        <ele>318.33</ele>
        <time>2016-09-30T12:55:07Z</time>
      </trkpt>
      <trkpt lat="43.52661" lon="6.62514">
        <ele>317.85</ele>
        <time>2016-09-30T12:55:24Z</time>
      </trkpt>
      <trkpt lat="43.52656" lon="6.6252">
        <ele>317.37</ele>
        <time>2016-09-30T12:55:30Z</time>
      </trkpt>
      <trkpt lat="43.52654" lon="6.62547">
        <ele>316.89</ele>
        <time>2016-09-30T12:55:46Z</time>
      </trkpt>
      <trkpt lat="43.52655" lon="6.62549">
        <ele>316.89</ele>
        <time>2016-09-30T12:55:47Z</time>
      </trkpt>
      <trkpt lat="43.52657" lon="6.62555">
        <ele>316.89</ele>
        <time>2016-09-30T12:55:51Z</time>
      </trkpt>
      <trkpt lat="43.52659" lon="6.62562">
        <ele>316.41</ele>
        <time>2016-09-30T12:55:55Z</time>
      </trkpt>
      <trkpt lat="43.52661" lon="6.62568">
        <ele>315.93</ele>
        <time>2016-09-30T12:55:59Z</time>
      </trkpt>
      <trkpt lat="43.52667" lon="6.62594">
        <ele>314.49</ele>
        <time>2016-09-30T12:56:15Z</time>
      </trkpt>
      <trkpt lat="43.5267" lon="6.62622">
        <ele>313.53</ele>
        <time>2016-09-30T12:56:30Z</time>
      </trkpt>
      <trkpt lat="43.52671" lon="6.62642">
        <ele>312.57</ele>
        <time>2016-09-30T12:56:42Z</time>
      </trkpt>
      <trkpt lat="43.52674" lon="6.62661">
        <ele>312.09</ele>
        <time>2016-09-30T12:56:53Z</time>
      </trkpt>
      <trkpt lat="43.52674" lon="6.62662">
        <ele>311.6</ele>
        <time>2016-09-30T12:56:54Z</time>
      </trkpt>
      <trkpt lat="43.52676" lon="6.62688">
        <ele>310.16</ele>
        <time>2016-09-30T12:57:09Z</time>
      </trkpt>
      <trkpt lat="43.52675" lon="6.62701">
        <ele>309.68</ele>
        <time>2016-09-30T12:57:16Z</time>
      </trkpt>
      <trkpt lat="43.52673" lon="6.62716">
        <ele>308.72</ele>
        <time>2016-09-30T12:57:24Z</time>
      </trkpt>
      <trkpt lat="43.52671" lon="6.62727">
        <ele>308.24</ele>
        <time>2016-09-30T12:57:31Z</time>
      </trkpt>
      <trkpt lat="43.52668" lon="6.62748">
        <ele>306.32</ele>
        <time>2016-09-30T12:57:43Z</time>
      </trkpt>
      <trkpt lat="43.52668" lon="6.62753">
        <ele>305.84</ele>
        <time>2016-09-30T12:57:46Z</time>
      </trkpt>
      <trkpt lat="43.52666" lon="6.62775">
        <ele>305.36</ele>
        <time>2016-09-30T12:57:59Z</time>
      </trkpt>
      <trkpt lat="43.52659" lon="6.62798">
        <ele>303.91</ele>
        <time>2016-09-30T12:58:13Z</time>
      </trkpt>
      <trkpt lat="43.52658" lon="6.628">
        <ele>303.43</ele>
        <time>2016-09-30T12:58:29Z</time>
      </trkpt>
      <trkpt lat="43.52659" lon="6.628">
        <ele>303.43</ele>
        <time>2016-09-30T12:58:49Z</time>
      </trkpt>
      <trkpt lat="43.52659" lon="6.62801">
        <ele>303.91</ele>
        <time>2016-09-30T12:59:03Z</time>
      </trkpt>
      <trkpt lat="43.52654" lon="6.62805">
        <ele>302.95</ele>
        <time>2016-09-30T12:59:08Z</time>
      </trkpt>
      <trkpt lat="43.52626" lon="6.62802">
        <ele>301.51</ele>
        <time>2016-09-30T12:59:26Z</time>
      </trkpt>
      <trkpt lat="43.52606" lon="6.62808">
        <ele>301.03</ele>
        <time>2016-09-30T12:59:39Z</time>
      </trkpt>
      <trkpt lat="43.52582" lon="6.62813">
        <ele>300.55</ele>
        <time>2016-09-30T12:59:55Z</time>
      </trkpt>
      <trkpt lat="43.52562" lon="6.62816">
        <ele>300.55</ele>
        <time>2016-09-30T13:00:10Z</time>
      </trkpt>
      <trkpt lat="43.52544" lon="6.6283">
        <ele>300.55</ele>
        <time>2016-09-30T13:00:25Z</time>
      </trkpt>
      <trkpt lat="43.52536" lon="6.62844">
        <ele>300.07</ele>
        <time>2016-09-30T13:00:35Z</time>
      </trkpt>
      <trkpt lat="43.52525" lon="6.62867">
        <ele>299.59</ele>
        <time>2016-09-30T13:00:50Z</time>
      </trkpt>
      <trkpt lat="43.52513" lon="6.6289">
        <ele>299.11</ele>
        <time>2016-09-30T13:01:05Z</time>
      </trkpt>
      <trkpt lat="43.52502" lon="6.62907">
        <ele>297.67</ele>
        <time>2016-09-30T13:01:18Z</time>
      </trkpt>
      <trkpt lat="43.52496" lon="6.62913">
        <ele>297.18</ele>
        <time>2016-09-30T13:01:24Z</time>
      </trkpt>
      <trkpt lat="43.52493" lon="6.62917">
        <ele>296.7</ele>
        <time>2016-09-30T13:01:28Z</time>
      </trkpt>
      <trkpt lat="43.52489" lon="6.62921">
        <ele>296.22</ele>
        <time>2016-09-30T13:01:32Z</time>
      </trkpt>
      <trkpt lat="43.52472" lon="6.62935">
        <ele>293.82</ele>
        <time>2016-09-30T13:01:47Z</time>
      </trkpt>
      <trkpt lat="43.5247" lon="6.62938">
        <ele>293.34</ele>
        <time>2016-09-30T13:01:49Z</time>
      </trkpt>
      <trkpt lat="43.52469" lon="6.6294">
        <ele>293.34</ele>
        <time>2016-09-30T13:01:51Z</time>
      </trkpt>
      <trkpt lat="43.52464" lon="6.62945">
        <ele>292.38</ele>
        <time>2016-09-30T13:01:56Z</time>
      </trkpt>
      <trkpt lat="43.52455" lon="6.62957">
        <ele>291.42</ele>
        <time>2016-09-30T13:02:07Z</time>
      </trkpt>
      <trkpt lat="43.5244" lon="6.62974">
        <ele>289.49</ele>
        <time>2016-09-30T13:02:22Z</time>
      </trkpt>
      <trkpt lat="43.52436" lon="6.6298">
        <ele>288.53</ele>
        <time>2016-09-30T13:02:26Z</time>
      </trkpt>
      <trkpt lat="43.52425" lon="6.63004">
        <ele>287.57</ele>
        <time>2016-09-30T13:02:41Z</time>
      </trkpt>
      <trkpt lat="43.52411" lon="6.6303">
        <ele>286.61</ele>
        <time>2016-09-30T13:03:00Z</time>
      </trkpt>
      <trkpt lat="43.52407" lon="6.63041">
        <ele>286.13</ele>
        <time>2016-09-30T13:03:06Z</time>
      </trkpt>
      <trkpt lat="43.52407" lon="6.63066">
        <ele>284.69</ele>
        <time>2016-09-30T13:03:20Z</time>
      </trkpt>
      <trkpt lat="43.52404" lon="6.63091">
        <ele>282.77</ele>
        <time>2016-09-30T13:03:34Z</time>
      </trkpt>
      <trkpt lat="43.52401" lon="6.63098">
        <ele>282.28</ele>
        <time>2016-09-30T13:03:39Z</time>
      </trkpt>
      <trkpt lat="43.52395" lon="6.63121">
        <ele>280.36</ele>
        <time>2016-09-30T13:03:53Z</time>
      </trkpt>
      <trkpt lat="43.52387" lon="6.63144">
        <ele>278.44</ele>
        <time>2016-09-30T13:04:08Z</time>
      </trkpt>
      <trkpt lat="43.52379" lon="6.63166">
        <ele>277.96</ele>
        <time>2016-09-30T13:04:22Z</time>
      </trkpt>
      <trkpt lat="43.52377" lon="6.63173">
        <ele>277.96</ele>
        <time>2016-09-30T13:04:26Z</time>
      </trkpt>
      <trkpt lat="43.5237" lon="6.63201">
        <ele>278.44</ele>
        <time>2016-09-30T13:04:43Z</time>
      </trkpt>
      <trkpt lat="43.52365" lon="6.63219">
        <ele>278.92</ele>
        <time>2016-09-30T13:04:55Z</time>
      </trkpt>
      <trkpt lat="43.52357" lon="6.63245">
        <ele>279.88</ele>
        <time>2016-09-30T13:05:11Z</time>
      </trkpt>
      <trkpt lat="43.52352" lon="6.63259">
        <ele>280.36</ele>
        <time>2016-09-30T13:05:22Z</time>
      </trkpt>
      <trkpt lat="43.52345" lon="6.63282">
        <ele>281.32</ele>
        <time>2016-09-30T13:05:37Z</time>
      </trkpt>
      <trkpt lat="43.52342" lon="6.633">
        <ele>282.28</ele>
        <time>2016-09-30T13:05:48Z</time>
      </trkpt>
      <trkpt lat="43.52341" lon="6.63302">
        <ele>282.28</ele>
        <time>2016-09-30T13:05:50Z</time>
      </trkpt>
      <trkpt lat="43.52337" lon="6.63316">
        <ele>282.77</ele>
        <time>2016-09-30T13:05:59Z</time>
      </trkpt>
      <trkpt lat="43.52331" lon="6.63342">
        <ele>283.73</ele>
        <time>2016-09-30T13:06:15Z</time>
      </trkpt>
      <trkpt lat="43.52331" lon="6.63349">
        <ele>283.25</ele>
        <time>2016-09-30T13:06:31Z</time>
      </trkpt>
      <trkpt lat="43.52331" lon="6.63349">
        <ele>283.73</ele>
        <time>2016-09-30T13:06:45Z</time>
      </trkpt>
      <trkpt lat="43.5233" lon="6.63353">
        <ele>283.73</ele>
        <time>2016-09-30T13:07:00Z</time>
      </trkpt>
      <trkpt lat="43.52331" lon="6.63352">
        <ele>283.73</ele>
        <time>2016-09-30T13:07:26Z</time>
      </trkpt>
      <trkpt lat="43.52331" lon="6.63352">
        <ele>283.73</ele>
        <time>2016-09-30T13:07:53Z</time>
      </trkpt>
      <trkpt lat="43.52332" lon="6.63352">
        <ele>283.73</ele>
        <time>2016-09-30T13:08:26Z</time>
      </trkpt>
      <trkpt lat="43.52332" lon="6.63352">
        <ele>282.77</ele>
        <time>2016-09-30T13:08:49Z</time>
      </trkpt>
      <trkpt lat="43.52332" lon="6.63351">
        <ele>282.77</ele>
        <time>2016-09-30T13:09:08Z</time>
      </trkpt>
      <trkpt lat="43.52333" lon="6.63351">
        <ele>282.77</ele>
        <time>2016-09-30T13:09:35Z</time>
      </trkpt>
      <trkpt lat="43.52333" lon="6.63351">
        <ele>282.77</ele>
        <time>2016-09-30T13:09:57Z</time>
      </trkpt>
      <trkpt lat="43.52333" lon="6.6335">
        <ele>282.77</ele>
        <time>2016-09-30T13:10:30Z</time>
      </trkpt>
      <trkpt lat="43.52333" lon="6.6335">
        <ele>282.77</ele>
        <time>2016-09-30T13:11:00Z</time>
      </trkpt>
      <trkpt lat="43.52332" lon="6.63351">
        <ele>282.28</ele>
        <time>2016-09-30T13:11:30Z</time>
      </trkpt>
      <trkpt lat="43.52332" lon="6.6335">
        <ele>282.28</ele>
        <time>2016-09-30T13:11:48Z</time>
      </trkpt>
      <trkpt lat="43.52331" lon="6.63348">
        <ele>282.28</ele>
        <time>2016-09-30T13:12:08Z</time>
      </trkpt>
      <trkpt lat="43.52331" lon="6.63347">
        <ele>282.28</ele>
        <time>2016-09-30T13:12:32Z</time>
      </trkpt>
      <trkpt lat="43.52332" lon="6.63346">
        <ele>282.28</ele>
        <time>2016-09-30T13:12:54Z</time>
      </trkpt>
      <trkpt lat="43.52331" lon="6.63346">
        <ele>281.8</ele>
        <time>2016-09-30T13:13:27Z</time>
      </trkpt>
      <trkpt lat="43.52331" lon="6.63348">
        <ele>281.8</ele>
        <time>2016-09-30T13:13:37Z</time>
      </trkpt>
      <trkpt lat="43.52334" lon="6.63369">
        <ele>281.32</ele>
        <time>2016-09-30T13:13:51Z</time>
      </trkpt>
      <trkpt lat="43.5234" lon="6.63391">
        <ele>280.36</ele>
        <time>2016-09-30T13:14:04Z</time>
      </trkpt>
      <trkpt lat="43.52342" lon="6.63403">
        <ele>279.88</ele>
        <time>2016-09-30T13:14:11Z</time>
      </trkpt>
      <trkpt lat="43.52344" lon="6.63427">
        <ele>278.92</ele>
        <time>2016-09-30T13:14:25Z</time>
      </trkpt>
      <trkpt lat="43.52343" lon="6.6345">
        <ele>278.44</ele>
        <time>2016-09-30T13:14:39Z</time>
      </trkpt>
      <trkpt lat="43.52342" lon="6.63459">
        <ele>278.44</ele>
        <time>2016-09-30T13:14:44Z</time>
      </trkpt>
      <trkpt lat="43.52339" lon="6.63489">
        <ele>277.96</ele>
        <time>2016-09-30T13:15:00Z</time>
      </trkpt>
      <trkpt lat="43.52338" lon="6.63492">
        <ele>277.96</ele>
        <time>2016-09-30T13:15:02Z</time>
      </trkpt>
      <trkpt lat="43.52336" lon="6.63516">
        <ele>277.96</ele>
        <time>2016-09-30T13:15:16Z</time>
      </trkpt>
      <trkpt lat="43.52337" lon="6.63523">
        <ele>277.96</ele>
        <time>2016-09-30T13:15:20Z</time>
      </trkpt>
      <trkpt lat="43.52337" lon="6.63545">
        <ele>277.96</ele>
        <time>2016-09-30T13:15:32Z</time>
      </trkpt>
      <trkpt lat="43.52337" lon="6.6357">
        <ele>278.44</ele>
        <time>2016-09-30T13:15:46Z</time>
      </trkpt>
      <trkpt lat="43.52335" lon="6.63589">
        <ele>278.44</ele>
        <time>2016-09-30T13:15:57Z</time>
      </trkpt>
      <trkpt lat="43.52329" lon="6.63613">
        <ele>278.92</ele>
        <time>2016-09-30T13:16:13Z</time>
      </trkpt>
      <trkpt lat="43.52321" lon="6.63635">
        <ele>279.88</ele>
        <time>2016-09-30T13:16:28Z</time>
      </trkpt>
      <trkpt lat="43.52315" lon="6.63646">
        <ele>280.36</ele>
        <time>2016-09-30T13:16:41Z</time>
      </trkpt>
      <trkpt lat="43.52315" lon="6.63647">
        <ele>280.36</ele>
        <time>2016-09-30T13:16:42Z</time>
      </trkpt>
      <trkpt lat="43.52313" lon="6.63651">
        <ele>280.84</ele>
        <time>2016-09-30T13:16:45Z</time>
      </trkpt>
      <trkpt lat="43.5231" lon="6.63653">
        <ele>280.84</ele>
        <time>2016-09-30T13:16:48Z</time>
      </trkpt>
      <trkpt lat="43.52308" lon="6.63657">
        <ele>280.84</ele>
        <time>2016-09-30T13:16:51Z</time>
      </trkpt>
      <trkpt lat="43.52296" lon="6.63673">
        <ele>281.8</ele>
        <time>2016-09-30T13:17:05Z</time>
      </trkpt>
      <trkpt lat="43.52291" lon="6.63699">
        <ele>283.25</ele>
        <time>2016-09-30T13:17:22Z</time>
      </trkpt>
      <trkpt lat="43.52292" lon="6.63723">
        <ele>284.21</ele>
        <time>2016-09-30T13:17:36Z</time>
      </trkpt>
      <trkpt lat="43.52295" lon="6.63742">
        <ele>285.17</ele>
        <time>2016-09-30T13:17:49Z</time>
      </trkpt>
      <trkpt lat="43.52297" lon="6.63761">
        <ele>286.61</ele>
        <time>2016-09-30T13:18:02Z</time>
      </trkpt>
      <trkpt lat="43.52297" lon="6.63764">
        <ele>286.61</ele>
        <time>2016-09-30T13:18:04Z</time>
      </trkpt>
      <trkpt lat="43.523" lon="6.63787">
        <ele>287.57</ele>
        <time>2016-09-30T13:18:19Z</time>
      </trkpt>
      <trkpt lat="43.52302" lon="6.63807">
        <ele>289.01</ele>
        <time>2016-09-30T13:18:34Z</time>
      </trkpt>
      <trkpt lat="43.52306" lon="6.6383">
        <ele>289.97</ele>
        <time>2016-09-30T13:18:50Z</time>
      </trkpt>
      <trkpt lat="43.52311" lon="6.6385">
        <ele>290.94</ele>
        <time>2016-09-30T13:19:04Z</time>
      </trkpt>
      <trkpt lat="43.52315" lon="6.6387">
        <ele>291.9</ele>
        <time>2016-09-30T13:19:18Z</time>
      </trkpt>
      <trkpt lat="43.52313" lon="6.63888">
        <ele>292.86</ele>
        <time>2016-09-30T13:19:31Z</time>
      </trkpt>
      <trkpt lat="43.5231" lon="6.63908">
        <ele>294.3</ele>
        <time>2016-09-30T13:19:45Z</time>
      </trkpt>
      <trkpt lat="43.52307" lon="6.63918">
        <ele>294.78</ele>
        <time>2016-09-30T13:19:52Z</time>
      </trkpt>
      <trkpt lat="43.52295" lon="6.63928">
        <ele>296.7</ele>
        <time>2016-09-30T13:20:06Z</time>
      </trkpt>
      <trkpt lat="43.52282" lon="6.63923">
        <ele>298.15</ele>
        <time>2016-09-30T13:20:19Z</time>
      </trkpt>
      <trkpt lat="43.52272" lon="6.63924">
        <ele>298.63</ele>
        <time>2016-09-30T13:20:28Z</time>
      </trkpt>
      <trkpt lat="43.5227" lon="6.63925">
        <ele>298.63</ele>
        <time>2016-09-30T13:20:30Z</time>
      </trkpt>
      <trkpt lat="43.52266" lon="6.63926">
        <ele>299.11</ele>
        <time>2016-09-30T13:20:34Z</time>
      </trkpt>
      <trkpt lat="43.52253" lon="6.63931">
        <ele>300.07</ele>
        <time>2016-09-30T13:20:47Z</time>
      </trkpt>
      <trkpt lat="43.52243" lon="6.6394">
        <ele>301.03</ele>
        <time>2016-09-30T13:20:58Z</time>
      </trkpt>
      <trkpt lat="43.52232" lon="6.6395">
        <ele>301.51</ele>
        <time>2016-09-30T13:21:10Z</time>
      </trkpt>
      <trkpt lat="43.5223" lon="6.63953">
        <ele>301.51</ele>
        <time>2016-09-30T13:21:13Z</time>
      </trkpt>
      <trkpt lat="43.52227" lon="6.63956">
        <ele>301.99</ele>
        <time>2016-09-30T13:21:16Z</time>
      </trkpt>
      <trkpt lat="43.52218" lon="6.63967">
        <ele>302.95</ele>
        <time>2016-09-30T13:21:29Z</time>
      </trkpt>
      <trkpt lat="43.52208" lon="6.63982">
        <ele>303.91</ele>
        <time>2016-09-30T13:21:42Z</time>
      </trkpt>
      <trkpt lat="43.522" lon="6.63989">
        <ele>305.36</ele>
        <time>2016-09-30T13:21:51Z</time>
      </trkpt>
      <trkpt lat="43.52196" lon="6.63997">
        <ele>305.84</ele>
        <time>2016-09-30T13:21:58Z</time>
      </trkpt>
      <trkpt lat="43.52191" lon="6.64008">
        <ele>306.8</ele>
        <time>2016-09-30T13:22:07Z</time>
      </trkpt>
      <trkpt lat="43.52185" lon="6.6403">
        <ele>308.24</ele>
        <time>2016-09-30T13:22:23Z</time>
      </trkpt>
      <trkpt lat="43.52178" lon="6.64051">
        <ele>309.2</ele>
        <time>2016-09-30T13:22:38Z</time>
      </trkpt>
      <trkpt lat="43.52164" lon="6.64067">
        <ele>309.68</ele>
        <time>2016-09-30T13:22:53Z</time>
      </trkpt>
      <trkpt lat="43.5215" lon="6.64082">
        <ele>310.16</ele>
        <time>2016-09-30T13:23:08Z</time>
      </trkpt>
      <trkpt lat="43.5214" lon="6.64101">
        <ele>310.64</ele>
        <time>2016-09-30T13:23:23Z</time>
      </trkpt>
      <trkpt lat="43.52138" lon="6.64105">
        <ele>310.64</ele>
        <time>2016-09-30T13:23:26Z</time>
      </trkpt>
      <trkpt lat="43.52134" lon="6.64111">
        <ele>311.12</ele>
        <time>2016-09-30T13:23:40Z</time>
      </trkpt>
      <trkpt lat="43.52134" lon="6.64111">
        <ele>311.6</ele>
        <time>2016-09-30T13:24:00Z</time>
      </trkpt>
      <trkpt lat="43.52133" lon="6.64111">
        <ele>310.64</ele>
        <time>2016-09-30T13:24:24Z</time>
      </trkpt>
      <trkpt lat="43.52133" lon="6.64111">
        <ele>310.64</ele>
        <time>2016-09-30T13:24:53Z</time>
      </trkpt>
      <trkpt lat="43.52132" lon="6.64112">
        <ele>310.16</ele>
        <time>2016-09-30T13:25:23Z</time>
      </trkpt>
      <trkpt lat="43.52133" lon="6.64112">
        <ele>310.16</ele>
        <time>2016-09-30T13:25:54Z</time>
      </trkpt>
      <trkpt lat="43.52133" lon="6.64111">
        <ele>310.64</ele>
        <time>2016-09-30T13:26:31Z</time>
      </trkpt>
      <trkpt lat="43.52133" lon="6.64112">
        <ele>310.64</ele>
        <time>2016-09-30T13:27:01Z</time>
      </trkpt>
      <trkpt lat="43.52133" lon="6.64111">
        <ele>311.12</ele>
        <time>2016-09-30T13:27:18Z</time>
      </trkpt>
      <trkpt lat="43.52133" lon="6.64112">
        <ele>310.64</ele>
        <time>2016-09-30T13:27:37Z</time>
      </trkpt>
      <trkpt lat="43.52133" lon="6.64113">
        <ele>310.64</ele>
        <time>2016-09-30T13:27:38Z</time>
      </trkpt>
      <trkpt lat="43.52129" lon="6.64132">
        <ele>310.16</ele>
        <time>2016-09-30T13:27:54Z</time>
      </trkpt>
      <trkpt lat="43.52123" lon="6.64151">
        <ele>308.72</ele>
        <time>2016-09-30T13:28:07Z</time>
      </trkpt>
      <trkpt lat="43.52121" lon="6.64154">
        <ele>308.24</ele>
        <time>2016-09-30T13:28:10Z</time>
      </trkpt>
      <trkpt lat="43.5211" lon="6.64165">
        <ele>307.28</ele>
        <time>2016-09-30T13:28:23Z</time>
      </trkpt>
      <trkpt lat="43.52095" lon="6.64179">
        <ele>306.32</ele>
        <time>2016-09-30T13:28:37Z</time>
      </trkpt>
      <trkpt lat="43.52083" lon="6.64191">
        <ele>304.39</ele>
        <time>2016-09-30T13:28:50Z</time>
      </trkpt>
      <trkpt lat="43.5207" lon="6.64205">
        <ele>302.47</ele>
        <time>2016-09-30T13:29:04Z</time>
      </trkpt>
      <trkpt lat="43.52068" lon="6.64206">
        <ele>302.47</ele>
        <time>2016-09-30T13:29:06Z</time>
      </trkpt>
      <trkpt lat="43.52066" lon="6.64208">
        <ele>301.99</ele>
        <time>2016-09-30T13:29:08Z</time>
      </trkpt>
      <trkpt lat="43.52051" lon="6.64223">
        <ele>299.59</ele>
        <time>2016-09-30T13:29:23Z</time>
      </trkpt>
      <trkpt lat="43.52046" lon="6.64228">
        <ele>298.63</ele>
        <time>2016-09-30T13:29:29Z</time>
      </trkpt>
      <trkpt lat="43.52039" lon="6.64234">
        <ele>297.67</ele>
        <time>2016-09-30T13:29:35Z</time>
      </trkpt>
      <trkpt lat="43.52037" lon="6.64237">
        <ele>297.18</ele>
        <time>2016-09-30T13:29:38Z</time>
      </trkpt>
      <trkpt lat="43.52033" lon="6.64243">
        <ele>296.22</ele>
        <time>2016-09-30T13:29:42Z</time>
      </trkpt>
      <trkpt lat="43.52022" lon="6.64258">
        <ele>294.3</ele>
        <time>2016-09-30T13:29:55Z</time>
      </trkpt>
      <trkpt lat="43.52018" lon="6.64266">
        <ele>294.3</ele>
        <time>2016-09-30T13:30:01Z</time>
      </trkpt>
      <trkpt lat="43.52016" lon="6.64268">
        <ele>293.34</ele>
        <time>2016-09-30T13:30:03Z</time>
      </trkpt>
      <trkpt lat="43.52009" lon="6.64289">
        <ele>290.94</ele>
        <time>2016-09-30T13:30:17Z</time>
      </trkpt>
      <trkpt lat="43.52008" lon="6.64298">
        <ele>289.97</ele>
        <time>2016-09-30T13:30:22Z</time>
      </trkpt>
      <trkpt lat="43.52003" lon="6.64323">
        <ele>288.05</ele>
        <time>2016-09-30T13:30:37Z</time>
      </trkpt>
      <trkpt lat="43.52" lon="6.64338">
        <ele>287.09</ele>
        <time>2016-09-30T13:30:47Z</time>
      </trkpt>
      <trkpt lat="43.51998" lon="6.64347">
        <ele>286.13</ele>
        <time>2016-09-30T13:30:55Z</time>
      </trkpt>
      <trkpt lat="43.51998" lon="6.64373">
        <ele>285.17</ele>
        <time>2016-09-30T13:31:10Z</time>
      </trkpt>
      <trkpt lat="43.51998" lon="6.64375">
        <ele>285.17</ele>
        <time>2016-09-30T13:31:11Z</time>
      </trkpt>
      <trkpt lat="43.52002" lon="6.64394">
        <ele>284.21</ele>
        <time>2016-09-30T13:31:22Z</time>
      </trkpt>
      <trkpt lat="43.52012" lon="6.64414">
        <ele>282.77</ele>
        <time>2016-09-30T13:31:35Z</time>
      </trkpt>
      <trkpt lat="43.5202" lon="6.64425">
        <ele>282.28</ele>
        <time>2016-09-30T13:31:44Z</time>
      </trkpt>
      <trkpt lat="43.52022" lon="6.64431">
        <ele>282.28</ele>
        <time>2016-09-30T13:31:48Z</time>
      </trkpt>
      <trkpt lat="43.52011" lon="6.64446">
        <ele>282.77</ele>
        <time>2016-09-30T13:32:02Z</time>
      </trkpt>
      <trkpt lat="43.51995" lon="6.64465">
        <ele>282.77</ele>
        <time>2016-09-30T13:32:20Z</time>
      </trkpt>
      <trkpt lat="43.51988" lon="6.64475">
        <ele>282.77</ele>
        <time>2016-09-30T13:32:27Z</time>
      </trkpt>
      <trkpt lat="43.5198" lon="6.64495">
        <ele>283.25</ele>
        <time>2016-09-30T13:32:41Z</time>
      </trkpt>
      <trkpt lat="43.51976" lon="6.6451">
        <ele>283.25</ele>
        <time>2016-09-30T13:32:55Z</time>
      </trkpt>
      <trkpt lat="43.51976" lon="6.64511">
        <ele>283.25</ele>
        <time>2016-09-30T13:33:05Z</time>
      </trkpt>
      <trkpt lat="43.51973" lon="6.64519">
        <ele>283.25</ele>
        <time>2016-09-30T13:33:12Z</time>
      </trkpt>
      <trkpt lat="43.51968" lon="6.64541">
        <ele>282.77</ele>
        <time>2016-09-30T13:33:27Z</time>
      </trkpt>
      <trkpt lat="43.51966" lon="6.64556">
        <ele>282.28</ele>
        <time>2016-09-30T13:33:36Z</time>
      </trkpt>
      <trkpt lat="43.51966" lon="6.64562">
        <ele>282.28</ele>
        <time>2016-09-30T13:33:40Z</time>
      </trkpt>
      <trkpt lat="43.5197" lon="6.64578">
        <ele>281.8</ele>
        <time>2016-09-30T13:33:51Z</time>
      </trkpt>
      <trkpt lat="43.51978" lon="6.6459">
        <ele>281.32</ele>
        <time>2016-09-30T13:33:59Z</time>
      </trkpt>
      <trkpt lat="43.51981" lon="6.64593">
        <ele>281.32</ele>
        <time>2016-09-30T13:34:03Z</time>
      </trkpt>
      <trkpt lat="43.51993" lon="6.64609">
        <ele>279.88</ele>
        <time>2016-09-30T13:34:16Z</time>
      </trkpt>
      <trkpt lat="43.51996" lon="6.64613">
        <ele>279.88</ele>
        <time>2016-09-30T13:34:20Z</time>
      </trkpt>
      <trkpt lat="43.52006" lon="6.64638">
        <ele>279.4</ele>
        <time>2016-09-30T13:34:36Z</time>
      </trkpt>
      <trkpt lat="43.5201" lon="6.64662">
        <ele>278.44</ele>
        <time>2016-09-30T13:34:50Z</time>
      </trkpt>
      <trkpt lat="43.52012" lon="6.64685">
        <ele>277.48</ele>
        <time>2016-09-30T13:35:03Z</time>
      </trkpt>
      <trkpt lat="43.52016" lon="6.64707">
        <ele>276.04</ele>
        <time>2016-09-30T13:35:17Z</time>
      </trkpt>
      <trkpt lat="43.52016" lon="6.64709">
        <ele>276.04</ele>
        <time>2016-09-30T13:35:18Z</time>
      </trkpt>
      <trkpt lat="43.52021" lon="6.64731">
        <ele>275.07</ele>
        <time>2016-09-30T13:35:30Z</time>
      </trkpt>
      <trkpt lat="43.52021" lon="6.64732">
        <ele>275.07</ele>
        <time>2016-09-30T13:35:31Z</time>
      </trkpt>
      <trkpt lat="43.52022" lon="6.6474">
        <ele>274.59</ele>
        <time>2016-09-30T13:35:35Z</time>
      </trkpt>
      <trkpt lat="43.52023" lon="6.64745">
        <ele>274.59</ele>
        <time>2016-09-30T13:35:38Z</time>
      </trkpt>
      <trkpt lat="43.52029" lon="6.64764">
        <ele>273.63</ele>
        <time>2016-09-30T13:35:50Z</time>
      </trkpt>
      <trkpt lat="43.52032" lon="6.64769">
        <ele>273.63</ele>
        <time>2016-09-30T13:35:53Z</time>
      </trkpt>
      <trkpt lat="43.52035" lon="6.64781">
        <ele>273.63</ele>
        <time>2016-09-30T13:36:00Z</time>
      </trkpt>
      <trkpt lat="43.52041" lon="6.64799">
        <ele>272.19</ele>
        <time>2016-09-30T13:36:12Z</time>
      </trkpt>
      <trkpt lat="43.52042" lon="6.64803">
        <ele>272.19</ele>
        <time>2016-09-30T13:36:14Z</time>
      </trkpt>
      <trkpt lat="43.52051" lon="6.64823">
        <ele>270.27</ele>
        <time>2016-09-30T13:36:28Z</time>
      </trkpt>
      <trkpt lat="43.52059" lon="6.64845">
        <ele>270.27</ele>
        <time>2016-09-30T13:36:42Z</time>
      </trkpt>
      <trkpt lat="43.5206" lon="6.64847">
        <ele>269.79</ele>
        <time>2016-09-30T13:36:43Z</time>
      </trkpt>
      <trkpt lat="43.52062" lon="6.64856">
        <ele>269.31</ele>
        <time>2016-09-30T13:36:49Z</time>
      </trkpt>
      <trkpt lat="43.52063" lon="6.64862">
        <ele>268.35</ele>
        <time>2016-09-30T13:36:53Z</time>
      </trkpt>
      <trkpt lat="43.5207" lon="6.64884">
        <ele>267.86</ele>
        <time>2016-09-30T13:37:06Z</time>
      </trkpt>
      <trkpt lat="43.52077" lon="6.64905">
        <ele>266.9</ele>
        <time>2016-09-30T13:37:20Z</time>
      </trkpt>
      <trkpt lat="43.52082" lon="6.64921">
        <ele>266.42</ele>
        <time>2016-09-30T13:37:30Z</time>
      </trkpt>
      <trkpt lat="43.52087" lon="6.64928">
        <ele>266.42</ele>
        <time>2016-09-30T13:37:44Z</time>
      </trkpt>
      <trkpt lat="43.52089" lon="6.64929">
        <ele>265.94</ele>
        <time>2016-09-30T13:37:51Z</time>
      </trkpt>
      <trkpt lat="43.52093" lon="6.64928">
        <ele>265.46</ele>
        <time>2016-09-30T13:38:03Z</time>
      </trkpt>
      <trkpt lat="43.52094" lon="6.64928">
        <ele>265.46</ele>
        <time>2016-09-30T13:38:05Z</time>
      </trkpt>
      <trkpt lat="43.52099" lon="6.64927">
        <ele>264.98</ele>
        <time>2016-09-30T13:38:20Z</time>
      </trkpt>
      <trkpt lat="43.52107" lon="6.64925">
        <ele>264.5</ele>
        <time>2016-09-30T13:38:36Z</time>
      </trkpt>
      <trkpt lat="43.52107" lon="6.64927">
        <ele>264.5</ele>
        <time>2016-09-30T13:38:51Z</time>
      </trkpt>
      <trkpt lat="43.52104" lon="6.64924">
        <ele>264.5</ele>
        <time>2016-09-30T13:39:06Z</time>
      </trkpt>
      <trkpt lat="43.52105" lon="6.64923">
        <ele>264.5</ele>
        <time>2016-09-30T13:39:31Z</time>
      </trkpt>
      <trkpt lat="43.52105" lon="6.64923">
        <ele>264.5</ele>
        <time>2016-09-30T13:39:55Z</time>
      </trkpt>
      <trkpt lat="43.52106" lon="6.64923">
        <ele>264.02</ele>
        <time>2016-09-30T13:40:11Z</time>
      </trkpt>
      <trkpt lat="43.52123" lon="6.64916">
        <ele>263.54</ele>
        <time>2016-09-30T13:40:27Z</time>
      </trkpt>
      <trkpt lat="43.52135" lon="6.64906">
        <ele>262.1</ele>
        <time>2016-09-30T13:40:41Z</time>
      </trkpt>
      <trkpt lat="43.52143" lon="6.649">
        <ele>261.62</ele>
        <time>2016-09-30T13:40:49Z</time>
      </trkpt>
      <trkpt lat="43.52155" lon="6.64903">
        <ele>260.65</ele>
        <time>2016-09-30T13:41:00Z</time>
      </trkpt>
      <trkpt lat="43.52158" lon="6.64909">
        <ele>260.17</ele>
        <time>2016-09-30T13:41:05Z</time>
      </trkpt>
      <trkpt lat="43.52149" lon="6.64923">
        <ele>259.21</ele>
        <time>2016-09-30T13:41:18Z</time>
      </trkpt>
      <trkpt lat="43.52133" lon="6.64936">
        <ele>257.29</ele>
        <time>2016-09-30T13:41:32Z</time>
      </trkpt>
      <trkpt lat="43.52131" lon="6.64937">
        <ele>257.29</ele>
        <time>2016-09-30T13:41:34Z</time>
      </trkpt>
      <trkpt lat="43.52127" lon="6.64944">
        <ele>256.33</ele>
        <time>2016-09-30T13:41:40Z</time>
      </trkpt>
      <trkpt lat="43.52112" lon="6.6496">
        <ele>254.89</ele>
        <time>2016-09-30T13:41:56Z</time>
      </trkpt>
      <trkpt lat="43.52108" lon="6.64964">
        <ele>254.41</ele>
        <time>2016-09-30T13:42:00Z</time>
      </trkpt>
      <trkpt lat="43.52098" lon="6.64973">
        <ele>253.44</ele>
        <time>2016-09-30T13:42:12Z</time>
      </trkpt>
      <trkpt lat="43.52092" lon="6.64977">
        <ele>252.96</ele>
        <time>2016-09-30T13:42:19Z</time>
      </trkpt>
      <trkpt lat="43.52079" lon="6.64979">
        <ele>251.52</ele>
        <time>2016-09-30T13:42:32Z</time>
      </trkpt>
      <trkpt lat="43.52076" lon="6.64983">
        <ele>250.56</ele>
        <time>2016-09-30T13:42:38Z</time>
      </trkpt>
      <trkpt lat="43.5208" lon="6.64992">
        <ele>250.56</ele>
        <time>2016-09-30T13:42:48Z</time>
      </trkpt>
      <trkpt lat="43.52087" lon="6.64994">
        <ele>251.04</ele>
        <time>2016-09-30T13:42:55Z</time>
      </trkpt>
      <trkpt lat="43.52096" lon="6.64991">
        <ele>251.04</ele>
        <time>2016-09-30T13:43:06Z</time>
      </trkpt>
      <trkpt lat="43.52096" lon="6.64991">
        <ele>251.52</ele>
        <time>2016-09-30T13:43:28Z</time>
      </trkpt>
      <trkpt lat="43.52099" lon="6.64991">
        <ele>251.52</ele>
        <time>2016-09-30T13:43:36Z</time>
      </trkpt>
      <trkpt lat="43.52103" lon="6.6499">
        <ele>251.52</ele>
        <time>2016-09-30T13:43:40Z</time>
      </trkpt>
      <trkpt lat="43.52118" lon="6.64986">
        <ele>251.04</ele>
        <time>2016-09-30T13:43:54Z</time>
      </trkpt>
      <trkpt lat="43.52122" lon="6.64986">
        <ele>251.04</ele>
        <time>2016-09-30T13:43:59Z</time>
      </trkpt>
      <trkpt lat="43.52126" lon="6.64985">
        <ele>250.56</ele>
        <time>2016-09-30T13:44:03Z</time>
      </trkpt>
      <trkpt lat="43.52135" lon="6.64986">
        <ele>250.08</ele>
        <time>2016-09-30T13:44:12Z</time>
      </trkpt>
      <trkpt lat="43.52143" lon="6.64986">
        <ele>249.6</ele>
        <time>2016-09-30T13:44:21Z</time>
      </trkpt>
      <trkpt lat="43.52155" lon="6.64983">
        <ele>249.12</ele>
        <time>2016-09-30T13:44:35Z</time>
      </trkpt>
      <trkpt lat="43.52159" lon="6.64982">
        <ele>247.68</ele>
        <time>2016-09-30T13:44:52Z</time>
      </trkpt>
      <trkpt lat="43.52164" lon="6.6499">
        <ele>244.79</ele>
        <time>2016-09-30T13:45:08Z</time>
      </trkpt>
      <trkpt lat="43.52171" lon="6.64995">
        <ele>241.91</ele>
        <time>2016-09-30T13:45:24Z</time>
      </trkpt>
      <trkpt lat="43.52178" lon="6.65002">
        <ele>239.51</ele>
        <time>2016-09-30T13:45:39Z</time>
      </trkpt>
      <trkpt lat="43.52186" lon="6.65011">
        <ele>237.58</ele>
        <time>2016-09-30T13:45:55Z</time>
      </trkpt>
      <trkpt lat="43.52191" lon="6.65016">
        <ele>235.18</ele>
        <time>2016-09-30T13:46:10Z</time>
      </trkpt>
      <trkpt lat="43.522" lon="6.65024">
        <ele>232.3</ele>
        <time>2016-09-30T13:46:27Z</time>
      </trkpt>
      <trkpt lat="43.52205" lon="6.65027">
        <ele>230.85</ele>
        <time>2016-09-30T13:46:39Z</time>
      </trkpt>
      <trkpt lat="43.5221" lon="6.6503">
        <ele>229.89</ele>
        <time>2016-09-30T13:46:50Z</time>
      </trkpt>
      <trkpt lat="43.52216" lon="6.65035">
        <ele>227.97</ele>
        <time>2016-09-30T13:47:03Z</time>
      </trkpt>
      <trkpt lat="43.52221" lon="6.65043">
        <ele>226.05</ele>
        <time>2016-09-30T13:47:15Z</time>
      </trkpt>
      <trkpt lat="43.52232" lon="6.65049">
        <ele>224.61</ele>
        <time>2016-09-30T13:47:29Z</time>
      </trkpt>
      <trkpt lat="43.52243" lon="6.65053">
        <ele>224.12</ele>
        <time>2016-09-30T13:47:41Z</time>
      </trkpt>
      <trkpt lat="43.52253" lon="6.65052">
        <ele>222.68</ele>
        <time>2016-09-30T13:47:55Z</time>
      </trkpt>
      <trkpt lat="43.52264" lon="6.65053">
        <ele>221.72</ele>
        <time>2016-09-30T13:48:08Z</time>
      </trkpt>
      <trkpt lat="43.52267" lon="6.65053">
        <ele>221.24</ele>
        <time>2016-09-30T13:48:10Z</time>
      </trkpt>
      <trkpt lat="43.52278" lon="6.65056">
        <ele>220.28</ele>
        <time>2016-09-30T13:48:24Z</time>
      </trkpt>
      <trkpt lat="43.52287" lon="6.65058">
        <ele>219.32</ele>
        <time>2016-09-30T13:48:37Z</time>
      </trkpt>
      <trkpt lat="43.52298" lon="6.65064">
        <ele>218.36</ele>
        <time>2016-09-30T13:48:52Z</time>
      </trkpt>
      <trkpt lat="43.52305" lon="6.65072">
        <ele>216.91</ele>
        <time>2016-09-30T13:49:05Z</time>
      </trkpt>
      <trkpt lat="43.52312" lon="6.65081">
        <ele>215.95</ele>
        <time>2016-09-30T13:49:17Z</time>
      </trkpt>
      <trkpt lat="43.52318" lon="6.6509">
        <ele>214.99</ele>
        <time>2016-09-30T13:49:28Z</time>
      </trkpt>
      <trkpt lat="43.52326" lon="6.65098">
        <ele>214.51</ele>
        <time>2016-09-30T13:49:41Z</time>
      </trkpt>
      <trkpt lat="43.52333" lon="6.65101">
        <ele>213.55</ele>
        <time>2016-09-30T13:49:53Z</time>
      </trkpt>
      <trkpt lat="43.52344" lon="6.65107">
        <ele>212.59</ele>
        <time>2016-09-30T13:50:08Z</time>
      </trkpt>
      <trkpt lat="43.5235" lon="6.65115">
        <ele>211.63</ele>
        <time>2016-09-30T13:50:19Z</time>
      </trkpt>
      <trkpt lat="43.52353" lon="6.65117">
        <ele>211.15</ele>
        <time>2016-09-30T13:50:22Z</time>
      </trkpt>
      <trkpt lat="43.52362" lon="6.6512">
        <ele>210.67</ele>
        <time>2016-09-30T13:50:34Z</time>
      </trkpt>
      <trkpt lat="43.5237" lon="6.65125">
        <ele>209.7</ele>
        <time>2016-09-30T13:50:52Z</time>
      </trkpt>
      <trkpt lat="43.52374" lon="6.65128">
        <ele>209.7</ele>
        <time>2016-09-30T13:51:06Z</time>
      </trkpt>
      <trkpt lat="43.52376" lon="6.65131">
        <ele>209.22</ele>
        <time>2016-09-30T13:51:18Z</time>
      </trkpt>
      <trkpt lat="43.52392" lon="6.65135">
        <ele>208.26</ele>
        <time>2016-09-30T13:51:32Z</time>
      </trkpt>
      <trkpt lat="43.52395" lon="6.65135">
        <ele>208.26</ele>
        <time>2016-09-30T13:51:34Z</time>
      </trkpt>
      <trkpt lat="43.52405" lon="6.6514">
        <ele>207.78</ele>
        <time>2016-09-30T13:51:46Z</time>
      </trkpt>
      <trkpt lat="43.52412" lon="6.65148">
        <ele>207.3</ele>
        <time>2016-09-30T13:51:58Z</time>
      </trkpt>
      <trkpt lat="43.52418" lon="6.6515">
        <ele>207.78</ele>
        <time>2016-09-30T13:52:03Z</time>
      </trkpt>
      <trkpt lat="43.52421" lon="6.65151">
        <ele>206.82</ele>
        <time>2016-09-30T13:52:06Z</time>
      </trkpt>
      <trkpt lat="43.52432" lon="6.65162">
        <ele>206.34</ele>
        <time>2016-09-30T13:52:20Z</time>
      </trkpt>
      <trkpt lat="43.52443" lon="6.65171">
        <ele>205.86</ele>
        <time>2016-09-30T13:52:33Z</time>
      </trkpt>
      <trkpt lat="43.52452" lon="6.65176">
        <ele>205.38</ele>
        <time>2016-09-30T13:52:46Z</time>
      </trkpt>
      <trkpt lat="43.52454" lon="6.65185">
        <ele>204.42</ele>
        <time>2016-09-30T13:53:00Z</time>
      </trkpt>
      <trkpt lat="43.52456" lon="6.6519">
        <ele>204.42</ele>
        <time>2016-09-30T13:53:16Z</time>
      </trkpt>
      <trkpt lat="43.52457" lon="6.6519">
        <ele>204.42</ele>
        <time>2016-09-30T13:53:37Z</time>
      </trkpt>
      <trkpt lat="43.52457" lon="6.65189">
        <ele>204.42</ele>
        <time>2016-09-30T13:54:00Z</time>
      </trkpt>
      <trkpt lat="43.52471" lon="6.65202">
        <ele>204.42</ele>
        <time>2016-09-30T13:54:19Z</time>
      </trkpt>
      <trkpt lat="43.52482" lon="6.65207">
        <ele>204.42</ele>
        <time>2016-09-30T13:54:32Z</time>
      </trkpt>
      <trkpt lat="43.5249" lon="6.65207">
        <ele>204.9</ele>
        <time>2016-09-30T13:54:38Z</time>
      </trkpt>
      <trkpt lat="43.52506" lon="6.6521">
        <ele>205.38</ele>
        <time>2016-09-30T13:54:53Z</time>
      </trkpt>
      <trkpt lat="43.52519" lon="6.65214">
        <ele>205.86</ele>
        <time>2016-09-30T13:55:07Z</time>
      </trkpt>
      <trkpt lat="43.52534" lon="6.65215">
        <ele>206.82</ele>
        <time>2016-09-30T13:55:22Z</time>
      </trkpt>
      <trkpt lat="43.52547" lon="6.6522">
        <ele>207.3</ele>
        <time>2016-09-30T13:55:36Z</time>
      </trkpt>
      <trkpt lat="43.52557" lon="6.65223">
        <ele>206.82</ele>
        <time>2016-09-30T13:55:46Z</time>
      </trkpt>
      <trkpt lat="43.5257" lon="6.65231">
        <ele>206.34</ele>
        <time>2016-09-30T13:56:00Z</time>
      </trkpt>
      <trkpt lat="43.5258" lon="6.65238">
        <ele>205.86</ele>
        <time>2016-09-30T13:56:12Z</time>
      </trkpt>
      <trkpt lat="43.52585" lon="6.65244">
        <ele>206.34</ele>
        <time>2016-09-30T13:56:18Z</time>
      </trkpt>
      <trkpt lat="43.52596" lon="6.65259">
        <ele>205.86</ele>
        <time>2016-09-30T13:56:33Z</time>
      </trkpt>
      <trkpt lat="43.52605" lon="6.65276">
        <ele>205.86</ele>
        <time>2016-09-30T13:56:48Z</time>
      </trkpt>
      <trkpt lat="43.52607" lon="6.65279">
        <ele>206.34</ele>
        <time>2016-09-30T13:56:51Z</time>
      </trkpt>
      <trkpt lat="43.52608" lon="6.65282">
        <ele>205.86</ele>
        <time>2016-09-30T13:56:53Z</time>
      </trkpt>
      <trkpt lat="43.52615" lon="6.65295">
        <ele>205.86</ele>
        <time>2016-09-30T13:57:05Z</time>
      </trkpt>
      <trkpt lat="43.5262" lon="6.65301">
        <ele>206.34</ele>
        <time>2016-09-30T13:57:19Z</time>
      </trkpt>
      <trkpt lat="43.52623" lon="6.65303">
        <ele>206.34</ele>
        <time>2016-09-30T13:57:56Z</time>
      </trkpt>
      <trkpt lat="43.52625" lon="6.65305">
        <ele>206.82</ele>
        <time>2016-09-30T13:58:21Z</time>
      </trkpt>
      <trkpt lat="43.52631" lon="6.65309">
        <ele>206.82</ele>
        <time>2016-09-30T13:58:28Z</time>
      </trkpt>
      <trkpt lat="43.52639" lon="6.65326">
        <ele>207.3</ele>
        <time>2016-09-30T13:58:43Z</time>
      </trkpt>
      <trkpt lat="43.52649" lon="6.6534">
        <ele>207.78</ele>
        <time>2016-09-30T13:58:58Z</time>
      </trkpt>
      <trkpt lat="43.5266" lon="6.65349">
        <ele>207.78</ele>
        <time>2016-09-30T13:59:12Z</time>
      </trkpt>
      <trkpt lat="43.52663" lon="6.6535">
        <ele>208.26</ele>
        <time>2016-09-30T13:59:16Z</time>
      </trkpt>
      <trkpt lat="43.52676" lon="6.65352">
        <ele>209.22</ele>
        <time>2016-09-30T13:59:27Z</time>
      </trkpt>
      <trkpt lat="43.52687" lon="6.65361">
        <ele>209.22</ele>
        <time>2016-09-30T13:59:41Z</time>
      </trkpt>
      <trkpt lat="43.52692" lon="6.6537">
        <ele>209.22</ele>
        <time>2016-09-30T13:59:49Z</time>
      </trkpt>
      <trkpt lat="43.52699" lon="6.65377">
        <ele>209.22</ele>
        <time>2016-09-30T13:59:55Z</time>
      </trkpt>
      <trkpt lat="43.52717" lon="6.65388">
        <ele>209.7</ele>
        <time>2016-09-30T14:00:10Z</time>
      </trkpt>
      <trkpt lat="43.52728" lon="6.65398">
        <ele>209.7</ele>
        <time>2016-09-30T14:00:23Z</time>
      </trkpt>
      <trkpt lat="43.52743" lon="6.65408">
        <ele>210.19</ele>
        <time>2016-09-30T14:00:37Z</time>
      </trkpt>
      <trkpt lat="43.52755" lon="6.65415">
        <ele>210.19</ele>
        <time>2016-09-30T14:00:46Z</time>
      </trkpt>
      <trkpt lat="43.52758" lon="6.65418">
        <ele>210.19</ele>
        <time>2016-09-30T14:00:50Z</time>
      </trkpt>
      <trkpt lat="43.52759" lon="6.65421">
        <ele>210.19</ele>
        <time>2016-09-30T14:00:52Z</time>
      </trkpt>
      <trkpt lat="43.52779" lon="6.65432">
        <ele>210.19</ele>
        <time>2016-09-30T14:01:08Z</time>
      </trkpt>
      <trkpt lat="43.52782" lon="6.65436">
        <ele>209.7</ele>
        <time>2016-09-30T14:01:12Z</time>
      </trkpt>
      <trkpt lat="43.52799" lon="6.6545">
        <ele>210.19</ele>
        <time>2016-09-30T14:01:28Z</time>
      </trkpt>
      <trkpt lat="43.52809" lon="6.65459">
        <ele>210.67</ele>
        <time>2016-09-30T14:01:41Z</time>
      </trkpt>
      <trkpt lat="43.52813" lon="6.65462">
        <ele>210.67</ele>
        <time>2016-09-30T14:01:46Z</time>
      </trkpt>
      <trkpt lat="43.52817" lon="6.65462">
        <ele>210.67</ele>
        <time>2016-09-30T14:01:54Z</time>
      </trkpt>
      <trkpt lat="43.52819" lon="6.65462">
        <ele>210.67</ele>
        <time>2016-09-30T14:01:56Z</time>
      </trkpt>
      <trkpt lat="43.5283" lon="6.65472">
        <ele>211.15</ele>
        <time>2016-09-30T14:02:09Z</time>
      </trkpt>
      <trkpt lat="43.52841" lon="6.65483">
        <ele>211.63</ele>
        <time>2016-09-30T14:02:23Z</time>
      </trkpt>
      <trkpt lat="43.52852" lon="6.6549">
        <ele>211.63</ele>
        <time>2016-09-30T14:02:36Z</time>
      </trkpt>
      <trkpt lat="43.5286" lon="6.65495">
        <ele>212.11</ele>
        <time>2016-09-30T14:02:49Z</time>
      </trkpt>
      <trkpt lat="43.52868" lon="6.65495">
        <ele>212.59</ele>
        <time>2016-09-30T14:03:02Z</time>
      </trkpt>
      <trkpt lat="43.52867" lon="6.65496">
        <ele>212.59</ele>
        <time>2016-09-30T14:03:14Z</time>
      </trkpt>
      <trkpt lat="43.52868" lon="6.65498">
        <ele>213.07</ele>
        <time>2016-09-30T14:03:29Z</time>
      </trkpt>
      <trkpt lat="43.52869" lon="6.65499">
        <ele>212.59</ele>
        <time>2016-09-30T14:03:59Z</time>
      </trkpt>
      <trkpt lat="43.5287" lon="6.65502">
        <ele>213.55</ele>
        <time>2016-09-30T14:04:32Z</time>
      </trkpt>
      <trkpt lat="43.5287" lon="6.655">
        <ele>213.07</ele>
        <time>2016-09-30T14:04:54Z</time>
      </trkpt>
      <trkpt lat="43.52871" lon="6.655">
        <ele>212.59</ele>
        <time>2016-09-30T14:05:08Z</time>
      </trkpt>
      <trkpt lat="43.52869" lon="6.65498">
        <ele>212.59</ele>
        <time>2016-09-30T14:05:27Z</time>
      </trkpt>
      <trkpt lat="43.52862" lon="6.65489">
        <ele>212.11</ele>
        <time>2016-09-30T14:05:39Z</time>
      </trkpt>
      <trkpt lat="43.52852" lon="6.65486">
        <ele>211.15</ele>
        <time>2016-09-30T14:06:00Z</time>
      </trkpt>
      <trkpt lat="43.52844" lon="6.65484">
        <ele>209.7</ele>
        <time>2016-09-30T14:06:18Z</time>
      </trkpt>
      <trkpt lat="43.52837" lon="6.65483">
        <ele>209.7</ele>
        <time>2016-09-30T14:06:47Z</time>
      </trkpt>
      <trkpt lat="43.52836" lon="6.65484">
        <ele>209.7</ele>
        <time>2016-09-30T14:07:19Z</time>
      </trkpt>
      <trkpt lat="43.52833" lon="6.65485">
        <ele>209.7</ele>
        <time>2016-09-30T14:07:47Z</time>
      </trkpt>
      <trkpt lat="43.52833" lon="6.65483">
        <ele>209.7</ele>
        <time>2016-09-30T14:08:24Z</time>
      </trkpt>
      <trkpt lat="43.52832" lon="6.65483">
        <ele>209.7</ele>
        <time>2016-09-30T14:08:58Z</time>
      </trkpt>
      <trkpt lat="43.52832" lon="6.65484">
        <ele>209.22</ele>
        <time>2016-09-30T14:09:33Z</time>
      </trkpt>
      <trkpt lat="43.52833" lon="6.65484">
        <ele>209.7</ele>
        <time>2016-09-30T14:10:00Z</time>
      </trkpt>
      <trkpt lat="43.52833" lon="6.65486">
        <ele>210.19</ele>
        <time>2016-09-30T14:10:33Z</time>
      </trkpt>
      <trkpt lat="43.52833" lon="6.65486">
        <ele>210.19</ele>
        <time>2016-09-30T14:10:42Z</time>
      </trkpt>
      <trkpt lat="43.52835" lon="6.65485">
        <ele>210.19</ele>
        <time>2016-09-30T14:10:44Z</time>
      </trkpt>
      <trkpt lat="43.52844" lon="6.65481">
        <ele>210.67</ele>
        <time>2016-09-30T14:10:59Z</time>
      </trkpt>
      <trkpt lat="43.52844" lon="6.6548">
        <ele>210.19</ele>
        <time>2016-09-30T14:11:01Z</time>
      </trkpt>
      <trkpt lat="43.52843" lon="6.65481">
        <ele>210.67</ele>
        <time>2016-09-30T14:11:06Z</time>
      </trkpt>
      <trkpt lat="43.52839" lon="6.6548">
        <ele>210.67</ele>
        <time>2016-09-30T14:11:12Z</time>
      </trkpt>
      <trkpt lat="43.52832" lon="6.6548">
        <ele>209.7</ele>
        <time>2016-09-30T14:11:23Z</time>
      </trkpt>
      <trkpt lat="43.52833" lon="6.6548">
        <ele>207.3</ele>
        <time>2016-09-30T14:11:54Z</time>
      </trkpt>
      <trkpt lat="43.52833" lon="6.6548">
        <ele>211.63</ele>
        <time>2016-09-30T14:11:55Z</time>
      </trkpt>
      <trkpt lat="43.52833" lon="6.65483">
        <ele>209.22</ele>
        <time>2016-09-30T14:12:20Z</time>
      </trkpt>
      <trkpt lat="43.52834" lon="6.65484">
        <ele>209.7</ele>
        <time>2016-09-30T14:12:40Z</time>
      </trkpt>
      <trkpt lat="43.52834" lon="6.65484">
        <ele>207.3</ele>
        <time>2016-09-30T14:13:04Z</time>
      </trkpt>
    </trkseg>
  </trk>
</gpx>